     2              OBSERVATION DATA    G                   RINEX VERSION / TYPE
Leica SKI-Pro 3.0 V3 11-9-5 16:25                           PGM / RUN BY / DATE
                                                            OBSERVER / AGENCY
23500312_1740450                                            MARKER NAME
23500312_1740450                                            MARKER NUMBER
REF1 LEICA SR530 4.20                                       REC # / TYPE / VERS
LEIAT502                                                    ANT # / TYPE
 -1355319.6580 -5232268.5927  3377351.8782                  APPROX POSITION XYZ
        2.3600        0.0000        0.0000                  ANTENNA: DELTA H/E/N
L1PhaOff: 0.0618 L2PhaOff: 0.0654                           COMMENT
     1     1                                                WAVELENGTH FACT L1/2
     4    C1    L1    P2    L2                              # / TYPES OF OBSERV
  2005     3    12    17    40   45.000000                  TIME OF FIRST OBS
  2005     3    12    23     8   35.000000                  TIME OF LAST OBS
    13                                                      LEAP SECONDS
    15                                                      # OF SATELLITES
C1 P1 L1 D1 P2 L2 D2                                        COMMENT
   G 1     0     0     0     0     0     0     0            PRN / # OF OBS
   G 2  1939     0  1939     0  1939  1939     0            PRN / # OF OBS
   G 3   192     0   192     0   189   189     0            PRN / # OF OBS
   G 4   487     0   487     0   487   487     0            PRN / # OF OBS
   G 5  1831     0  1831     0  1831  1831     0            PRN / # OF OBS
   G 6  3767     0  3767     0  3766  3766     0            PRN / # OF OBS
   G 7     0     0     0     0     0     0     0            PRN / # OF OBS
   G 8     0     0     0     0     0     0     0            PRN / # OF OBS
   G 9   408     0   408     0   406   406     0            PRN / # OF OBS
   G10  2587     0  2587     0  2587  2587     0            PRN / # OF OBS
   G11     0     0     0     0     0     0     0            PRN / # OF OBS
   G12     0     0     0     0     0     0     0            PRN / # OF OBS
   G13     0     0     0     0     0     0     0            PRN / # OF OBS
   G14   251     0   251     0   249   249     0            PRN / # OF OBS
   G15  1223     0  1223     0  1221  1221     0            PRN / # OF OBS
   G16     0     0     0     0     0     0     0            PRN / # OF OBS
   G17     0     0     0     0     0     0     0            PRN / # OF OBS
   G18  2268     0  2268     0  2266  2266     0            PRN / # OF OBS
   G19     0     0     0     0     0     0     0            PRN / # OF OBS
   G20     0     0     0     0     0     0     0            PRN / # OF OBS
   G21  2892     0  2892     0  2890  2890     0            PRN / # OF OBS
   G22  1308     0  1308     0  1307  1307     0            PRN / # OF OBS
   G23     0     0     0     0     0     0     0            PRN / # OF OBS
   G24     0     0     0     0     0     0     0            PRN / # OF OBS
   G25     0     0     0     0     0     0     0            PRN / # OF OBS
   G26  2627     0  2627     0  2625  2625     0            PRN / # OF OBS
   G27     0     0     0     0     0     0     0            PRN / # OF OBS
   G28     0     0     0     0     0     0     0            PRN / # OF OBS
   G29  2840     0  2840     0  2837  2837     0            PRN / # OF OBS
   G30  2467     0  2467     0  2467  2467     0            PRN / # OF OBS
   G31     0     0     0     0     0     0     0            PRN / # OF OBS
   G32     0     0     0     0     0     0     0            PRN / # OF OBS
                                                            END OF HEADER
  5  3 12 17 40 45.0000000  0  5G 2G 4G 5G10G30
  20353925.555   106960603.96759  20353924.810    83345920.08558
  22860784.580   120134243.30857  22860787.751    93611102.73057
  20538807.599   107932167.63259  20538809.193    84102993.47758
  21191529.282   111362242.26058  21191531.801    86775779.72458
  22051746.789   115882715.08458  22051749.574    90298228.86058
  5  3 12 17 40 50.0000000  0  5G 2G 4G 5G10G30
  20354876.646   106965601.98549  20354875.901    83349814.64648
  22863597.423   120149024.80247  22863600.640    93622620.72847
  20538711.565   107931662.94249  20538713.153    84102600.20948
  21189226.818   111350142.85648  21189229.355    86766351.62548
  22049488.001   115870845.16648  22049490.778    90288979.59548
  5  3 12 17 40 55.0000000  0  5G 2G 4G 5G10G30
  20355799.468   106970451.44549  20355798.722    83353593.44248
  22866380.437   120163649.67247  22866383.669    93634016.73547
  20538588.498   107931016.18849  20538590.087    84102096.24248
  21186896.741   111337898.40648  21186899.303    86756810.51248
  22047201.375   115858828.83648  22047204.166    90279616.20648
  5  3 12 17 41  0.0000000  0  5G 2G 4G 5G10G30
  20356723.756   106975308.58349  20356723.005    83357378.22548
  22869163.355   120178274.03847  22869166.613    93645412.33347
  20538468.132   107930383.63049  20538469.736    84101603.33148
  21184568.835   111325665.20748  21184571.403    86747278.15348
  22044916.622   115846822.37448  22044919.419    90270260.51748
  5  3 12 17 41  5.0000000  0  5G 2G 4G 5G10G30
  20357649.893   106980175.46649  20357649.135    83361170.60649
  22871946.592   120192900.07547  22871949.864    93656809.24947
  20538350.851   107929767.31349  20538352.463    84101123.08748
  21182243.475   111313445.32748  21182246.038    86737756.17248
  22042634.130   115834827.80148  22042636.929    90260914.10448
  5  3 12 17 41 10.0000000  0  5G 2G 4G 5G10G30
  20358607.514   106985207.82549  20358606.754    83365091.92748
  22874759.803   120207683.41447  22874763.079    93668328.70947
  20538266.305   107929322.98849  20538267.918    84100776.85849
  21179950.288   111301394.54948  21179952.853    86728365.96048
  22040383.544   115823000.85948  22040386.353    90251698.31048
  5  3 12 17 41 15.0000000  0  5G 2G 4G 5G10G30
  20359567.612   106990253.14349  20359566.858    83369023.32949
  22877573.908   120222471.63547  22877577.186    93679852.00447
  20538185.470   107928898.13849  20538187.085    84100445.79948
  21177660.245   111289360.32348  21177662.803    86718988.65248
  22038135.847   115811189.09948  22038138.660    90242494.34848
  5  3 12 17 41 20.0000000  0  5G 2G 4G 5G10G30
  20360501.105   106995158.71549  20360500.343    83372845.85649
  22880359.897   120237112.04447  22880363.204    93691260.09747
  20538079.275   107928340.08049  20538080.891    84100010.95049
  21175344.302   111277189.96248  21175346.854    86709505.25948
  22035861.967   115799239.77748  22035864.781    90233183.19648
  5  3 12 17 41 25.0000000  0  5G 2G 4G 5G10G30
  20361408.209   106999925.58149  20361407.440    83376560.29949
  22883117.933   120251605.64947  22883121.274    93702553.80647
  20537947.966   107927649.88949  20537949.571    84099473.12549
  21173002.676   111264884.60248  21173005.216    86699916.67248
  22033562.132   115787154.06548  22033564.948    90223765.76348
  5  3 12 17 41 30.0000000  0  5G 2G 4G 5G10G30
  20362406.315   107005170.62849  20362405.539    83380647.34549
  22885965.408   120266569.26647  22885968.770    93714213.76647
  20537908.873   107927444.42349  20537910.472    84099313.02149
  21170752.741   111253061.11348  21170755.267    86690703.57348
  22031353.735   115775548.82848  22031356.560    90214722.71948
  5  3 12 17 41 35.0000000  0  5G 2G 4G 5G10G30
  20363290.428   107009816.64649  20363289.652    83384267.61248
  22888697.385   120280925.80547  22888700.729    93725400.68147
  20537757.045   107926646.52849  20537758.638    84098691.28649
  21168389.525   111240642.33148  21168392.060    86681026.60448
  22029031.772   115763346.86248  22029034.605    90205214.70248
  5  3 12 17 41 40.0000000  0  5G 2G 4G 5G10G30
  20364265.804   107014942.24749  20364265.013    83388261.58349
  22891519.108   120295753.87447  22891522.443    93736955.00247
  20537697.735   107926334.82249  20537699.329    84098448.39448
  21166118.282   111228706.89648  21166120.818    86671726.27748
  22026801.539   115751626.84448  22026804.375    90196082.22148
  5  3 12 17 41 45.0000000  0  5G 2G 4G 5G10G30
  20365215.318   107019931.94549  20365214.520    83392149.65549
  22894313.404   120310437.90347  22894316.728    93748397.10047
  20537613.806   107925893.77449  20537615.408    84098104.71948
  21163821.876   111216639.26348  21163824.412    86662322.94348
  22024545.866   115739773.20748  22024548.711    90186845.62448
  5  3 12 17 41 50.0000000  0  5G 2G 4G 5G10G30
  20366168.346   107024940.17649  20366167.554    83396052.17049
  22897109.680   120325132.34147  22897112.986    93759847.30848
  20537534.668   107925477.86749  20537536.269    84097780.63148
  21161529.725   111204593.93348  21161532.269    86652936.97048
  22022294.158   115727940.43348  22022297.018    90177625.28648
  5  3 12 17 41 55.0000000  0  5G 2G 4G 5G10G30
  20367124.971   107029967.27349  20367124.171    83399969.38949
  22899908.013   120339837.52147  22899911.321    93771305.86947
  20537460.378   107925087.43849  20537461.980    84097476.39648
  21159241.885   111192571.22048  21159244.423    86643568.62048
  22020046.512   115716128.90948  22020049.366    90168421.49548
  5  3 12 17 42  0.0000000  0  5G 2G 4G 5G10G30
  20368055.945   107034859.54249  20368055.140    83403781.54848
  22902679.115   120354399.76247  22902682.439    93782653.07247
  20537361.670   107924568.82249  20537363.285    84097072.28848
  21156929.092   111180417.47348  21156931.630    86634098.18248
  22017773.649   115704184.96648  22017776.502    90159114.52948
  5  3 12 17 42  5.0000000  0  5G 2G 4G 5G10G30
  20369049.213   107040079.20249  20369048.407    83407848.81349
  22905511.013   120369281.39447  22905514.358    93794249.11847
  20537326.540   107924384.20949  20537328.154    84096928.43148
  21154679.331   111168594.95948  21154681.875    86624885.84448
  22015563.545   115692570.78848  22015566.398    90150064.52148
  5  3 12 17 42 10.0000000  0  5G 2G 4G 5G10G30
  20370016.878   107045164.31549  20370016.065    83411811.24048
  22908315.716   120384020.32947  22908319.067    93805734.02547
  20537267.080   107924071.71548  20537268.701    84096684.92048
  21152404.711   111156641.78548  21152407.269    86615571.68248
  22013328.296   115680824.50748  22013331.148    90140911.58048
  5  3 12 17 42 15.0000000  0  5G 2G 4G 5G10G30
  20370958.972   107050115.02149  20370958.152    83415668.92848
  22911093.324   120398616.76147  22911096.677    93817107.87347
  20537183.308   107923631.45649  20537184.930    84096341.85949
  21150105.252   111144558.04648  21150107.812    86606155.79048
  22011067.929   115668946.29548  22011070.788    90131655.84448
  5  3 12 17 42 20.0000000  0  5G 2G 4G 5G10G30
  20371934.112   107055239.35249  20371933.286    83419661.90748
  22913902.447   120413378.67847  22913905.822    93828610.63347
  20537133.833   107923371.46349  20537135.454    84096139.26649
  21147839.561   111132651.78748  21147842.120    86596878.18848
  22008841.089   115657244.17248  22008843.947    90122537.30248
  5  3 12 17 42 25.0000000  0  5G 2G 4G 5G10G30
  20372883.672   107060229.35649  20372882.852    83423550.22248
  22916684.451   120427998.23647  22916687.839    93840002.50047
  20537060.071   107922983.84549  20537061.700    84095837.22248
  21145549.034   111120615.11348  21145551.592    86587498.98548
  22006589.152   115645410.19148  22006592.009    90113316.02348
  5  3 12 17 42 30.0000000  0  5G 2G 4G 5G10G30
  20373836.996   107065239.10749  20373836.182    83427453.91848
  22919468.673   120442629.39447  22919472.070    93851403.39447
  20536991.334   107922622.59548  20536992.956    84095555.72949
  21143263.039   111108602.09548  21143265.604    86578138.18648
  22004341.447   115633598.42348  22004344.304    90104112.04848
  5  3 12 17 42 35.0000000  0  5G 2G 4G 5G10G30
  20374823.372   107070422.51849  20374822.551    83431492.93548
  22922284.390   120457426.05247  22922287.807    93862933.24248
  20536956.910   107922441.69849  20536958.532    84095414.76849
  21141010.821   111096766.67548  21141013.386    86568915.79248
  22002127.272   115621962.82448  22002130.129    90095045.33948
  5  3 12 17 42 40.0000000  0  5G 2G 4G 5G10G30
  20375813.488   107075625.60949  20375812.660    83435547.29648
  22925102.318   120472234.26947  22925105.736    93874472.09747
  20536927.506   107922287.17749  20536929.127    84095294.35948
  21138763.114   111084954.89348  21138765.679    86559711.80648
  21999917.310   115610349.42448  21999920.159    90085995.94548
  5  3 12 17 42 45.0000000  0  5G 2G 4G 5G10G30
  20376778.034   107080694.33649  20376777.206    83439496.95149
  22927893.123   120486900.01747  22927896.535    93885899.95147
  20536873.815   107922004.96849  20536875.430    84095074.44648
  21136490.587   111073012.71548  21136493.151    86550406.21548
  21997682.287   115598604.27148  21997685.136    90076843.86748
  5  3 12 17 42 50.0000000  0  5G 2G 4G 5G10G30
  20377746.319   107085782.67449  20377745.490    83443461.88348
  22930686.126   120501577.35047  22930689.538    93897336.83447
  20536825.121   107921749.08049  20536826.736    84094875.05448
  21134222.551   111061094.13848  21134225.109    86541119.02448
  21995451.477   115586881.28548  21995454.319    90067709.07948
  5  3 12 17 42 55.0000000  0  5G 2G 4G 5G10G30
  20378747.626   107091044.51649  20378746.784    83447562.01548
  22933510.614   120516420.03747  22933514.026    93908902.54747
  20536810.730   107921673.42549  20536812.346    84094816.09648
  21131988.300   111049353.10048  21131990.865    86531970.16948
  21993254.168   115575334.41048  21993257.017    90058711.52448
  5  3 12 17 43  0.0000000  0  5G 2G 4G 5G10G30
  20379723.319   107096171.81749  20379722.478    83451557.31849
  22936307.950   120531120.10947  22936311.364    93920357.14747
  20536772.021   107921469.97248  20536773.636    84094657.55349
  21129729.213   111037481.57848  21129731.778    86522719.64748
  21991031.771   115563655.63548  21991034.627    90049611.17748
  5  3 12 17 43  5.0000000  0  5G 2G 4G 5G10G30
  20380673.404   107101164.51549  20380672.556    83455447.72749
  22939078.142   120545677.50347  22939081.570    93931700.55247
  20536708.972   107921138.65049  20536710.580    84094399.38349
  21127445.298   111025479.52548  21127447.871    86513367.40148
  21988784.260   115551844.88548  21988787.110    90040408.00148
  5  3 12 17 43 10.0000000  0  5G 2G 4G 5G10G30
  20381685.784   107106484.57849  20381684.929    83459593.22549
  22941909.066   120560554.07647  22941912.507    93943292.67347
  20536709.502   107921141.43549  20536711.109    84094401.54949
  21125224.454   111013808.91348  21125227.035    86504273.41848
  21986599.537   115540364.12148  21986602.388    90031461.96348
  5  3 12 17 43 15.0000000  0  5G 2G 4G 5G10G30
  20382643.231   107111515.99549  20382642.369    83463513.81548
  22944683.520   120575133.96147  22944686.968    93954653.62347
  20536656.390   107920862.32949  20536657.997    84094184.06549
  21122949.450   111001853.75048  21122952.033    86494957.72648
  21984360.396   115528597.35548  21984363.234    90022293.06248
  5  3 12 17 43 20.0000000  0  5G 2G 4G 5G10G30
  20383662.965   107116874.70249  20383662.089    83467689.42849
  22947518.709   120590032.98147  22947522.163    93966263.24547
  20536666.848   107920917.25649  20536668.454    84094226.85449
  21120737.519   110990230.00448  21120740.108    86485900.26448
  21982184.055   115517160.57348  21982186.892    90013381.27548
  5  3 12 17 43 25.0000000  0  5G 2G 4G 5G10G30
  20384627.763   107121944.72049  20384626.881    83471640.08948
  22950297.427   120604635.24347  22950300.895    93977641.62347
  20536623.647   107920690.26449  20536625.260    84094049.98048
  21118471.446   110978321.70948  21118474.043    86476621.07448
  21979953.290   115505437.82348  21979956.127    90004246.66448
  5  3 12 17 43 30.0000000  0  5G 2G 4G 5G10G30
  20385625.528   107127187.97849  20385624.639    83475725.74148
  22953107.593   120619402.63847  22953111.075    93989148.65647
  20536614.708   107920643.28949  20536616.321    84094013.37548
  21116239.129   110966590.83848  21116241.727    86467480.14648
  21977756.011   115493891.07748  21977758.855    89995249.20248
  5  3 12 17 43 35.0000000  0  5G 2G 4G 5G10G30
  20386597.645   107132296.45849  20386596.749    83479706.37048
  22955890.553   120634027.13147  22955894.036    94000544.35348
  20536581.418   107920468.31848  20536583.032    84093877.03149
  21113981.962   110954729.37248  21113984.559    86458237.45148
  21975533.603   115482212.24448  21975536.440    89986148.81848
  5  3 12 17 43 40.0000000  0  5G 2G 4G 5G10G30
  20387602.723   107137578.14849  20387601.814    83483821.97349
  22958704.934   120648816.74347  22958708.425    94012068.71148
  20536582.373   107920473.33549  20536583.986    84093880.93748
  21111758.547   110943045.31248  21111761.151    86449132.99848
  21973344.692   115470709.44148  21973347.522    89977185.59648
  5  3 12 17 43 45.0000000  0  5G 2G 4G 5G10G30
  20388611.462   107142879.04649  20388610.539    83487952.53648
  22961521.423   120663617.48847  22961524.908    94023601.76948
  20536588.295   107920504.42549  20536589.915    84093905.15548
  21109539.603   110931384.71548  21109542.208    86440046.82748
  21971159.966   115459228.62748  21971162.783    89968239.51648
  5  3 12 17 43 50.0000000  0  5G 2G 4G 5G10G30
  20389594.538   107148045.14249  20389593.607    83491978.06748
  22964310.723   120678275.29947  22964314.209    94035023.42848
  20536569.849   107920407.52449  20536571.469    84093829.65448
  21107295.818   110919593.57648  21107298.423    86430858.93548
  21968950.122   115447615.78848  21968952.933    89959190.54948
  5  3 12 17 43 55.0000000  0  5G 2G 4G 5G10G30
  20390610.562   107153384.41649  20390609.624    83496138.54748
  22967131.446   120693098.17547  22967134.933    94046573.69748
  20536585.672   107920490.64349  20536587.299    84093894.41249
  21105085.804   110907979.87448  21105088.417    86421809.29748
  21966773.767   115436178.96348  21966776.577    89950278.73648
  5  3 12 17 44  0.0000000  0  5G 2G 4G 5G10G30
  20391600.953   107158588.92649  20391600.016    83500194.00549
  22969924.956   120707778.22847  22969928.450    94058012.71148
  20536577.140   107920445.83848  20536578.774    84093859.50349
  21102850.953   110896235.68348  21102853.559    86412657.99248
  21964572.312   115424610.20848  21964575.102    89941264.12748
  5  3 12 17 44  5.0000000  0  5G 2G 4G 5G10G30
  20392595.003   107163812.69349  20392594.059    83504264.47649
  22972720.625   120722469.44247  22972724.120    94069460.39048
  20536573.581   107920427.10149  20536575.214    84093844.89649
  21100620.586   110884515.05748  21100623.193    86403525.04548
  21962375.060   115413063.57148  21962377.837    89932266.75648
  5  3 12 17 44 10.0000000  0  5G 2G 4G 5G10G30
  20393592.751   107169055.83249  20393591.800    83508350.02949
  22975518.419   120737171.88847  22975521.922    94080916.82448
  20536575.005   107920434.58448  20536576.638    84093850.72749
  21098394.717   110872818.06648  21098397.330    86394410.50848
  21960182.053   115401539.17848  21960184.823    89923286.70148
  5  3 12 17 44 15.0000000  0  5G 2G 4G 5G10G30
  20394594.162   107174318.28149  20394593.211    83512450.63949
  22978318.332   120751885.59347  22978321.828    94092382.06748
  20536581.408   107920468.23549  20536583.049    84093876.94549
  21096173.343   110861144.76148  21096175.956    86385314.44848
  21957993.272   115390036.99648  21957996.037    89914323.95448
  5  3 12 17 44 20.0000000  0  5G 2G 4G 5G10G30
  20395599.277   107179600.16449  20395598.320    83516566.39149
  22981120.431   120766610.62747  22981123.934    94103856.09648
  20536592.820   107920528.17048  20536594.461    84093923.64649
  21093956.505   110849495.20148  21093959.126    86376236.86948
  21955808.721   115378557.13048  21955811.478    89905378.61548
  5  3 12 17 44 25.0000000  0  5G 2G 4G 5G10G30
  20396608.104   107184901.52749  20396607.140    83520697.31249
  22983924.670   120781347.00247  22983928.174    94115338.99048
  20536609.236   107920614.43849  20536610.884    84093990.86549
  21091744.201   110837869.49548  21091746.822    86367177.88548
  21953628.440   115367099.65048  21953631.184    89896450.70748
  5  3 12 17 44 30.0000000  0  5G 2G 4G 5G10G30
  20397620.622   107190222.37549  20397619.651    83524843.43749
  22986731.093   120796094.76347  22986734.611    94126830.72848
  20536630.675   107920727.10349  20536632.324    84094078.65749
  21089536.445   110826267.68848  21089539.073    86358137.52248
  21951452.442   115355664.67148  21951455.180    89887540.33148
  5  3 12 17 44 35.0000000  0  5G 2G 4G 5G10G30
  20398607.576   107195408.85249  20398606.598    83528884.85049
  22989510.407   120810700.09347  22989513.927    94138211.49748
  20536627.862   107920712.29149  20536629.526    84094067.10649
  21087303.962   110814535.94448  21087306.590    86348995.90848
  21949251.438   115344098.31848  21949254.170    89878527.59448
  5  3 12 17 44 40.0000000  0  5G 2G 4G 5G10G30
  20399656.900   107200923.05549  20399655.922    83533181.62749
  22992350.543   120825625.04747  22992354.070    94149841.31548
  20536688.716   107921032.07749  20536690.380    84094316.29149
  21085134.693   110803136.36148  21085137.322    86340113.11948
  21947113.366   115332862.67048  21947116.090    89869772.54848
  5  3 12 17 44 45.0000000  0  5G 2G 4G 5G10G30
  20400651.385   107206149.08049  20400650.400    83537253.84849
  22995134.318   120840253.76047  22995137.848    94161240.29548
  20536696.061   107921070.61549  20536697.734    84094346.31149
  21082911.435   110791453.08848  21082914.057    86331009.28148
  21944921.018   115321341.83848  21944923.744    89860795.28948
  5  3 12 17 44 50.0000000  0  5G 2G 4G 5G10G30
  20401678.972   107211549.08348  20401677.987    83541461.64249
  22997949.628   120855048.28047  22997953.159    94172768.49347
  20536737.814   107921290.02549  20536739.487    84094517.28249
  21080722.138   110779948.25648  21080724.767    86322044.47448
  21942762.361   115309997.98848  21942765.087    89851955.91748
  5  3 12 17 44 55.0000000  0  5G 2G 4G 5G10G30
  20402681.089   107216815.21349  20402680.111    83545565.11349
  23000737.941   120869700.84247  23000741.487    94184186.04148
  20536755.414   107921382.48349  20536757.088    84094589.32448
  21078508.207   110768314.06648  21078510.830    86312978.89748
  21940578.794   115298523.32448  21940581.519    89843014.63348
  5  3 12 17 45  0.0000000  0  5G 2G 4G 5G10G30
  20403687.058   107222101.61649  20403686.073    83549684.39148
  23003528.533   120884365.53147  23003532.073    94195613.08548
  20536778.189   107921502.16949  20536779.871    84094682.58549
  21076299.013   110756704.67448  21076301.629    86303932.62048
  21938399.683   115287071.99048  21938402.415    89834091.50748
  5  3 12 17 45  5.0000000  0  5G 2G 4G 5G10G30
  20404696.910   107227408.42749  20404695.926    83553819.56648
  23006321.494   120899042.60647  23006325.034    94207049.76448
  20536806.179   107921649.22549  20536807.862    84094797.17349
  21074094.559   110745120.22248  21074097.175    86294905.78148
  21936225.035   115275644.16848  21936227.761    89825186.72348
  5  3 12 17 45 10.0000000  0  5G 2G 4G 5G10G30
  20405710.675   107232735.76749  20405709.685    83557970.74049
  23009116.835   120913732.06946  23009120.384    94218496.06648
  20536839.391   107921823.72249  20536841.073    84094933.13649
  21071894.882   110733560.83748  21071897.484    86285898.47748
  21934054.873   115264239.91948  21934057.598    89816300.30148
  5  3 12 17 45 15.0000000  0  5G 2G 4G 5G10G30
  20406757.699   107238237.91349  20406756.708    83562258.12749
  23011943.887   120928588.26747  23011947.452    94230072.31248
  20536907.193   107922179.99549  20536908.877    84095210.75049
  21069729.335   110722180.84448  21069731.944    86277030.95348
  21931918.578   115253013.61348  21931921.310    89807552.52848
  5  3 12 17 45 20.0000000  0  5G 2G 4G 5G10G30
  20407808.739   107243761.10549  20407807.743    83566561.90649
  23014773.378   120943457.37147  23014776.943    94241658.63648
  20536980.313   107922564.27549  20536981.997    84095510.19449
  21067568.662   110710826.49148  21067571.264    86268183.42348
  21929786.894   115241811.53948  21929789.620    89798823.64148
  5  3 12 17 45 25.0000000  0  5G 2G 4G 5G10G30
  20408805.200   107248997.53948  20408804.210    83570642.24149
  23017546.776   120958031.61647  23017550.356    94253015.17748
  20537000.207   107922668.75848  20537001.892    84095591.60049
  21065354.310   110699189.99648  21065356.906    86259116.02948
  21927601.221   115230325.78348  21927603.947    89789873.70948
  5  3 12 17 45 30.0000000  0  5G 2G 4G 5G10G30
  20409835.056   107254409.46849  20409834.066    83574859.32949
  23020352.026   120972773.27347  23020355.613    94264502.17248
  20537054.818   107922955.73749  20537056.495    84095815.22149
  21063174.238   110687733.63748  21063176.828    86250189.00348
  21925449.565   115219018.75348  21925452.284    89781063.04048
  5  3 12 17 45 35.0000000  0  5G 2G 4G 5G10G30
  20410869.041   107259843.06949  20410868.051    83579093.29649
  23023159.865   120987528.50447  23023163.467    94275999.73848
  20537114.890   107923271.39049  20537116.568    84096061.18149
  21060999.173   110676303.59448  21061001.757    86241282.48248
  21923302.644   115207736.60548  21923305.369    89772271.75148
  5  3 12 17 45 40.0000000  0  5G 2G 4G 5G10G30
  20411907.197   107265298.58448  20411906.208    83583344.34249
  23025970.323   121002297.52847  23025973.919    94287508.07048
  20537180.469   107923615.97548  20537182.146    84096329.68049
  21058829.172   110664900.16548  21058831.757    86232396.69449
  21921160.487   115196479.55948  21921163.205    89763500.04148
  5  3 12 17 45 45.0000000  0  5G 2G 4G 5G10G30
  20412920.259   107270622.29349  20412919.270    83587492.69249
  23028754.200   121016926.71147  23028757.805    94298907.39848
  20537222.293   107923835.76549  20537223.979    84096500.94549
  21056634.972   110653369.62448  21056637.563    86223411.86948
  21918993.895   115185093.97948  21918996.615    89754628.15348
  5  3 12 17 45 50.0000000  0  5G 2G 4G 5G10G30
  20413966.896   107276122.34048  20413965.906    83591778.43049
  23031570.067   121031724.16147  23031573.666    94310437.88148
  20537299.014   107924238.93549  20537300.698    84096815.10049
  21054475.239   110642020.15148  21054477.831    86214568.12748
  21916861.458   115173888.01048  21916864.170    89745896.24248
  5  3 12 17 45 55.0000000  0  5G 2G 4G 5G10G30
  20415017.843   107281645.13548  20415016.853    83596081.91349
  23034388.709   121046536.22647  23034392.310    94321979.75648
  20537381.400   107924671.84348  20537383.085    84097152.42749
  21052320.730   110630698.16448  21052323.315    86205745.81048
  21914733.979   115162707.99847  21914736.684    89737184.54348
  5  3 12 17 46  0.0000000  0  5G 2G 4G 5G10G30
  20416043.875   107287036.93949  20416042.885    83600283.31449
  23037180.925   121061209.26347  23037184.527    94333413.26148
  20537440.200   107924980.80748  20537441.879    84097393.17849
  21050142.201   110619249.91548  21050144.787    86196825.10049
  21912582.210   115151400.31848  21912584.909    89728373.35348
  5  3 12 17 46  5.0000000  0  5G 2G 4G 5G10G30
  20417074.322   107292451.97648  20417073.332    83604502.82149
  23039975.997   121075897.40447  23039979.602    94344858.56548
  20537504.757   107925320.08848  20537506.434    84097657.55449
  21047969.003   110607829.71548  21047971.590    86187926.25248
  21910435.475   115140119.17947  21910438.174    89719582.86148
  5  3 12 17 46 10.0000000  0  5G 2G 4G 5G10G30
  20418167.882   107298198.64449  20418166.886    83608980.74049
  23042832.641   121090909.07647  23042836.248    94356555.95748
  20537633.780   107925998.04649  20537635.458    84098185.82449
  21045859.833   110596745.95148  21045862.414    86179289.56048
  21908352.476   115129172.94648  21908355.161    89711053.33548
  5  3 12 17 46 15.0000000  0  5G 2G 4G 5G10G30
  20419236.685   107303815.23748  20419235.688    83613357.30749
  23045662.996   121105782.62947  23045666.611    94368145.72548
  20537739.387   107926553.01848  20537741.073    84098618.26549
  21043726.811   110585536.90848  21043729.392    86170555.25648
  21906245.376   115118100.02648  21906248.060    89702425.07948
  5  3 12 17 46 20.0000000  0  5G 2G 4G 5G10G30
  20420280.790   107309302.04748  20420279.793    83617632.74149
  23048467.100   121120518.29347  23048470.728    94379628.05348
  20537821.643   107926985.27649  20537823.321    84098955.09149
  21041570.030   110574202.91648  21041572.606    86161723.57748
  21904114.202   115106900.72948  21904116.886    89693698.37048
  5  3 12 17 46 25.0000000  0  5G 2G 4G 5G10G30
  20421300.256   107314659.34649  20421299.266    83621807.25049
  23051245.026   121135116.33447  23051248.649    94391003.14548
  20537880.608   107927295.10549  20537882.293    84099196.50749
  21039389.518   110562744.24948  21039392.095    86152794.74848
  21901959.046   115095575.27248  21901961.730    89684873.33648
  5  3 12 17 46 30.0000000  0  5G 2G 4G 5G10G30
  20422324.460   107320041.54249  20422323.470    83626001.16549
  23054026.154   121149731.10447  23054029.785    94402391.24548
  20537945.641   107927636.88849  20537947.326    84099462.83749
  21037214.669   110551315.33748  21037217.239    86143889.10848
  21899809.274   115084278.11348  21899811.957    89676070.34548
  5  3 12 17 46 35.0000000  0  5G 2G 4G 5G10G30
  20423382.757   107325602.96349  20423381.767    83630334.74649
  23056839.820   121164517.08047  23056843.445    94413912.80648
  20538046.145   107928165.00849  20538047.830    84099874.35449
  21035074.858   110540070.55648  21035077.423    86135126.95048
  21897694.240   115073163.56948  21897696.918    89667409.67348
  5  3 12 17 46 40.0000000  0  5G 2G 4G 5G10G30
  20424445.939   107331189.99049  20424444.949    83634688.26849
  23059656.859   121179320.59447  23059660.491    94425447.98448
  20538152.866   107928725.79949  20538154.551    84100311.32749
  21032940.844   110528856.26748  21032943.409    86126388.55248
  21895584.729   115062078.07648  21895587.399    89658771.64248
  5  3 12 17 46 45.0000000  0  5G 2G 4G 5G10G30
  20425514.056   107336802.98349  20425513.067    83639062.03049
  23062477.286   121194141.94547  23062480.920    94436997.07248
  20538265.876   107929319.67049  20538267.554    84100774.08749
  21030812.711   110517672.85548  21030815.278    86117674.21048
  21893480.828   115051021.97048  21893483.499    89650156.49248
  5  3 12 17 46 50.0000000  0  5G 2G 4G 5G10G30
  20426587.203   107342442.37849  20426586.220    83643456.35249
  23065301.174   121208981.57347  23065304.813    94448560.41348
  20538385.268   107929947.02049  20538386.941    84101262.92449
  21028690.536   110506520.77948  21028693.096    86108984.29248
  21891382.616   115039995.79048  21891385.288    89641564.66648
  5  3 12 17 46 55.0000000  0  5G 2G 4G 5G10G30
  20427636.132   107347954.53949  20427635.150    83647751.54449
  23068099.330   121223685.92347  23068102.970    94460018.33647
  20538481.797   107930454.28549  20538483.470    84101658.19449
  21026545.095   110495246.44148  21026547.662    86100199.10148
  21889260.836   115028845.79348  21889263.501    89632876.36648
  5  3 12 17 47  0.0000000  0  5G 2G 4G 5G10G30
  20428690.247   107353493.95048  20428689.273    83652067.96949
  23070901.136   121238409.48046  23070904.783    94471491.22948
  20538584.875   107930995.93249  20538586.548    84102080.25049
  21024405.791   110484004.35648  21024408.359    86091439.04248
  21887144.921   115017726.58448  21887147.587    89624212.05148
  5  3 12 17 47  5.0000000  0  5G 2G 4G 5G10G30
  20429778.929   107359214.98149  20429777.955    83656525.90749
  23073735.958   121253306.50747  23073739.605    94483099.28948
  20538723.866   107931726.33549  20538725.539    84102649.39849
  21022302.006   110472948.92048  21022304.567    86082824.42748
  21885064.248   115006792.54248  21885066.921    89615692.01248
  5  3 12 17 47 10.0000000  0  5G 2G 4G 5G10G30
  20430814.324   107364655.98849  20430813.350    83660765.64849
  23076515.965   121267915.45247  23076519.614    94494482.86548
  20538810.941   107932183.88449  20538812.607    84103005.92549
  21020145.891   110461618.46348  21020148.453    86073995.50248
  21882930.957   114995582.05647  21882933.625    89606956.58448
  5  3 12 17 47 15.0000000  0  5G 2G 4G 5G10G30
  20431855.109   107370125.38249  20431854.142    83665027.51649
  23079299.826   121282544.64647  23079303.476    94505882.22248
  20538904.773   107932676.97449  20538906.440    84103390.15449
  21017996.133   110450321.44148  21017998.696    86065192.63748
  21880803.745   114984403.44847  21880806.413    89598245.97548
  5  3 12 17 47 20.0000000  0  5G 2G 4G 5G10G30
  20432960.013   107375931.65749  20432959.046    83669551.88149
  23082146.256   121297502.67147  23082149.914    94517537.81548
  20539064.081   107933514.11049  20539065.747    84104042.46249
  21015911.444   110439366.35448  21015914.007    86056656.21548
  21878741.296   114973565.26848  21878743.971    89589800.65148
  5  3 12 17 47 25.0000000  0  5G 2G 4G 5G10G30
  20433982.570   107381305.26349  20433981.609    83673739.10849
  23084908.791   121312019.92347  23084912.449    94528849.96848
  20539142.411   107933925.74149  20539144.078    84104363.21149
  21013745.381   110427983.64748  21013747.937    86047786.58448
  21876597.219   114962298.09648  21876599.894    89581021.04448
  5  3 12 17 47 30.0000000  0  5G 2G 4G 5G10G30
  20435069.414   107387016.63649  20435068.461    83678189.52049
  23087734.090   121326866.84247  23087737.755    94540418.96548
  20539286.385   107934682.32549  20539288.058    84104952.75649
  21011644.562   110416943.80348  21011647.113    86039184.12148
  21874518.115   114951372.30048  21874520.791    89572507.43348
  5  3 12 17 47 35.0000000  0  5G 2G 4G 5G10G30
  20436162.011   107392758.27348  20436161.058    83682663.52349
  23090563.587   121341735.95047  23090567.252    94552005.28548
  20539437.488   107935476.34649  20539439.161    84105571.46749
  21009550.481   110405939.33348  21009553.031    86030609.20848
  21872445.446   114940480.38648  21872448.123    89564020.23548
  5  3 12 17 47 40.0000000  0  5G 2G 4G 5G10G30
  20437231.141   107398376.58849  20437230.195    83687041.42849
  23093368.098   121356473.66547  23093371.758    94563489.20348
  20539566.487   107936154.24149  20539568.154    84106099.70049
  21007433.910   110394816.67748  21007436.467    86021942.20148
  21870350.011   114929468.76848  21870352.688    89555439.75048
  5  3 12 17 47 45.0000000  0  5G 2G 4G 5G10G30
  20438306.200   107404026.02849  20438305.253    83691443.58349
  23096176.973   121371234.36747  23096180.632    94574991.04348
  20539702.785   107936870.49349  20539704.459    84106657.81649
  21005324.236   110383730.32448  21005326.780    86013303.50848
  21868261.200   114918492.02348  21868263.870    89546886.45148
  5  3 12 17 47 50.0000000  0  5G 2G 4G 5G10G30
  20439357.971   107409553.12549  20439357.032    83695750.40749
  23098961.061   121385864.75447  23098964.721    94586391.32748
  20539817.179   107937471.60849  20539818.854    84107126.21449
  21003192.276   110372526.80048  21003194.820    86004573.49048
  21866149.815   114907396.59048  21866152.493    89538240.65348
  5  3 12 17 47 55.0000000  0  5G 2G 4G 5G10G30
  20440445.150   107415266.28948  20440444.211    83700202.22549
  23101779.009   121400673.10947  23101782.676    94597930.29048
  20539968.361   107938266.04148  20539970.029    84107745.25149
  21001096.722   110361514.59148  21001099.267    85995992.55148
  21864074.538   114896490.99548  21864077.209    89529742.80648
  5  3 12 17 48  0.0000000  0  5G 2G 4G 5G10G30
  20441509.218   107420858.00148  20441508.292    83704559.39649
  23104572.298   121415351.91247  23104575.959    94609368.31447
  20540097.797   107938946.23449  20540099.472    84108275.26649
  20998979.039   110350386.15548  20998981.584    85987321.05548
  21861976.872   114885467.68748  21861979.543    89521153.21248
  5  3 12 17 48  5.0000000  0  5G 2G 4G 5G10G30
  20442579.587   107426482.80149  20442578.662    83708942.35349
  23107370.368   121430055.74447  23107374.042    94620825.81147
  20540234.907   107939666.72049  20540236.583    84108836.68049
  20996868.649   110339296.01148  20996871.194    85978679.39348
  21859886.212   114874481.19848  21859888.884    89512592.31348
  5  3 12 17 48 10.0000000  0  5G 2G 4G 5G10G30
  20443656.327   107432141.07648  20443655.403    83713351.39449
  23110173.230   121444784.91447  23110176.905    94632303.09647
  20540379.763   107940427.94449  20540381.439    84109429.84449
  20994765.636   110328244.60348  20994768.174    85970067.91049
  21857802.640   114863531.95148  21857805.312    89504060.43448
  5  3 12 17 48 15.0000000  0  5G 2G 4G 5G10G30
  20444739.512   107437833.25048  20444738.587    83717786.85449
  23112981.040   121459539.93147  23112984.723    94643800.48447
  20540532.465   107941230.33548  20540534.142    84110055.07449
  20992670.078   110317232.40148  20992672.624    85961486.98048
  21855726.243   114852620.41148  21855728.908    89495557.93848
  5  3 12 17 48 20.0000000  0  5G 2G 4G 5G10G30
  20445858.551   107443713.84049  20445857.634    83722369.13249
  23115823.146   121474475.26847  23115826.829    94655438.40248
  20540722.385   107942228.37149  20540724.062    84110832.76449
  20990611.379   110306413.89548  20990613.918    85953056.98548
  21853686.421   114841901.07448  21853689.087    89487205.21348
  5  3 12 17 48 25.0000000  0  5G 2G 4G 5G10G30
  20446984.245   107449629.40348  20446983.335    83726978.65848
  23118670.358   121489437.46947  23118674.035    94667097.26648
  20540920.340   107943268.63248  20540922.010    84111643.36149
  20988560.349   110295635.69348  20988562.888    85944658.39449
  21851653.985   114831220.52248  21851656.652    89478882.70048
  5  3 12 17 48 30.0000000  0  5G 2G 4G 5G10G30
  20448058.093   107455272.48049  20448057.183    83731375.85649
  23121464.202   121504119.12347  23121467.885    94678537.49148
  20541067.839   107944043.71349  20541069.516    84112247.31149
  20986458.494   110284590.34148  20986461.035    85936051.62548
  21849570.418   114820271.33348  21849573.084    89470350.87048
  5  3 12 17 48 35.0000000  0  5G 2G 4G 5G10G30
  20449138.729   107460951.29148  20449137.819    83735800.90949
  23124263.321   121518828.50047  23124267.005    94689999.32448
  20541223.519   107944861.81848  20541225.198    84112884.80049
  20984364.448   110273586.08548  20984366.989    85927476.88748
  21847494.406   114809361.78248  21847497.065    89461849.92048
  5  3 12 17 48 40.0000000  0  5G 2G 4G 5G10G30
  20450226.214   107466666.03448  20450225.311    83740253.94649
  23127067.730   121533565.73947  23127071.421    94701482.87648
  20541387.435   107945723.16848  20541389.113    84113555.97549
  20982278.259   110262623.12148  20982280.793    85918934.32748
  21845425.956   114798492.07048  21845428.616    89453380.03048
  5  3 12 17 48 45.0000000  0  5G 2G 4G 5G10G30
  20451320.730   107472417.72348  20451319.828    83744735.77749
  23129877.634   121548331.78847  23129881.325    94712988.86947
  20541559.759   107946628.73749  20541561.438    84114261.61549
  20980200.125   110251702.47948  20980202.659    85910424.74548
  21843365.279   114787663.07748  21843367.940    89444941.84148
  5  3 12 17 48 50.0000000  0  5G 2G 4G 5G10G30
  20452451.615   107478360.56048  20452450.705    83749366.56049
  23132722.368   121563280.96447  23132726.058    94724637.57747
  20541769.854   107947732.76549  20541771.534    84115121.89249
  20978159.397   110240978.38448  20978161.932    85902068.30949
  21841341.716   114777029.20948  21841344.369    89436655.72048
  5  3 12 17 48 55.0000000  0  5G 2G 4G 5G10G30
  20453531.057   107484033.03949  20453530.148    83753786.66849
  23135514.138   121577951.75547  23135517.822    94736069.35147
  20541929.890   107948573.75949  20541931.570    84115777.21449
  20976068.258   110229989.37348  20976070.786    85893505.44949
  21839267.459   114766128.91548  21839270.120    89428161.98448
  5  3 12 17 49  0.0000000  0  5G 2G 4G 5G10G30
  20454647.053   107489897.60548  20454646.144    83758356.45449
  23138340.921   121592806.59747  23138344.611    94747644.54947
  20542127.882   107949614.18249  20542129.563    84116587.93049
  20974014.706   110219197.91948  20974017.235    85885096.53148
  21837230.512   114755424.68748  21837233.172    89419821.02548
  5  3 12 17 49  5.0000000  0  5G 2G 4G 5G10G30
  20455741.078   107495646.77649  20455740.175    83762836.33049
  23141144.210   121607537.94847  23141147.893    94759123.52148
  20542305.303   107950546.50549  20542306.984    84117314.40849
  20971940.234   110208296.49348  20971942.763    85876601.91749
  21835172.350   114744609.00748  21835175.011    89411393.22848
  5  3 12 17 49 10.0000000  0  5G 2G 4G 5G10G30
  20456842.535   107501434.97348  20456841.626    83767346.61649
  23143953.377   121622300.19047  23143957.067    94770626.55747
  20542491.544   107951525.20749  20542493.218    84118077.03849
  20969874.227   110197439.58448  20969876.750    85868142.00149
  21833122.385   114733836.33748  21833125.045    89402998.93148
  5  3 12 17 49 15.0000000  0  5G 2G 4G 5G10G30
  20457922.212   107507108.65048  20457921.303    83771767.65148
  23146739.234   121636939.87847  23146742.924    94782034.08348
  20542657.399   107952396.75249  20542659.074    84118756.16049
  20967787.479   110186473.68348  20967790.003    85859597.15048
  21831051.392   114722953.19648  21831054.047    89394518.56948
  5  3 12 17 49 20.0000000  0  5G 2G 4G 5G10G30
  20459038.784   107512976.27848  20459037.875    83776339.82949
  23149560.458   121651765.41447  23149564.162    94793586.42548
  20542861.563   107953469.61149  20542863.239    84119592.14849
  20965738.694   110175707.24548  20965741.219    85851207.72348
  21829018.067   114712268.03048  21829020.720    89386192.46848
  5  3 12 17 49 25.0000000  0  5G 2G 4G 5G10G30
  20460133.742   107518730.32049  20460132.834    83780823.50149
  23152358.512   121666469.31947  23152362.216    94805044.02048
  20543045.514   107954436.27649  20543047.190    84120345.39749
  20963669.354   110164832.78748  20963671.879    85842734.12149
  21826963.894   114701473.28148  21826966.541    89377780.98048
  5  3 12 17 49 30.0000000  0  5G 2G 4G 5G10G30
  20461236.477   107524525.23249  20461235.575    83785339.01249
  23155162.850   121681206.08647  23155166.553    94816527.18648
  20543238.635   107955451.13749  20543240.318    84121136.19449
  20961608.842   110154004.75848  20961611.367    85834296.70149
  21824918.275   114690723.51148  21824920.922    89369404.54448
  5  3 12 17 49 35.0000000  0  5G 2G 4G 5G10G30
  20462376.408   107530515.57448  20462375.499    83790006.80749
  23158002.807   121696130.16247  23158006.511    94828156.33847
  20543470.357   107956668.81149  20543472.040    84122085.02649
  20959586.585   110143377.72348  20959589.104    85826015.90148
  21822910.625   114680173.20448  21822913.264    89361183.51948
  5  3 12 17 49 40.0000000  0  5G 2G 4G 5G10G30
  20463524.298   107536547.74649  20463523.389    83794707.19549
  23160849.200   121711087.99947  23160852.912    94839811.77947
  20543711.433   107957935.67349  20543713.117    84123072.19749
  20957573.340   110132798.11048  20957575.866    85817772.06148
  21820911.711   114669668.90448  21820914.350    89352998.36448
  5  3 12 17 49 45.0000000  0  5G 2G 4G 5G10G30
  20464592.316   107542160.22048  20464591.415    83799080.55149
  23163614.193   121725618.07047  23163617.904    94851133.89947
  20543874.058   107958790.24549  20543875.743    84123738.09049
  20955481.316   110121804.45148  20955483.836    85809205.57848
  21818833.730   114658748.97648  21818836.370    89344489.31948
  5  3 12 17 49 50.0000000  0  5G 2G 4G 5G10G30
  20465756.393   107548277.45849  20465755.493    83803847.22449
  23166473.707   121740644.88547  23166477.424    94862843.09347
  20544134.140   107960156.98549  20544135.819    84124803.08749
  20953486.410   110111321.18348  20953488.930    85801036.80548
  21816852.579   114648337.99148  21816855.212    89336376.87248
  5  3 12 17 49 55.0000000  0  5G 2G 4G 5G10G30
  20466840.794   107553975.99049  20466839.894    83808287.63449
  23169251.998   121755244.93547  23169255.709    94874219.76847
  20544315.956   107961112.40049  20544317.640    84125547.55549
  20951412.912   110100424.87548  20951415.433    85792546.17948
  21814792.547   114637512.45148  21814795.181    89327941.38748
  5  3 12 17 50  0.0000000  0  5G 2G 4G 5G10G30
  20467962.841   107559872.38649  20467961.941    83812882.22849
  23172066.421   121770034.70347  23172070.146    94885744.23047
  20544536.837   107962273.10649  20544538.523    84126452.00049
  20949378.142   110089732.08748  20949380.663    85784214.13949
  21812770.965   114626888.96448  21812773.592    89319663.35048
  5  3 12 17 50  5.0000000  0  5G 2G 4G 5G10G30
  20469093.328   107565813.10349  20469092.427    83817511.35249
  23174887.745   121784860.76847  23174891.470    94897296.98647
  20544767.564   107963485.55549  20544769.250    84127396.75949
  20947352.888   110079089.33948  20947355.404    85775921.10249
  21810758.600   114616313.91548  21810761.227    89311423.05448
  5  3 12 17 50 10.0000000  0  5G 2G 4G 5G10G30
  20470203.020   107571644.57449  20470202.127    83822055.35349
  23177686.711   121799569.49847  23177690.437    94908758.34847
  20544978.905   107964596.19049  20544980.591    84128262.19449
  20945307.933   110068343.05648  20945310.448    85767547.38248
  21808726.253   114605633.88948  21808728.873    89303100.96448
  5  3 12 17 50 15.0000000  0  5G 2G 4G 5G10G30
  20471321.325   107577521.30949  20471320.432    83826634.62749
  23180492.790   121814315.44747  23180496.521    94920248.67148
  20545200.287   107965759.52849  20545201.974    84129168.68849
  20943272.691   110057647.79148  20943275.200    85759213.41148
  21806703.326   114595003.30448  21806705.947    89294817.38948
  5  3 12 17 50 20.0000000  0  5G 2G 4G 5G10G30
  20472448.303   107583443.61749  20472447.410    83831249.41149
  23183306.010   121829098.95847  23183309.742    94931768.27747
  20545431.753   107966975.86349  20545433.441    84130116.47849
  20941247.209   110047003.84248  20941249.719    85750919.43649
  21804689.877   114584422.59348  21804692.492    89286572.69048
  5  3 12 17 50 25.0000000  0  5G 2G 4G 5G10G30
  20473584.064   107589412.05249  20473583.172    83835900.13649
  23186126.460   121843920.51947  23186130.199    94943317.54448
  20545673.418   107968245.81949  20545675.112    84131106.04849
  20939231.612   110036411.83848  20939234.122    85742665.93449
  21802686.027   114573892.25948  21802688.642    89278367.22748
  5  3 12 17 50 30.0000000  0  5G 2G 4G 5G10G30
  20474699.390   107595273.12749  20474698.504    83840467.20348
  23188924.956   121858626.65147  23188928.701    94954776.85147
  20545896.070   107969415.86449  20545897.758    84132017.78049
  20937196.696   110025718.25148  20937199.199    85734333.26849
  21800662.566   114563258.86548  21800665.174    89270081.46648
  5  3 12 17 50 35.0000000  0  5G 2G 4G 5G10G30
  20475823.701   107601181.39349  20475822.815    83845071.04049
  23191730.890   121873371.96647  23191734.636    94966266.71447
  20546129.131   107970640.57748  20546130.826    84132972.09149
  20935171.852   110015077.65348  20935174.348    85726041.90348
  21798648.886   114552676.93748  21798651.495    89261835.81948
  5  3 12 17 50 40.0000000  0  5G 2G 4G 5G10G30
  20476986.395   107607291.38949  20476985.509    83849832.07549
  23194573.701   121888310.94647  23194577.447    94977907.45847
  20546401.999   107972074.50849  20546403.695    84134089.44149
  20933186.513   110004644.62548  20933189.010    85717912.27648
  21796674.422   114542301.05948  21796677.030    89253750.71648
  5  3 12 17 50 45.0000000  0  5G 2G 4G 5G10G30
  20478128.963   107613295.62649  20478128.077    83854510.70349
  23197394.835   121903136.07347  23197398.581    94989459.50047
  20546656.165   107973410.12549  20546657.860    84135130.17749
  20931182.147   109994111.64648  20931184.638    85709704.76848
  21794680.658   114531823.75848  21794683.261    89245586.59348
  5  3 12 17 50 50.0000000  0  5G 2G 4G 5G10G30
  20479251.513   107619194.63549  20479250.628    83859107.32749
  23200194.407   121917847.92447  23200198.154    95000923.28147
  20546891.728   107974648.02049  20546893.431    84136094.76649
  20929158.888   109983479.34448  20929161.379    85701419.86049
  21792667.691   114521245.61048  21792670.301    89237343.89048
  5  3 12 17 50 55.0000000  0  5G 2G 4G 5G10G30
  20480412.762   107625297.03649  20480411.876    83863862.44549
  23203031.184   121932755.16447  23203034.932    95012539.28847
  20547167.422   107976096.80149  20547169.124    84137223.68649
  20927175.438   109973056.27948  20927177.930    85693298.00049
  21790694.274   114510875.20348  21790696.884    89229263.04848
  5  3 12 17 51  0.0000000  0  5G 2G 4G 5G10G30
  20481524.896   107631141.31249  20481524.004    83868416.42449
  23205817.287   121947396.23447  23205821.035    95023947.91547
  20547395.426   107977294.93949  20547397.130    84138157.30049
  20925143.990   109962380.97848  20925146.474    85684979.59349
  21788672.554   114500251.05548  21788675.164    89220984.50648
  5  3 12 17 51  5.0000000  0  5G 2G 4G 5G10G30
  20482646.610   107637035.92449  20482645.718    83873009.62448
  23208611.445   121962079.56947  23208615.193    95035389.46047
  20547634.439   107978550.93049  20547636.143    84139135.98849
  20923123.253   109951761.93548  20923125.731    85676705.01948
  21786661.274   114489681.64448  21786663.878    89212748.59248
  5  3 12 17 51 10.0000000  0  5G 2G 4G 5G10G30
  20483807.275   107643135.29449  20483806.383    83877762.38249
  23211443.028   121976959.67047  23211446.776    95046984.35247
  20547913.838   107980019.18049  20547915.542    84140280.07949
  20921142.614   109941353.60748  20921145.094    85668594.63848
  21784689.805   114479321.47448  21784692.416    89204675.72348
  5  3 12 17 51 15.0000000  0  5G 2G 4G 5G10G30
  20484948.421   107649132.02549  20484947.529    83882435.15549
  23214253.574   121991729.06347  23214257.322    95058492.94347
  20548175.137   107981392.31449  20548176.848    84141350.05249
  20919143.570   109930848.59149  20919146.042    85660408.91949
  21782699.631   114468863.06648  21782702.233    89196526.32048
  5  3 12 17 51 20.0000000  0  5G 2G 4G 5G10G30
  20486128.743   107655334.66148  20486127.844    83887268.38049
  23217101.748   122006696.28747  23217105.489    95070155.70947
  20548477.057   107982978.88349  20548478.762    84142586.33949
  20917184.855   109920555.44249  20917187.328    85652388.28249
  21780749.485   114458615.04448  21780752.081    89188540.86748
  5  3 12 17 51 25.0000000  0  5G 2G 4G 5G10G30
  20487260.449   107661281.78449  20487259.551    83891902.49749
  23219899.752   122021399.90147  23219903.493    95081613.07147
  20548731.788   107984317.47549  20548733.494    84143629.39249
  20915178.639   109910012.76449  20915181.111    85644173.22248
  21778751.593   114448116.01748  21778754.189    89180359.80048
  5  3 12 17 51 30.0000000  0  5G 2G 4G 5G10G30
  20488431.530   107667435.85549  20488430.631    83896697.87649
  23222735.614   122036302.48347  23222739.347    95093225.48047
  20549027.329   107985870.55048  20549029.041    84144839.57649
  20913212.959   109899683.04748  20913215.425    85636124.09848
  21776793.923   114437828.39748  21776796.520    89172343.47248
  5  3 12 17 51 35.0000000  0  5G 2G 4G 5G10G30
  20489524.892   107673181.51049  20489524.000    83901175.00649
  23225492.261   122050788.60547  23225496.008    95104513.32647
  20549246.600   107987022.79749  20549248.313    84145737.43049
  20911170.711   109888950.96548  20911173.171    85627761.43849
  21774759.388   114427136.87048  21774761.977    89164012.42348
  5  3 12 17 51 40.0000000  0  5G 2G 4G 5G10G30
  20490687.185   107679289.36949  20490686.293    83905934.37249
  23228316.268   122065628.86547  23228320.009    95116077.17147
  20549536.228   107988544.80449  20549537.941    84146923.40849
  20909198.538   109878587.12349  20909200.991    85619685.72448
  21772794.671   114416812.12148  21772797.254    89155967.14748
  5  3 12 17 51 45.0000000  0  5G 2G 4G 5G10G30
  20491830.572   107685297.91249  20491829.681    83910616.35449
  23231119.840   122080361.76547  23231123.580    95127557.35647
  20549808.398   107989975.06549  20549810.118    84148037.89649
  20907208.608   109868130.00548  20907211.062    85611537.32649
  21770811.880   114406392.57648  21770814.463    89147848.04248
  5  3 12 17 51 50.0000000  0  5G 2G 4G 5G10G30
  20493013.778   107691515.66949  20493012.887    83915461.35348
  23233961.727   122095295.88747  23233965.460    95139194.31547
  20550121.826   107991622.11149  20550123.540    84149321.30749
  20905259.663   109857888.22749  20905262.117    85603556.72449
  21768869.793   114396186.84348  21768872.376    89139895.52348
  5  3 12 17 51 55.0000000  0  5G 2G 4G 5G10G30
  20494178.295   107697635.21549  20494177.404    83920229.82349
  23236783.391   122110123.77047  23236787.124    95150748.49547
  20550418.008   107993178.52749  20550419.730    84150534.09049
  20903293.187   109847554.35648  20903295.635    85595504.37049
  21766909.894   114385887.50048  21766912.477    89131870.06348
  5  3 12 17 52  0.0000000  0  5G 2G 4G 5G10G30
  20495353.535   107703811.14549  20495352.644    83925042.23749
  23239614.239   122124999.94847  23239617.971    95162340.31147
  20550726.353   107994798.88949  20550728.074    84151796.71049
  20901338.600   109837282.96548  20901341.048    85587500.69449
  21764961.587   114375649.11448  21764964.170    89123892.10548
  5  3 12 17 52  5.0000000  0  5G 2G 4G 5G10G30
  20496510.300   107709889.98249  20496509.402    83929778.99749
  23242425.054   122139770.97047  23242428.772    95173850.22647
  20551017.665   107996329.74449  20551019.393    84152989.58249
  20899366.708   109826920.60149  20899369.150    85579426.13249
  21762995.684   114365318.25348  21762998.259    89115842.09148
  5  3 12 17 52 10.0000000  0  5G 2G 4G 5G10G30
  20497648.699   107715872.27949  20497647.808    83934440.51649
  23245216.020   122154437.43847  23245219.752    95185278.60447
  20551292.049   107997771.67549  20551293.778    84154113.17349
  20897377.615   109816467.88048  20897380.057    85571281.15949
  21761012.307   114354895.53648  21761014.883    89107720.49748
  5  3 12 17 52 15.0000000  0  5G 2G 4G 5G10G30
  20498827.439   107722066.60049  20498826.548    83939267.26149
  23248045.775   122169307.84047  23248049.500    95196865.91747
  20551608.241   107999433.24349  20551609.977    84155407.89149
  20895430.055   109806233.35148  20895432.491    85563306.20348
  21759070.161   114344689.49048  21759072.738    89099767.73648
  5  3 12 17 52 20.0000000  0  5G 2G 4G 5G10G30
  20499988.029   107728165.50949  20499987.138    83944019.65349
  23250855.848   122184074.90447  23250859.573    95208372.73147
  20551907.723   108001006.99949  20551909.459    84156634.19049
  20893465.510   109795909.59949  20893467.947    85555261.72449
  21757110.740   114334392.72648  21757113.316    89091744.29348
  5  3 12 17 52 25.0000000  0  5G 2G 4G 5G10G30
  20501159.857   107734323.51049  20501158.968    83948818.09949
  23253675.649   122198892.96947  23253679.376    95219919.25647
  20552219.906   108002647.50049  20552221.650    84157912.49749
  20891513.389   109785651.16449  20891515.819    85547268.14949
  21755163.470   114324159.75548  21755166.054    89083770.55048
  5  3 12 17 52 30.0000000  0  5G 2G 4G 5G10G30
  20502313.722   107740387.07949  20502312.839    83953542.94749
  23256475.943   122213608.54947  23256479.669    95231385.92847
  20552515.564   108004201.19749  20552517.309    84159123.17149
  20889544.498   109775304.57148  20889546.921    85539205.87348
  21753199.127   114313837.09248  21753201.710    89075726.92048
  5  3 12 17 52 35.0000000  0  5G 2G 4G 5G10G30
  20503479.040   107746510.86849  20503478.159    83958314.73649
  23259286.161   122228376.37647  23259289.887    95242893.33147
  20552824.135   108005822.74549  20552825.886    84160386.70949
  20887588.253   109765024.46449  20887590.677    85531195.41049
  21751247.146   114303579.36548  21751249.724    89067733.89548
  5  3 12 17 52 40.0000000  0  5G 2G 4G 5G10G30
  20504655.910   107752695.29549  20504655.028    83963133.75749
  23262106.429   122243196.85747  23262110.156    95254441.73547
  20553145.700   108007512.58349  20553147.452    84161703.46949
  20885644.745   109754811.26149  20885647.169    85523237.07349
  21749307.612   114293387.04148  21749310.196    89059791.82148
  5  3 12 17 52 45.0000000  0  5G 2G 4G 5G10G30
  20505844.391   107758940.83949  20505843.517    83968000.41849
  23264936.747   122258070.34248  23264940.467    95266031.47947
  20553480.348   108009271.17049  20553482.100    84163073.79749
  20883714.052   109744665.46249  20883716.476    85515331.26848
  21747380.605   114283260.58648  21747383.183    89051901.08948
  5  3 12 17 52 50.0000000  0  5G 2G 4G 5G10G30
  20506986.044   107764940.23449  20506985.170    83972675.26649
  23267718.734   122272689.72247  23267722.448    95277423.19547
  20553769.621   108010791.27849  20553771.373    84164258.29149
  20881737.732   109734279.83249  20881740.156    85507238.57049
  21745407.676   114272892.80648  21745410.253    89043822.30148
  5  3 12 17 52 55.0000000  0  5G 2G 4G 5G10G30
  20508168.856   107771155.95348  20508167.989    83977518.68149
  23270540.339   122287517.35547  23270544.053    95288977.19847
  20554101.513   108012535.38049  20554103.271    84165617.32749
  20879803.783   109724116.86349  20879806.202    85499319.38049
  21743476.834   114262746.13048  21743479.418    89035915.79348
  5  3 12 17 53  0.0000000  0  5G 2G 4G 5G10G30
  20509363.639   107777434.54849  20509362.773    83982411.08949
  23273372.389   122302399.84548  23273376.097    95300573.94247
  20554446.813   108014349.97549  20554448.579    84167031.30449
  20877883.001   109714023.08648  20877885.413    85491454.10449
  21741558.866   114252667.17048  21741561.451    89028062.06748
  5  3 12 17 53  5.0000000  0  5G 2G 4G 5G10G30
  20510570.487   107783776.57549  20510569.627    83987352.92649
  23276215.005   122317337.76748  23276218.719    95312213.84947
  20554805.660   108016235.70149  20554807.427    84168500.69449
  20875975.501   109703999.10548  20875977.907    85483643.21549
  21739653.890   114242656.45648  21739656.468    89020261.51548
  5  3 12 17 53 10.0000000  0  5G 2G 4G 5G10G30
  20511730.894   107789874.52449  20511730.042    83992104.57049
  23279009.618   122332023.59348  23279013.333    95323657.35747
  20555119.520   108017885.04249  20555121.292    84169785.89149
  20874022.778   109693737.47648  20874025.184    85475647.14149
  21737703.384   114232406.56848  21737705.962    89012274.61248
  5  3 12 17 53 15.0000000  0  5G 2G 4G 5G10G30
  20512903.561   107796036.93248  20512902.710    83996906.44949
  23281814.991   122346765.86447  23281818.706    95335144.82947
  20555447.112   108019606.55049  20555448.891    84171127.32249
  20872083.525   109683546.69648  20872085.931    85467706.28749
  21735766.105   114222226.00748  21735768.692    89004341.68848
  5  3 12 17 53 20.0000000  0  5G 2G 4G 5G10G30
  20514088.587   107802264.25549  20514087.743    84001758.89749
  23284631.184   122361565.02448  23284634.891    95346676.63747
  20555788.525   108021400.65649  20555790.305    84172525.32449
  20870157.855   109673427.22949  20870160.254    85459820.99449
  21733842.080   114212115.24948  21733844.673    88996463.18648
  5  3 12 17 53 25.0000000  0  5G 2G 4G 5G10G30
  20515286.073   107808557.08949  20515285.231    84006662.40949
  23287458.320   122376421.63247  23287462.022    95358253.20147
  20556143.859   108023267.98249  20556145.640    84173980.39249
  20868245.879   109663379.69748  20868248.279    85451991.74449
  21731931.460   114202074.93348  21731934.046    88988639.58048
  5  3 12 17 53 30.0000000  0  5G 2G 4G 5G10G30
  20516466.825   107814761.94848  20516465.983    84011497.36049
  23290267.169   122391182.26747  23290270.872    95369755.00447
  20556483.925   108025055.04249  20556485.713    84175372.90249
  20866318.379   109653250.65148  20866320.781    85444098.99249
  21730005.051   114191951.55748  21730007.645    88980751.22748
  5  3 12 17 53 35.0000000  0  5G 2G 4G 5G10G30
  20517660.238   107821033.37649  20517659.404    84016384.18849
  23293087.178   122406001.45147  23293090.875    95381302.41347
  20556838.133   108026916.38549  20556839.927    84176823.28949
  20864404.785   109643194.64748  20864407.180    85436263.15049
  21728092.238   114181899.68848  21728094.825    88972918.61348
  5  3 12 17 53 40.0000000  0  5G 2G 4G 5G10G30
  20518837.126   107827217.93449  20518836.292    84021203.31949
  23295889.149   122420725.75247  23295892.847    95392775.86347
  20557177.275   108028698.59049  20557179.077    84178212.01949
  20862475.897   109633058.26948  20862478.293    85428364.67849
  21726163.827   114171765.88248  21726166.414    88965022.15348
  5  3 12 17 53 45.0000000  0  5G 2G 4G 5G10G30
  20520026.853   107833470.02249  20520026.026    84026075.08149
  23298702.420   122435509.58847  23298706.117    95404295.73547
  20557530.746   108030556.06249  20557532.542    84179659.39749
  20860561.092   109622995.93449  20860563.481    85420523.90749
  21724249.239   114161704.65448  21724251.826    88957182.23648
  5  3 12 17 53 50.0000000  0  5G 2G 4G 5G10G30
  20521229.544   107839790.14449  20521228.718    84030999.84149
  23301527.126   122450353.48947  23301530.809    95415862.40947
  20557898.629   108032489.29849  20557900.425    84181165.81749
  20858660.485   109613008.14549  20858662.875    85412741.21348
  21722348.542   114151716.42648  21722351.129    88949399.19948
  5  3 12 17 53 55.0000000  0  5G 2G 4G 5G10G30
  20522415.969   107846024.81649  20522415.144    84035858.02449
  23304334.039   122465103.88347  23304337.722    95427356.21747
  20558251.723   108034344.82249  20558253.527    84182611.68049
  20856744.851   109602941.45049  20856747.242    85404897.04449
  21720432.546   114141647.76448  21720435.133    88941553.48548
  5  3 12 17 54  0.0000000  0  5G 2G 4G 5G10G30
  20523615.538   107852328.56749  20523614.722    84040770.03249
  23307152.590   122479915.34447  23307156.267    95438897.59247
  20558619.438   108036277.17449  20558621.241    84184117.40749
  20854843.635   109592950.42849  20854846.019    85397111.82549
  21718530.636   114131653.25748  21718533.216    88933765.57948
  5  3 12 17 54  5.0000000  0  5G 2G 4G 5G10G30
  20524828.340   107858701.88149  20524827.530    84045736.24749
  23309982.817   122494788.31747  23309986.487    95450486.93447
  20559001.868   108038286.82949  20559003.679    84185683.36349
  20852956.882   109583035.54149  20852959.261    85389385.96049
  21716642.941   114121733.29048  21716645.523    88926035.72848
  5  3 12 17 54 10.0000000  0  5G 2G 4G 5G10G30
  20526025.169   107864991.23149  20526024.361    84050637.03849
  23312795.582   122509569.37347  23312799.252    95462004.61347
  20559369.789   108040220.26449  20559371.600    84187189.93949
  20851055.419   109573043.28249  20851057.799    85381599.78949
  21714740.238   114111734.48648  21714742.820    88918244.44448
  5  3 12 17 54 15.0000000  0  5G 2G 4G 5G10G30
  20527235.411   107871351.09648  20527234.603    84055592.77749
  23315620.205   122524412.92847  23315623.867    95473571.03247
  20559752.615   108042231.99649  20559754.426    84188757.51949
  20849168.632   109563128.15349  20849171.013    85373873.71849
  21712851.913   114101811.30448  21712854.502    88910512.10048
  5  3 12 17 54 20.0000000  0  5G 2G 4G 5G10G30
  20528429.873   107877628.03449  20528429.071    84060483.89549
  23318427.554   122539165.55347  23318431.224    95485066.56247
  20560121.121   108044168.54149  20560122.940    84190266.52049
  20847267.325   109553136.74548  20847269.706    85366088.21349
  21710948.783   114091810.28548  21710951.373    88902719.10448
  5  3 12 17 54 25.0000000  0  5G 2G 4G 5G10G30
  20529608.636   107883822.44549  20529607.835    84065310.70549
  23321217.646   122553827.62147  23321221.310    95496491.56147
  20560475.408   108046030.33449  20560477.234    84191717.26549
  20845351.584   109543069.46048  20845353.959    85358243.58249
  21709030.913   114081731.87448  21709033.497    88894865.81548
  5  3 12 17 54 30.0000000  0  5G 2G 4G 5G10G30
  20530859.715   107890396.91049  20530858.921    84070433.66349
  23324078.569   122568861.74647  23324082.226    95508206.44147
  20560903.503   108048279.95449  20560905.329    84193470.20849
  20843509.432   109533388.88448  20843511.807    85350700.27848
  21707186.342   114072038.58948  21707188.933    88887312.60348
  5  3 12 17 54 35.0000000  0  5G 2G 4G 5G10G30
  20532036.676   107896581.88049  20532035.889    84075253.11849
  23326863.832   122583498.33847  23326867.496    95519611.56347
  20561258.954   108050147.86549  20561260.788    84194925.72249
  20841594.429   109523325.51049  20841596.805    85342858.69749
  21705268.641   114061961.00348  21705271.233    88879459.94348
  5  3 12 17 54 40.0000000  0  5G 2G 4G 5G10G30
  20533256.836   107902993.83248  20533256.050    84080249.44349
  23329690.761   122598353.95047  23329694.418    95531187.36647
  20561659.090   108052250.59348  20561660.930    84196564.20749
  20839723.909   109513495.85948  20839726.279    85335199.23349
  21703395.126   114052115.61548  21703397.719    88871788.21748
  5  3 12 17 54 45.0000000  0  6G 2G 4G 5G 6G10G30
  20534461.658   107909325.21849  20534460.880    84085182.98949
  23332500.824   122613120.99747  23332504.475    95542694.17447
  20562045.373   108054280.52549  20562047.213    84198145.97349
  24279957.952   127592041.46356         0.000           0.00040
  20837839.336   109503592.36148  20837841.706    85327482.22549
  21701507.265   114042194.83948  21701509.859    88864057.74648
  5  3 12 17 54 50.0000000  0  6G 2G 4G 5G 6G10G30
  20535651.245   107915576.53849  20535650.467    84090054.14949
  23335294.169   122627799.96547  23335297.827    95554132.29647
  20562417.914   108056238.23849  20562419.754    84199671.46749
  24277432.588   127578770.36947  24277436.859    99412046.19857
  20835940.809   109493615.53448  20835943.173    85319708.08049
  21699605.159   114032199.20448  21699607.754    88856268.94348
  5  3 12 17 54 55.0000000  0  6G 2G 4G 5G 6G10G30
  20536854.999   107921902.27849  20536854.222    84094983.29249
  23338100.143   122642545.39347  23338103.807    95565622.22247
  20562806.107   108058278.17549  20562807.955    84201261.02049
  24274919.402   127565564.42147  24274923.975    99401755.85947
  20834057.727   109483719.87348  20834060.085    85311997.18149
  21697718.226   114022283.24048  21697720.821    88848542.20448
  5  3 12 17 55  0.0000000  0  6G 2G 4G 5G 6G10G30
  20538073.003   107928302.90049  20538072.234    84099970.78349
  23340918.823   122657357.65747  23340922.482    95577164.25547
  20563210.033   108060400.81949  20563211.881    84202915.02949
  24272418.835   127552424.13847  24272423.524    99391516.71047
  20832190.185   109473905.87348  20832192.543    85304349.90849
  21695846.530   114012447.41348  21695849.126    88840877.92648
  5  3 12 17 55  5.0000000  0  6G 2G 4G 5G 6G10G30
  20539276.032   107934624.85849  20539275.263    84104896.98749
  23343721.039   122672083.34147  23343724.698    95588638.80047
  20563600.486   108062452.63549  20563602.342    84204513.84049
  24269901.690   127539195.92046  24269906.333    99381208.98647
  20830308.966   109464020.03149  20830311.319    85296646.67149
  21693960.860   114002538.17848  21693963.449    88833156.45748
  5  3 12 17 55 10.0000000  0  6G 2G 4G 5G 6G10G30
  20540522.838   107941176.83949  20540522.077    84110002.42049
  23346565.478   122687030.97147  23346569.138    95600286.30547
  20564036.202   108064742.34049  20564038.059    84206298.02749
  24267426.533   127526188.47347  24267431.124    99371073.32347
  20828472.829   109454371.03348  20828475.182    85289127.96749
  21692119.959   113992864.24448  21692122.550    88825618.34548
  5  3 12 17 55 15.0000000  0  6G 2G 4G 5G 6G10G30
  20541754.858   107947651.14848  20541754.104    84115047.33249
  23349393.635   122701892.97447  23349397.296    95611867.07547
  20564458.633   108066962.22748  20564460.489    84208027.81049
  24264934.733   127513094.19446  24264939.350    99360870.02247
  20826623.198   109444651.22049  20826625.551    85281554.09849
  21690265.311   113983117.96748  21690267.908    88818023.83448
  5  3 12 17 55 20.0000000  0  6G 2G 4G 5G 6G10G30
  20542972.176   107954048.19649  20542971.430    84120032.04649
  23352205.568   122716669.71947  23352209.236    95623381.40647
  20564867.857   108069112.71649  20564869.721    84209703.51449
  24262426.493   127499913.39746  24262431.143    99350599.26847
  20824760.186   109434861.02948  20824762.533    85273925.38549
  21688396.969   113973299.73548  21688399.568    88810373.26248
  5  3 12 17 55 25.0000000  0  6G 2G 4G 5G 6G10G30
  20544174.901   107960368.53049  20544174.155    84124956.97649
  23355001.380   122731361.80947  23355005.048    95634829.79047
  20565263.976   108071194.33249  20565265.839    84211325.55349
  24259901.868   127486646.59446  24259906.540    99340261.50647
  20822883.879   109425000.96648  20822886.226    85266242.21949
  21686515.044   113963410.15448  21686517.643    88802667.09648
  5  3 12 17 55 30.0000000  0  6G 2G 4G 5G 6G10G30
  20545421.707   107966920.53849  20545420.969    84130062.43749
  23357839.768   122746277.57747  23357843.435    95646452.44947
  20565705.676   108073515.44949  20565707.540    84213134.21249
  24257419.587   127473602.27246  24257424.308    99330097.08747
  20821052.954   109415379.42448  20821055.295    85258744.92449
  21684678.211   113953757.56248  21684680.817    88795145.60148
  5  3 12 17 55 35.0000000  0  6G 2G 4G 5G 6G10G30
  20546654.092   107973396.73249  20546653.355    84135108.82149
  23360662.202   122761109.47247  23360665.869    95658009.75147
  20566134.439   108075768.61749  20566136.311    84214889.92549
  24254921.101   127460472.98646  24254925.844    99319866.51447
  20819208.923   109405688.97648  20819211.264    85251193.92749
  21682827.992   113944034.56348  21682830.599    88787569.23548
  5  3 12 17 55 40.0000000  0  6G 2G 4G 5G 6G10G30
  20547842.811   107979643.49449  20547842.081    84139976.42449
  23363439.442   122775704.03047  23363443.102    95669382.14847
  20566521.053   108077800.25449  20566522.932    84216473.01049
  24252377.216   127447105.03046  24252381.996    99309449.94347
  20817322.543   109395776.01048  20817324.877    85243469.54949
  21680935.118   113934087.50748  21680937.718    88779818.30048
  5  3 12 17 55 45.0000000  0  6G 2G 4G 5G 6G10G30
  20549075.886   107986123.31448  20549075.156    84145025.63149
  23366259.529   122790523.65347  23366263.183    95680929.90747
  20566953.509   108080072.82649  20566955.381    84218243.85049
  24249875.981   127433961.01146  24249880.747    99299207.87047
  20815481.836   109386103.06248  20815484.170    85235932.19649
  21679087.630   113924378.92348  21679090.238    88772253.17548
  5  3 12 17 55 50.0000000  0  6G 2G 4G 5G 6G10G30
  20550294.781   107992528.65348  20550294.052    84150016.80449
  23369063.941   122805260.87947  23369067.596    95692413.44947
  20567373.301   108082278.81749  20567375.188    84219962.79349
  24247358.836   127420733.35746  24247363.610    99288900.61647
  20813628.286   109376362.62048  20813630.627    85228342.24449
  21677227.015   113914601.32548  21677229.617    88764634.27348
  5  3 12 17 55 55.0000000  0  6G 2G 4G 5G 6G10G30
  20551558.208   107999168.00749  20551557.486    84155190.32349
  23371911.358   122820224.15547  23371915.000    95704073.15347
  20567839.112   108084726.70149  20567840.999    84221870.24449
  24244884.464   127407730.54146  24244889.226    99278768.58447
  20811820.593   109366863.16248  20811822.934    85220940.07749
  21675411.969   113905063.19148  21675414.577    88757201.95748
  5  3 12 17 56  0.0000000  0  6G 2G 4G 5G 6G10G30
  20552807.628   108005733.72249  20552806.907    84160306.46449
  23374743.269   122835105.79247  23374746.917    95715669.19447
  20568292.423   108087108.86949  20568294.310    84223726.47849
  24242394.347   127394644.95047  24242399.129    99268572.02247
  20810000.225   109357297.06648  20810002.559    85213485.97749
  21673583.952   113895456.89848  21673586.560    88749716.53748
  5  3 12 17 56  5.0000000  0  6G 2G 4G 5G 6G10G30
  20554043.132   108012226.34049  20554042.418    84165365.64449
  23377559.715   122849906.31647  23377563.357    95727202.07447
  20568733.334   108089425.83849  20568735.222    84225531.90649
  24239888.577   127381477.13247  24239893.360    99258311.40847
  20808167.271   109347664.88748  20808169.598    85205980.40148
  21671743.068   113885782.95648  21671745.684    88742178.39448
  5  3 12 17 56 10.0000000  0  6G 2G 4G 5G 6G10G30
  20555264.825   108018646.34749  20555264.119    84170368.24049
  23380360.830   122864626.27247  23380364.472    95738672.17247
  20569161.927   108091678.07749  20569163.822    84227286.89049
  24237367.277   127368227.61147  24237372.062    99247987.11547
  20806321.854   109337967.12748  20806324.182    85198423.70149
  21669889.397   113876041.88148  21669892.007    88734587.95748
  5  3 12 17 56 15.0000000  0  6G 2G 4G 5G 6G10G30
  20556502.073   108025148.09749  20556501.361    84175434.54149
  23383175.993   122879419.96347  23383179.636    95750199.70447
  20569607.575   108094019.97649  20569609.478    84229111.74349
  24234859.800   127355050.66747  24234864.572    99237719.36247
  20804493.323   109328358.16348  20804495.651    85190936.20348
  21668052.335   113866388.05448  21668054.945    88727065.49548
  5  3 12 17 56 20.0000000  0  6G 2G 4G 5G 6G10G30
  20557725.669   108031578.10449  20557724.964    84180444.92949
  23385975.986   122894133.95847  23385979.627    95761665.13947
  20570041.081   108096298.06449  20570042.984    84230886.88149
  24232336.933   127341792.88147  24232341.679    99227388.63247
  20802652.489   109318684.51448  20802654.811    85183398.30149
  21666202.671   113856668.03448  21666205.281    88719491.46448
  5  3 12 17 56 25.0000000  0  6G 2G 4G 5G 6G10G30
  20558994.262   108038244.66749  20558993.557    84185639.66649
  23388819.476   122909076.54047  23388823.119    95773308.70147
  20570521.119   108098820.64849  20570523.028    84232852.51949
  24229857.372   127328762.60647  24229862.090    99217235.15947
  20800858.027   109309254.55048  20800860.356    85176050.27649
  21664399.090   113847190.12148  21664401.701    88712106.07348
  5  3 12 17 56 30.0000000  0  6G 2G 4G 5G 6G10G30
  20560220.064   108044686.27149  20560219.367    84190659.09149
  23391618.632   122923786.20547  23391622.275    95784770.77447
  20570959.850   108101126.22649  20570961.760    84234649.08149
  24227333.256   127315498.25747  24227337.942    99206899.32047
  20799022.094   109299606.72348  20799024.423    85168532.50348
  21662553.757   113837492.80248  21662556.369    88704549.71448
  5  3 12 17 56 35.0000000  0  6G 2G 4G 5G 6G10G30
  20561461.762   108051211.40549  20561461.065    84195743.60849
  23394432.192   122938571.49947  23394435.828    95796291.77547
  20571415.999   108103523.30649  20571417.916    84236516.93449
  24224823.309   127302308.39746  24224827.974    99196621.51747
  20797203.424   109290049.54948  20797205.747    85161085.35849
  21660725.376   113827884.65748  21660727.995    88697062.85948
  5  3 12 17 56 40.0000000  0  6G 2G 4G 5G 6G10G30
  20562719.434   108057820.51749  20562718.738    84200893.56549
  23397260.216   122953432.80447  23397263.853    95807872.00147
  20571889.638   108106012.29549  20571891.555    84238456.40649
  24222327.632   127289193.43247  24222332.277    99186402.05247
  20795402.085   109280583.47848  20795404.401    85153709.20849
  21658914.064   113818366.11848  21658916.676    88689645.81348
  5  3 12 17 56 45.0000000  0  6G 2G 4G 5G 6G10G30
  20563993.176   108064514.04449  20563992.487    84206109.29249
  23400102.784   122968370.53847  23400106.429    95819511.78047
  20572380.855   108108593.62949  20572382.774    84240467.83549
  24219846.283   127276153.76146  24219850.904    99176241.27747
  20793618.177   109271208.97948  20793620.494    85146404.40949
  21657119.863   113808937.55948  21657122.475    88682298.89248
  5  3 12 17 56 50.0000000  0  6G 2G 4G 5G 6G10G30
  20565224.427   108070984.31549  20565223.732    84211151.06848
  23402901.329   122983077.02247  23402904.973    95830971.38247
  20572831.104   108110959.67049  20572833.029    84242311.49149
  24217320.744   127262881.80947  24217325.361    99165899.47547
  20791793.151   109261618.40048  20791795.467    85138931.22949
  21655284.253   113799291.36148  21655286.872    88674782.37348
  5  3 12 17 56 55.0000000  0  6G 2G 4G 5G 6G10G30
  20566501.234   108077693.94949  20566500.539    84216379.34849
  23405743.927   122998014.91047  23405747.578    95842611.27947
  20573328.398   108113573.00049  20573330.323    84244347.86049
  24214838.992   127249840.20447  24214843.582    99155737.22647
  20790015.030   109252274.34548  20790017.340    85131650.15848
  21653495.257   113789890.15448  21653497.870    88667456.76848
  5  3 12 17 57  0.0000000  0  6G 2G 4G 5G 6G10G30
  20567706.402   108084027.15149  20567705.715    84221314.31049
  23408513.368   123012568.32547  23408517.020    95853951.58747
  20573755.593   108115817.89349  20573757.526    84246097.12349
  24212283.889   127236413.14346  24212288.460    99145274.61647
  20788166.647   109242561.05948  20788168.957    85124081.37149
  21651635.722   113780118.20148  21651638.335    88659842.25548
  5  3 12 17 57  5.0000000  0  6G 2G 4G 5G 6G10G30
  20568986.596   108090754.58449  20568985.908    84226556.45649
  23411356.316   123027508.09047  23411359.968    95865592.95247
  20574259.329   108118465.01249  20574261.263    84248159.80849
  24209802.144   127223371.29946  24209806.704    99135112.11647
  20786394.675   109233249.28248  20786396.986    85116825.44449
  21649852.290   113770746.20748  21649854.911    88652539.39948
  5  3 12 17 57 10.0000000  0  6G 2G 4G 5G 6G10G30
  20570253.969   108097414.64249  20570253.281    84231746.10649
  23414184.959   123042372.55347  23414188.611    95877175.61747
  20574751.758   108121052.71349  20574753.700    84250176.19249
  24207305.835   127210253.10546  24207310.390    99124890.15847
  20784611.261   109223877.37648  20784613.565    85109522.66649
  21648057.117   113761312.53848  21648059.731    88645188.50048
  5  3 12 17 57 15.0000000  0  6G 2G 4G 5G 6G10G30
  20571479.306   108103853.83049  20571478.626    84236763.65649
  23416970.017   123057008.16147  23416973.669    95888579.99447
  20575203.668   108123427.51949  20575205.610    84252026.69149
  24204765.793   127196905.03146  24204770.350    99114489.05447
  20782787.194   109214291.84148  20782789.499    85102053.41849
  21646221.014   113751663.71948  21646223.627    88637669.93048
  5  3 12 17 57 20.0000000  0  6G 2G 4G 5G 6G10G30
  20572721.310   108110380.60549  20572720.624    84241849.46149
  23419770.236   123071723.37947  23419773.881    95900046.39547
  20575673.765   108125897.89249  20575675.707    84253951.65749
  24202240.686   127183635.53646  24202245.239    99104149.20847
  20780981.176   109204801.18248  20780983.474    85094658.11049
  21644402.651   113742108.21848  21644405.265    88630224.10348
  5  3 12 17 57 25.0000000  0  6G 2G 4G 5G 6G10G30
  20574009.361   108117149.35849  20574008.682    84247123.81149
  23422615.005   123086672.68247  23422618.658    95911695.18747
  20576191.443   108128618.27949  20576193.393    84256071.43149
  24199759.934   127170599.06346  24199764.482    99093990.92347
  20779222.595   109195559.78048  20779224.894    85087457.01949
  21642631.454   113732800.51848  21642634.061    88622971.35048
  5  3 12 17 57 30.0000000  0  6G 2G 4G 5G 6G10G30
  20575255.635   108123698.54649  20575254.956    84252227.06649
  23425416.468   123101394.46747  23425420.120    95923166.70647
  20576668.861   108131127.13049  20576670.811    84258026.38149
  24197235.694   127157334.06446  24197240.237    99083654.56447
  20777423.620   109186106.16448  20777425.918    85080090.57849
  21640819.576   113723279.00548  21640822.184    88615551.98748
  5  3 12 17 57 35.0000000  0  6G 2G 4G 5G 6G10G30
  20576548.144   108130490.69548  20576547.467    84257519.65149
  23428262.662   123116351.25547  23428266.308    95934821.34047
  20577194.033   108133886.92649  20577195.991    84260176.87349
  24194755.966   127144303.06946  24194760.524    99073500.55247
  20775672.282   109176902.82148  20775674.580    85072919.14249
  21639055.030   113714006.22248  21639057.639    88608326.43748
  5  3 12 17 57 40.0000000  0  6G 2G 4G 5G 6G10G30
  20577769.738   108136910.21049  20577769.060    84262521.87049
  23431036.426   123130927.45147  23431040.072    95946179.40747
  20577649.820   108136282.10049  20577651.784    84262043.23949
  24192203.626   127130890.52246  24192208.190    99063049.23447
  20773851.427   109167334.19148  20773853.718    85065463.07849
  21637220.674   113704366.61248  21637223.275    88600815.05748
  5  3 12 17 57 45.0000000  0  6G 2G 4G 5G 6G10G30
  20579037.726   108143573.47049  20579037.049    84267714.00949
  23433855.068   123145739.42247  23433858.707    95957721.18447
  20578153.514   108138929.02949  20578155.478    84264105.78049
  24189695.971   127117712.80346  24189700.534    99052780.89747
  20772078.366   109158016.69548  20772080.658    85058202.69549
  21635433.804   113694976.58148  21635436.405    88593498.15248
  5  3 12 17 57 50.0000000  0  6G 2G 4G 5G 6G10G30
  20580322.848   108150326.86349  20580322.185    84272976.39549
  23436689.355   123160633.60947  23436693.001    95969327.02147
  20578675.887   108141674.11949  20578677.852    84266244.81449
  24187203.780   127104616.28246  24187208.329    99042575.82647
  20770323.855   109148796.70648  20770326.140    85051018.29748
  21633665.205   113685682.52948  21633667.800    88586256.04148
  5  3 12 17 57 55.0000000  0  6G 2G 4G 5G 6G10G30
  20581566.603   108156862.84049  20581565.940    84278069.36549
  23439480.745   123175302.46047  23439484.377    95980757.30247
  20579158.421   108144209.82349  20579160.394    84268220.68249
  24184668.538   127091293.39946  24184673.074    99032194.35147
  20768529.383   109139366.69448  20768531.668    85043670.23549
  21631856.340   113676176.91247  21631858.934    88578849.07048
  5  3 12 17 58  0.0000000  0  6G 2G 4G 5G 6G10G30
  20582857.001   108163643.86448  20582856.339    84283353.27049
  23442317.266   123190208.41747  23442320.892    95992372.32447
  20579689.120   108146998.66249  20579691.092    84270393.80249
  24182178.220   127078206.72246  24182182.763    99021996.94447
  20766782.958   109130189.19948  20766785.243    85036518.94849
  21630095.230   113666922.21747  21630097.824    88571637.61948
  5  3 12 17 58  5.0000000  0  6G 2G 4G 5G 6G10G30
  20584135.483   108170362.36749  20584134.829    84288588.47449
  23445140.390   123205043.90747  23445144.015    96003932.41747
  20580209.452   108149732.99649  20580211.425    84272524.44649
  24179674.305   127065048.62146  24179678.836    99011743.90647
  20765026.045   109120956.56048  20765028.331    85029324.68849
  21628323.348   113657610.94448  21628325.936    88564382.09448
  5  3 12 17 58 10.0000000  0  6G 2G 4G 5G 6G10G30
  20585372.840   108176864.69149  20585372.187    84293655.21649
  23447920.833   123219655.30047  23447924.451    96015317.93247
  20580690.178   108152259.19849  20580692.152    84274492.91249
  24177127.579   127051665.45646  24177132.120    99001315.46647
  20763229.414   109111515.22948  20763231.700    85021967.81549
  21626511.459   113648089.37548  21626514.047    88556962.68348
  5  3 12 17 58 15.0000000  0  6G 2G 4G 5G 6G10G30
  20586657.059   108183613.30449  20586656.406    84298913.87849
  23450746.679   123234505.06147  23450750.311    96026889.13747
  20581219.300   108155039.75149  20581221.275    84276659.58049
  24174626.009   127038519.68046  24174630.558    98991072.02047
  20761481.060   109102327.63348  20761483.346    85014808.66049
  21624747.555   113638820.05748  21624750.149    88549739.84648
  5  3 12 17 58 20.0000000  0  6G 2G 4G 5G 6G10G30
  20587958.940   108190454.67349  20587958.295    84304244.80248
  23453588.605   123249439.57947  23453592.224    96038526.45247
  20581767.600   108157921.08549  20581769.582    84278904.77449
  24172140.379   127025457.76046  24172144.936    98980893.93847
  20759751.791   109093240.26348  20759754.077    85007727.59449
  21623002.427   113629649.34848  21623005.021    88542593.84048
  5  3 12 17 58 25.0000000  0  6G 2G 4G 5G 6G10G30
  20589219.905   108197081.09249  20589219.268    84309408.24649
  23456388.156   123264151.22347  23456391.781    96049990.04547
  20582276.531   108160595.53649  20582278.513    84280988.76249
  24169612.195   127012172.06746  24169616.766    98970541.44246
  20757983.043   109083945.46048  20757985.322    85000484.90048
  21621217.541   113620269.70648  21621220.127    88535285.02948
  5  3 12 17 58 30.0000000  0  6G 2G 4G 5G 6G10G30
  20590498.654   108203800.96149  20590498.024    84314644.50749
  23459203.964   123278948.39447  23459207.583    96061520.31547
  20582804.776   108163371.48449  20582806.758    84283151.84049
  24167100.112   126998970.97946  24167104.690    98960254.88146
  20756233.508   109074751.62448  20756235.787    84993320.87849
  21619451.570   113610989.46748  21619454.150    88528053.67648
  5  3 12 17 58 35.0000000  0  6G 2G 4G 5G 6G10G30
  20591765.982   108210460.78449  20591765.353    84319833.97349
  23462006.854   123293677.55547  23462010.473    96072997.55647
  20583323.146   108166095.50849  20583325.136    84285274.44849
  24164574.935   126985701.08346  24164579.521    98949914.70546
  20754473.992   109065505.30248  20754476.271    84986115.95349
  21617675.318   113601655.22948  21617677.897    88520780.24948
  5  3 12 17 58 40.0000000  0  6G 2G 4G 5G 6G10G30
  20593051.249   108217214.90649  20593050.620    84325096.92749
  23464826.183   123308493.13947  23464829.803    96084542.14747
  20583860.984   108168921.89349  20583862.973    84287476.83149
  24162066.019   126972516.64446  24162070.613    98939641.11246
  20752733.851   109056360.83348  20752736.131    84978990.40048
  21615918.143   113592421.27748  21615920.715    88513584.97848
  5  3 12 17 58 45.0000000  0  6G 2G 4G 5G 6G10G30
  20594354.537   108224063.70149  20594353.916    84330433.64349
  23467662.009   123323395.50447  23467665.629    96096154.37847
  20584418.389   108171851.04849  20584420.386    84289759.28149
  24159573.442   126959418.06146  24159578.034    98929434.41846
  20751013.172   109047318.63248  20751015.451    84971944.53849
  21614180.160   113583288.05048  21614182.739    88506468.16148
  5  3 12 17 58 50.0000000  0  6G 2G 4G 5G 6G10G30
  20595646.619   108230853.66849  20595645.997    84335724.53249
  23470485.129   123338230.97646  23470488.756    96107714.45847
  20584966.138   108174729.45449  20584968.128    84292002.19549
  24157067.956   126946251.79946  24157072.533    98919175.03146
  20749282.734   109038225.15148  20749285.007    84964858.72049
  21612432.103   113574102.01148  21612434.682    88499310.22148
  5  3 12 17 58 55.0000000  0  6G 2G 4G 5G 6G10G30
  20596927.581   108237585.14049  20596926.967    84340969.82849
  23473295.613   123353000.10646  23473299.240    96119222.85747
  20585504.285   108177557.46949  20585506.282    84294205.84649
  24154549.698   126933018.29446  24154554.273    98908863.20746
  20747542.608   109029080.75948  20747544.888    84957733.22349
  21610674.084   113564863.56248  21610676.650    88492111.43848
  5  3 12 17 59  0.0000000  0  6G 2G 4G 5G 6G10G30
  20598226.798   108244412.50649  20598226.185    84346289.84649
  23476122.830   123367857.22946  23476126.450    96130799.84047
  20586062.240   108180489.50849  20586064.238    84296490.55049
  24152048.019   126919871.91846  24152052.598    98898619.26946
  20745822.186   109020039.88048  20745824.459    84950688.38649
  21608935.467   113555727.09948  21608938.040    88484992.12148
  5  3 12 17 59  5.0000000  0  6G 2G 4G 5G 6G10G30
  20599485.703   108251028.12649  20599485.097    84351444.88049
  23478908.264   123382494.72246  23478911.883    96142205.66147
  20586581.434   108183217.89449  20586583.432    84298616.56349
  24149504.361   126906505.02846  24149508.931    98888203.53246
  20744062.916   109010794.88648  20744065.189    84943484.50049
  21607157.729   113546384.99248  21607160.295    88477712.55448
  5  3 12 17 59 10.0000000  0  6G 2G 4G 5G 6G10G30
  20600763.016   108257740.42449  20600762.418    84356675.23349
  23481710.559   123397220.88147  23481714.184    96153680.58247
  20587120.570   108186051.04349  20587122.576    84300824.20649
  24146977.452   126893226.03446  24146982.027    98877856.25346
  20742323.487   109001654.18848  20742325.760    84936361.89148
  21605399.538   113537145.66548  21605402.104    88470513.08848
  5  3 12 17 59 15.0000000  0  6G 2G 4G 5G 6G10G30
  20602058.777   108264549.66248  20602058.172    84361981.13149
  23484529.819   123412036.16046  23484533.443    96165224.94547
  20587679.696   108188989.27049  20587681.710    84303113.73149
  24144467.318   126880035.28046  24144471.883    98867577.75546
  20740603.980   108992618.11648  20740606.253    84929320.79848
  21603660.970   113528009.43148  21603663.537    88463393.94548
  5  3 12 17 59 20.0000000  0  6G 2G 4G 5G 6G10G30
  20603343.752   108271302.25249  20603343.155    84367242.89049
  23487336.812   123426786.88546  23487340.443    96176718.98547
  20588229.598   108191878.98949  20588231.612    84305365.45749
  24141944.763   126866779.13546  24141949.319    98857248.27846
  20738875.155   108983533.11248  20738877.428    84922241.57949
  21601912.789   113518822.70848  21601915.356    88456235.46948
  5  3 12 17 59 25.0000000  0  6G 2G 4G 5G 6G10G30
  20604647.310   108278152.49649  20604646.720    84372580.73849
  23490160.852   123441627.34547  23490164.475    96188282.98947
  20588799.619   108194874.50449  20588801.633    84307699.63149
  24139439.087   126853611.93546  24139443.620    98846988.17246
  20737166.389   108974553.48848  20737168.663    84915244.47448
  21600184.360   113509739.78348  21600186.927    88449157.87148
  5  3 12 17 59 30.0000000  0  6G 2G 4G 5G 6G10G30
  20605998.832   108285254.75649  20605998.235    84378114.96649
  23493031.358   123456711.89547  23493034.994    96200037.15947
  20589419.156   108198130.16249  20589421.171    84310236.50249
  24136979.764   126840688.01746  24136984.284    98836917.57046
  20735507.044   108965833.60048  20735509.318    84908449.76148
  21598505.084   113500915.09948  21598507.653    88442281.49248
  5  3 12 17 59 35.0000000  0  6G 2G 4G 5G 6G10G30
  20607251.865   108291839.46049  20607251.276    84383245.89649
  23495801.885   123471271.05146  23495805.514    96211381.94447
  20589941.751   108200876.41549  20589943.765    84312376.43849
  24134420.294   126827237.81346  24134424.785    98826436.88147
  20733750.687   108956603.91348  20733752.961    84901257.80548
  21596728.483   113491579.02848  21596731.059    88435006.63548
  5  3 12 17 59 40.0000000  0  6G 2G 4G 5G 6G10G30
  20608582.283   108298830.88549  20608581.701    84388693.76349
  23498648.275   123486228.89947  23498651.904    96223037.40147
  20590543.299   108204037.53949  20590545.313    84314839.64849
  24131936.561   126814185.73946  24131941.031    98816266.44946
  20732073.206   108947788.72248  20732075.479    84894388.83149
  21595030.458   113482655.90948  21595033.034    88428053.57148
  5  3 12 17 59 45.0000000  0  6G 2G 4G 5G 6G10G30
  20609843.641   108305459.33449  20609843.052    84393858.78749
  23501424.108   123500815.93546  23501427.737    96234403.91447
  20591077.319   108206843.83549  20591079.341    84317026.37049
  24129382.088   126800761.92546  24129386.544    98805806.34646
  20730328.142   108938618.35048  20730330.416    84887243.08849
  21593264.579   113473376.09148  21593267.156    88420822.53348
  5  3 12 17 59 50.0000000  0  6G 2G 4G 5G 6G10G30
  20611153.216   108312341.19749  20611152.635    84399221.27749
  23504246.679   123515648.46047  23504250.316    96245961.68147
  20591661.122   108209911.74049  20591663.151    84319416.94449
  24126874.182   126787582.85546  24126878.636    98795536.94446
  20728632.783   108929709.20748  20728635.050    84880300.91149
  21591548.101   113464355.96748  21591550.677    88413793.87248
  5  3 12 17 59 55.0000000  0  6G 2G 4G 5G 6G10G30
  20612481.790   108319322.86849  20612481.209    84404661.53449
  23507086.688   123530572.90346  23507090.318    96257591.13947
  20592265.465   108213087.58349  20592267.494    84321891.62849
  24124383.598   126774494.87446  24124388.030    98785338.55047
  20726957.897   108920907.65548  20726960.165    84873442.56649
  21589851.805   113455441.90448  21589854.375    88406847.85948
  5  3 12 18  0  0.0000000  0  6G 2G 4G 5G 6G10G30
  20613770.804   108326096.65349  20613770.231    84409939.80349
  23509885.661   123545281.54347  23509889.298    96269052.40447
  20592831.801   108216063.69949  20592833.831    84324210.68149
  24121851.828   126761190.39546  24121856.260    98774971.43647
  20725244.946   108911906.03548  20725247.213    84866428.31749
  21588117.142   113446326.21948  21588119.719    88399744.73248
  5  3 12 18  0  5.0000000  0  6G 2G 4G 5G 6G10G30
  20615078.899   108332970.80249  20615078.326    84415296.29449
  23512702.249   123560082.68847  23512705.887    96280585.73747
  20593418.799   108219148.36649  20593420.830    84326614.31449
  24119337.541   126747977.69146  24119341.958    98764675.82246
  20723552.579   108903012.64848  20723554.839    84859498.42149
  21586402.791   113437317.24248  21586405.367    88392724.75048
  5  3 12 18  0 10.0000000  0  6G 2G 4G 5G 6G10G30
  20616406.187   108339945.68449  20616405.621    84420731.25549
  23515536.487   123574976.67747  23515540.117    96292191.43747
  20594026.518   108222341.91749  20594028.549    84329102.79149
  24116840.788   126734857.07246  24116845.213    98754451.94247
  20721880.886   108894227.84348  20721883.146    84852653.11949
  21584708.808   113428415.26948  21584711.385    88385788.14448
  5  3 12 18  0 15.0000000  0  6G 2G 4G 5G 6G10G30
  20617664.778   108346559.62749  20617664.213    84425884.97949
  23518300.550   123589501.86547  23518304.181    96303509.75247
  20594567.102   108225182.74049  20594569.141    84331316.42349
  24114273.694   126721366.90647  24114278.115    98743940.13847
  20720142.005   108885089.99648  20720144.266    84845532.72749
  21582947.344   113419158.74848  21582949.915    88378575.28248
  5  3 12 18  0 20.0000000  0  6G 2G 4G 5G 6G10G30
  20618971.975   108353428.93049  20618971.411    84431237.67249
  23521111.710   123604274.48346  23521115.347    96315020.85247
  20595157.845   108228287.08149  20595159.891    84333735.38549
  24111753.555   126708123.45446  24111757.971    98733620.56847
  20718453.225   108876215.39448  20718455.486    84838617.45549
  21581235.686   113410163.89148  21581238.264    88371566.29248
  5  3 12 18  0 25.0000000  0  6G 2G 4G 5G 6G10G30
  20620327.801   108360553.84349  20620327.237    84436789.55449
  23523969.988   123619294.83846  23523973.626    96326725.02747
  20595798.784   108231655.23649  20595800.830    84336359.92349
  24109280.420   126695127.04246  24109284.824    98723493.50847
  20716814.587   108867604.32548  20716816.856    84831907.53649
  21579573.874   113401431.07148  21579576.452    88364761.51448
  5  3 12 18  0 30.0000000  0  6G 2G 4G 5G 6G10G30
  20621644.413   108367472.65349  20621643.857    84442180.83049
  23526787.530   123634101.15247  23526791.161    96338262.42347
  20596402.068   108234825.48749  20596404.115    84338830.24149
  24106766.410   126681915.95346  24106770.802    98713199.19347
  20715138.237   108858795.04448  20715140.500    84825043.17049
  21577874.063   113392498.53948  21577876.641    88357801.10448
  5  3 12 18  0 35.0000000  0  6G 2G 4G 5G 6G10G30
  20622951.176   108374339.74249  20622950.621    84447531.80849
  23529593.748   123648847.89446  23529597.378    96349753.38347
  20596997.054   108237952.18849  20596999.100    84341266.63949
  24104240.934   126668644.48745  24104245.327    98702857.79746
  20713453.549   108849941.98448  20713455.812    84818144.68548
  21576165.640   113383520.71648  21576168.212    88350805.40248
  5  3 12 18  0 40.0000000  0  6G 2G 4G 5G 6G10G30
  20624248.147   108381155.37149  20624247.599    84452842.68749
  23532388.701   123663535.31347  23532392.337    96361198.08447
  20597583.825   108241035.66049  20597585.872    84343669.34049
  24101704.015   126655313.01745  24101708.416    98692469.66246
  20711760.585   108841045.39748  20711762.842    84811212.28749
  21574448.639   113374497.84648  21574451.210    88343774.60048
  5  3 12 18  0 45.0000000  0  6G 2G 4G 5G 6G10G30
  20625564.698   108388073.83149  20625564.151    84458233.68649
  23535201.735   123678317.75547  23535205.379    96372716.83347
  20598191.728   108244230.18149  20598193.776    84346158.57449
  24099185.063   126642075.89345  24099189.469    98682155.02746
  20710088.705   108832259.63848  20710090.968    84804366.24649
  21572752.444   113365584.25048  21572755.009    88336828.94048
  5  3 12 18  0 50.0000000  0  6G 2G 4G 5G 6G10G30
  20626900.872   108395095.47349  20626900.326    84463705.09549
  23538032.849   123693195.45146  23538036.485    96384309.86647
  20598820.824   108247536.13749  20598822.880    84348734.65049
  24096684.117   126628933.36545  24096688.536    98671914.09546
  20708437.992   108823585.08248  20708440.248    84797606.85549
  21571077.097   113356780.27048  21571079.661    88329968.70148
  5  3 12 18  0 55.0000000  0  6G 2G 4G 5G 6G10G30
  20628198.145   108401912.68549  20628197.606    84469017.21249
  23540823.576   123707860.85246  23540827.205    96395737.46047
  20599412.594   108250645.87749  20599414.657    84351157.81449
  24094142.628   126615577.90846  24094147.060    98661507.26846
  20706749.893   108814714.12849  20706752.157    84790694.43549
  21569364.081   113347778.34048  21569366.645    88322954.21948
  5  3 12 18  1  0.0000000  0  6G 2G 4G 5G 6G10G30
  20629573.800   108409141.80348  20629573.269    84474650.28749
  23543691.187   123722930.18447  23543694.829    96407479.77347
  20600084.300   108254175.71649  20600086.363    84353908.34049
  24091677.889   126602625.77446  24091682.335    98651414.72446
  20705141.718   108806263.11048  20705143.975    84784109.23049
  21567730.707   113339194.87248  21567733.271    88316265.79448
  5  3 12 18  1  5.0000000  0  6G 2G 4G 5G 6G10G30
  20630881.353   108416013.00949  20630880.822    84480004.46749
  23546489.210   123737633.77447  23546492.853    96418937.09247
  20600689.470   108257355.90649  20600691.533    84356386.40849
  24089143.433   126589307.21146  24089147.884    98641036.63546
  20703466.967   108797462.23348  20703469.225    84777251.40648
  21566030.442   113330259.95148  21566033.007    88309303.52748
  5  3 12 18  1 10.0000000  0  6G 2G 4G 5G 6G10G30
  20632179.474   108422834.64949  20632178.944    84485320.03149
  23549276.278   123752279.91147  23549279.920    96430349.66447
  20601286.765   108260494.71349  20601288.828    84358832.23249
  24086597.917   126575930.55746  24086602.373    98630613.28846
  20701784.302   108788619.80248  20701786.560    84770361.20649
  21564321.980   113321281.92248  21564324.544    88302307.65848
  5  3 12 18  1 15.0000000  0  6G 2G 4G 5G 6G10G30
  20633526.820   108429915.00149  20633526.290    84490837.18749
  23552111.071   123767176.88147  23552114.707    96441957.70447
  20601934.866   108263900.47549  20601936.930    84361486.07049
  24084100.028   126562804.09446  24084104.477    98620384.88446
  20700152.411   108780044.15748  20700154.670    84763678.88949
  21562663.988   113312569.17848  21562666.552    88295518.52148
  5  3 12 18  1 20.0000000  0  6G 2G 4G 5G 6G10G30
  20634864.833   108436946.27448  20634864.303    84496316.09749
  23554935.061   123782016.95847  23554938.697    96453521.38047
  20602575.187   108267265.41648  20602577.257    84364108.10349
  24081591.226   126549620.09746  24081595.682    98610111.59846
  20698512.713   108771427.54748  20698514.971    84756964.66049
  21560997.914   113303813.93148  21561000.471    88288696.26048
  5  3 12 18  1 25.0000000  0  6G 2G 4G 5G 6G10G30
  20636193.571   108443928.84049  20636193.050    84501757.05949
  23557748.281   123796800.46246  23557751.915    96465040.97647
  20603207.822   108270589.90149  20603209.892    84366698.60649
  24079071.480   126536378.92646  24079075.921    98599793.84746
  20696865.304   108762770.35748  20696867.563    84750218.79949
  21559323.829   113295016.55748  21559326.387    88281841.16448
  5  3 12 18  1 30.0000000  0  6G 2G 4G 5G 6G10G30
  20637513.100   108450862.97748  20637512.578    84507160.27549
  23560550.763   123811527.60547  23560554.390    96476516.67247
  20603832.800   108273874.18148  20603834.870    84369257.78549
  24076540.961   126523080.86446  24076545.392    98589431.69346
  20695210.220   108754072.82948  20695212.472    84743441.50849
  21557641.781   113286177.33748  21557644.339    88274953.46048
  5  3 12 18  1 35.0000000  0  6G 2G 4G 5G 6G10G30
  20638852.792   108457903.10648  20638852.277    84512646.08749
  23563371.925   123826352.84947  23563375.552    96488068.79747
  20604479.528   108277272.76148  20604481.605    84371906.02749
  24074028.991   126509880.40746  24074033.407    98579145.62746
  20693576.859   108745489.49148  20693579.111    84736753.19949
  21555981.162   113277450.75548  21555983.726    88268153.52848
  5  3 12 18  1 40.0000000  0  6G 2G 4G 5G 6G10G30
  20640183.402   108464895.54549  20640182.888    84518094.74949
  23566182.533   123841122.63347  23566186.166    96499577.69847
  20605118.756   108280631.92749  20605120.834    84374523.56149
  24071506.344   126496623.80746  24071510.744    98568815.80746
  20691935.970   108736866.59448  20691938.222    84730034.06749
  21554312.724   113268683.05248  21554315.281    88261321.55548
  5  3 12 18  1 45.0000000  0  6G 2G 4G 5G 6G10G30
  20641505.002   108471840.53749  20641504.495    84523506.41749
  23568982.586   123855837.07147  23568986.211    96511043.50747
  20605750.533   108283951.94049  20605752.611    84377110.58249
  24068973.040   126483311.29946  24068977.418    98558442.44746
  20690287.620   108728204.45248  20690289.865    84723284.35149
  21552636.527   113259874.57948  21552639.078    88254457.81448
  5  3 12 18  1 50.0000000  0  6G 2G 4G 5G 6G10G30
  20642846.915   108478892.33848  20642846.402    84529001.33349
  23571801.516   123870650.49147  23571805.147    96522586.39147
  20606404.210   108287387.03249  20606406.287    84379787.27949
  24066458.473   126470097.15846  24066462.850    98548145.71246
  20688661.154   108719657.31848  20688663.401    84716624.25249
  21550981.920   113251179.55948  21550984.477    88247682.46948
  5  3 12 18  1 55.0000000  0  6G 2G 4G 5G 6G10G30
  20644179.898   108485897.18049  20644179.393    84534459.64549
  23574609.962   123885409.13547  23574613.587    96534086.67147
  20607050.536   108290783.43749  20607052.614    84382433.81649
  24063933.394   126456827.71746  24063937.763    98537805.87346
  20687027.306   108711071.42048  20687029.553    84709933.94848
  21549319.652   113242444.31448  21549322.203    88240875.79748
  5  3 12 18  2  0.0000000  0  6G 2G 4G 5G 6G10G30
  20645533.335   108493009.53849  20645532.837    84540001.73949
  23577437.432   123900267.40347  23577441.057    96545664.50047
  20607718.877   108294295.62649  20607720.962    84385170.59049
  24061427.144   126443657.34746  24061431.513    98527543.26146
  20685415.490   108702601.27148  20685417.730    84703333.83449
  21547679.114   113233823.23048  21547681.659    88234158.07348
  5  3 12 18  2  5.0000000  0  6G 2G 4G 5G 6G10G30
  20646877.958   108500075.57949  20646877.459    84545507.74349
  23580254.554   123915071.50647  23580258.178    96557200.16947
  20608379.996   108297769.83049  20608382.074    84387877.76449
  24058910.470   126430432.26346  24058914.839    98517238.02746
  20683796.432   108694093.09548  20683798.672    84696704.09449
  21546031.031   113225162.52748  21546033.575    88227409.47948
  5  3 12 18  2 10.0000000  0  6G 2G 4G 5G 6G10G30
  20648213.889   108507095.88349  20648213.392    84550978.10049
  23583061.502   123929821.99547  23583065.126    96568694.02947
  20609033.996   108301206.59249  20609036.081    84390555.75049
  24056383.521   126417153.08646  24056387.897    98506890.62047
  20682170.240   108685547.42948  20682172.480    84690045.14249
  21544375.527   113216462.82348  21544378.064    88220630.50048
  5  3 12 18  2 15.0000000  0  6G 2G 4G 5G 6G10G30
  20649541.140   108514070.66148  20649540.649    84556412.99949
  23585858.259   123944519.08147  23585861.883    96580146.31147
  20609680.902   108304606.10549  20609682.981    84393204.72849
  24053846.297   126403820.00946  24053850.680    98496501.23547
  20680536.976   108676964.53449  20680539.210    84683357.17249
  21542712.653   113207724.36448  21542715.197    88213821.30848
  5  3 12 18  2 20.0000000  0  6G 2G 4G 5G 6G10G30
  20650918.388   108521308.11749  20650917.897    84562052.56649
  23588703.554   123959471.08447  23588707.184    96591797.19047
  20610379.374   108308276.59949  20610381.459    84396064.84849
  24051357.464   126390741.25946  24051361.859    98486310.02347
  20678955.256   108668652.57248  20678957.491    84676880.33048
  21541101.038   113199255.30148  21541103.583    88207222.04548
  5  3 12 18  2 25.0000000  0  6G 2G 4G 5G 6G10G30
  20652228.467   108528192.63049  20652227.983    84567417.12049
  23591480.169   123974062.20247  23591483.800    96603166.87347
  20611012.265   108311602.46349  20611014.350    84398656.43049
  24048799.898   126377301.22046  24048804.286    98475837.28146
  20677307.950   108659995.95648  20677310.186    84670134.92249
  21539423.550   113190440.07048  21539426.087    88200353.04448
  5  3 12 18  2 30.0000000  0  6G 2G 4G 5G 6G10G30
  20653588.698   108535340.69048  20653588.215    84572987.04249
  23594305.436   123988909.04847  23594309.060    96614735.84147
  20611696.886   108315200.17349  20611698.978    84401459.83849
  24046290.875   126364116.34446  24046295.263    98465563.37746
  20675712.399   108651611.24248  20675714.628    84663601.37949
  21537797.500   113181895.18648  21537800.038    88193694.70648
  5  3 12 18  2 35.0000000  0  6G 2G 4G 5G 6G10G30
  20654940.484   108542444.34549  20654940.016    84578522.34448
  23597120.768   124003703.71947  23597124.385    96626264.15847
  20612374.633   108318761.75949  20612376.725    84404235.09649
  24043771.857   126350878.75246  24043776.243    98455248.35146
  20674109.974   108643190.44548  20674112.197    84657039.72149
  21536164.318   113173312.69248  21536166.855    88187007.03448
  5  3 12 18  2 40.0000000  0  6G 2G 4G 5G 6G10G30
  20656283.853   108549503.79449  20656283.385    84584023.21749
  23599926.186   124018446.25847  23599929.803    96637751.84547
  20613045.552   108322287.46249  20613047.651    84406982.39549
  24041242.801   126337588.62646  24041247.179    98444892.44346
  20672500.723   108634733.80548  20672502.947    84650450.14349
  21534524.012   113164692.82548  21534526.543    88180290.26148
  5  3 12 18  2 45.0000000  0  6G 2G 4G 5G 6G10G30
  20657648.197   108556673.44149  20657647.730    84589609.95048
  23602751.086   124033291.23947  23602754.704    96649319.37247
  20613739.030   108325931.68249  20613741.122    84409822.04549
  24038733.171   126324400.40046  24038737.555    98434615.89146
  20670914.037   108626395.71449  20670916.261    84643952.93149
  21532905.968   113156189.97648  21532908.498    88173664.67048
  5  3 12 18  2 50.0000000  0  6G 2G 4G 5G 6G10G30
  20659033.559   108563953.53549  20659033.099    84595282.74249
  23605595.552   124048238.79147  23605599.183    96660966.75747
  20614455.103   108329694.67149  20614457.195    84412754.24449
  24036242.963   126311314.30246  24036247.339    98424418.93546
  20669349.962   108618176.47748  20669352.186    84637548.33649
  21531310.253   113147804.43748  21531312.777    88167130.48948
  5  3 12 18  2 55.0000000  0  6G 2G 4G 5G 6G10G30
  20660352.063   108570882.32348  20660351.603    84600681.79849
  23608371.629   124062827.23647  23608375.252    96672334.39047
  20615105.913   108333114.69649  20615108.004    84415419.19949
  24033684.330   126297868.62746  24033688.698    98413941.78746
  20667720.644   108609614.34949  20667722.861    84630876.55249
  21529648.988   113139074.46548  21529651.519    88160327.91648
  5  3 12 18  3  0.0000000  0  6G 2G 4G 5G 6G10G30
  20661691.681   108577922.06149  20661691.229    84606167.30949
  23611167.359   124077518.80147  23611170.988    96683782.33747
  20615779.434   108336654.07349  20615781.526    84418177.15649
  24031145.210   126284525.67946  24031149.554    98403544.73246
  20666114.048   108601171.66148  20666116.258    84624297.84749
  21528010.157   113130462.34948  21528012.688    88153617.17748
  5  3 12 18  3  5.0000000  0  6G 2G 4G 5G 6G10G30
  20663052.502   108585073.16048  20663052.050    84611739.58349
  23613982.766   124092313.89447  23613986.395    96695310.98947
  20616475.734   108340313.12349  20616477.833    84421028.35549
  24028625.773   126271285.76245  24028630.114    98393227.85846
  20664530.247   108592848.73548  20664532.459    84617812.45149
  21526393.827   113121968.47748  21526396.351    88146998.57848
  5  3 12 18  3 10.0000000  0  6G 2G 4G 5G 6G10G30
  20664405.233   108592181.81148  20664404.789    84617278.78949
  23616788.598   124107058.64247  23616792.221    96706800.40647
  20617165.535   108343938.08349  20617167.634    84423853.00749
  24026096.627   126257995.25646  24026100.944    98382871.67346
  20662939.966   108584491.81048  20662942.176    84611300.57449
  21524770.744   113113439.11848  21524773.268    88140352.32648
  5  3 12 18  3 15.0000000  0  6G 2G 4G 5G 6G10G30
  20665808.557   108599556.32648  20665808.113    84623025.16749
  23619643.580   124122061.55147  23619647.203    96718490.95747
  20617907.530   108347837.26449  20617909.629    84426891.32149
  24023616.542   126244962.29546  24023620.852    98372716.11146
  20661401.903   108576409.23748  20661404.122    84605002.46649
  21523199.568   113105182.56448  21523202.093    88133918.65748
  5  3 12 18  3 20.0000000  0  6G 2G 4G 5G 6G10G30
  20667145.310   108606580.98049  20667144.874    84628498.91749
  23622430.475   124136706.71747  23622434.105    96729902.76047
  20618584.534   108351394.94349  20618586.634    84429663.54249
  24021068.322   126231571.30746  24021072.616    98362281.57446
  20659798.877   108567985.27748  20659801.088    84598438.34449
  21521563.150   113096583.09748  21521565.675    88127217.76648
  5  3 12 18  3 25.0000000  0  6G 2G 4G 5G 6G10G30
  20668503.451   108613718.06249  20668503.021    84634060.27449
  23625237.266   124151456.47647  23625240.902    96741396.06347
  20619284.530   108355073.41649  20619286.629    84432529.87649
  24018539.902   126218284.49346  24018544.181    98351928.24146
  20658218.862   108559682.24549  20658221.075    84591968.45349
  21519949.449   113088103.04148  21519951.967    88120609.93548
  5  3 12 18  3 30.0000000  0  6G 2G 4G 5G 6G10G30
  20669883.025   108620967.77149  20669882.596    84639709.40049
  23628064.004   124166311.04947  23628067.640    96752971.05247
  20620007.545   108358872.91849  20620009.645    84435490.53649
  24016031.355   126205102.08346  24016035.632    98341656.24946
  20656661.901   108551500.39048  20656664.108    84585592.99549
  21518358.498   113079742.60048  21518361.010    88114095.32448
  5  3 12 18  3 35.0000000  0  6G 2G 4G 5G 6G10G30
  20671225.478   108628022.37849  20671225.056    84645206.48849
  23630852.148   124180962.78347  23630855.784    96764387.97047
  20620695.025   108362485.68049  20620697.131    84438305.67749
  24013484.098   126191716.34446  24013488.374    98331225.83846
  20655069.444   108543131.97148  20655071.651    84579072.14949
  21516731.764   113071194.08648  21516734.275    88107434.14948
  5  3 12 18  3 40.0000000  0  6G 2G 4G 5G 6G10G30
  20672618.765   108635344.11749  20672618.350    84650911.73249
  23633689.629   124195873.78447  23633693.259    96776006.92647
  20621434.946   108366373.95949  20621437.052    84441335.49949
  24010986.134   126178589.58046  24010990.422    98320997.20646
  20653529.453   108535039.26648  20653531.661    84572766.14749
  21515157.206   113062919.69848  21515159.719    88100986.57248
  5  3 12 18  3 45.0000000  0  6G 2G 4G 5G 6G10G30
  20673945.715   108642317.29148  20673945.301    84656345.37449
  23636459.274   124210428.36647  23636462.904    96787348.16047
  20622110.130   108369922.04448  20622112.237    84444100.23749
  24008420.314   126165106.07846  24008424.602    98310490.57147
  20651924.755   108526606.54948  20651926.962    84566195.20849
  21513517.649   113054303.80148  21513520.161    88094272.89148
  5  3 12 18  3 50.0000000  0  6G 2G 4G 5G 6G10G30
  20675323.596   108649558.10448  20675323.189    84661987.56649
  23639278.382   124225242.78947  23639282.019    96798891.83847
  20622837.833   108373746.14849  20622839.933    84447080.06148
  24005903.840   126151882.03946  24005908.126    98300186.14847
  20650372.629   108518450.04149  20650374.830    84559839.48649
  21511930.372   113045962.57248  21511932.885    88087773.22948
  5  3 12 18  3 55.0000000  0  6G 2G 4G 5G 6G10G30
  20676693.865   108656758.88349  20676693.465    84667598.55449
  23642088.367   124240009.38647  23642092.003    96810398.28647
  20623559.508   108377538.57749  20623561.615    84450035.19649
  24003378.230   126138609.80646  24003382.523    98289844.13046
  20648814.507   108510262.09048  20648816.710    84553459.27549
  21510336.804   113037588.37648  21510339.318    88081247.89948
  5  3 12 18  4  0.0000000  0  6G 2G 4G 5G 6G10G30
  20678056.563   108663919.90849  20678056.163    84673178.57349
  23644889.336   124254728.48447  23644892.980    96821867.69247
  20624275.215   108381299.64349  20624277.322    84452965.89749
  24000843.464   126125289.67846  24000847.742    98279464.84646
  20647250.467   108502043.03248  20647252.669    84547054.81949
  21508737.038   113029181.51848  21508739.552    88074697.09548
  5  3 12 18  4  5.0000000  0  6G 2G 4G 5G 6G10G30
  20679470.347   108671349.36448  20679469.949    84678967.75949
  23647739.891   124269708.22147  23647743.528    96833540.21047
  20625043.607   108385337.54149  20625045.715    84456112.30849
  23998358.267   126112229.84746  23998362.545    98269288.34646
  20645739.158   108494101.05248  20645741.354    84540866.27149
  21507189.693   113021050.19848  21507192.201    88068361.01448
  5  3 12 18  4 10.0000000  0  6G 2G 4G 5G 6G10G30
  20680876.646   108678739.48548  20680876.248    84684726.28949
  23650581.469   124284640.75347  23650585.107    96845175.93747
  20625806.108   108389344.50849  20625808.215    84459234.61749
  23995864.012   126099122.60546  23995868.276    98259074.95046
  20644222.011   108486128.39049  20644224.215    84534653.80649
  21505636.226   113012886.67348  21505638.735    88061999.82848
  5  3 12 18  4 15.0000000  0  6G 2G 4G 5G 6G10G30
  20682246.170   108685936.38248  20682245.780    84690334.25949
  23653384.800   124299372.26147  23653388.443    96856655.00647
  20626533.436   108393166.64249  20626535.551    84462212.90349
  23993331.472   126085813.98646  23993335.734    98248704.58547
  20642669.730   108477971.15848  20642671.927    84528297.54049
  21504047.344   113004537.04048  21504049.853    88055493.62348
  5  3 12 18  4 20.0000000  0  6G 2G 4G 5G 6G10G30
  20683608.314   108693094.46648  20683607.924    84695911.98049
  23656179.263   124314057.20446  23656182.914    96868097.80447
  20627254.984   108396958.37449  20627257.092    84465167.49649
  23990789.980   126072458.45146  23990794.222    98238297.70747
  20641111.746   108469783.83448  20641113.937    84521917.80049
  21502452.433   112996155.72648  21502454.942    88048962.72948
  5  3 12 18  4 25.0000000  0  6G 2G 4G 5G 6G10G30
  20684992.444   108700368.14849  20684992.060    84701579.78849
  23658994.225   124328849.92747  23658997.869    96879624.60747
  20628000.115   108400874.09249  20628002.223    84468218.71249
  23988268.970   126059210.42146  23988273.212    98227974.56047
  20639577.391   108461720.78048  20639579.590    84515634.90749
  21500880.873   112987897.18648  21500883.383    88042527.52148
  5  3 12 18  4 30.0000000  0  6G 2G 4G 5G 6G10G30
  20686339.985   108707449.49148  20686339.602    84707097.71649
  23661771.111   124343442.56346  23661774.755    96890995.49047
  20628710.257   108404605.88349  20628712.373    84471126.59449
  23985709.830   126045761.96046  23985714.073    98217495.22047
  20638008.097   108453474.11049  20638010.295    84509208.93949
  21499274.094   112979453.47548  21499276.605    88035948.00048
  5  3 12 18  4 35.0000000  0  6G 2G 4G 5G 6G10G30
  20687738.901   108714800.87548  20687738.518    84712826.07249
  23664597.927   124358297.45846  23664601.572    96902570.70847
  20629473.386   108408616.15649  20629475.502    84474251.48349
  23983200.508   126032575.47746  23983204.744    98207220.06347
  20636491.855   108445506.20848  20636494.053    84503000.18249
  21497720.078   112971287.06748  21497722.582    88029584.56948
  5  3 12 18  4 40.0000000  0  6G 2G 4G 5G 6G10G30
  20689130.667   108722114.62649  20689130.291    84718525.08749
  23667416.069   124373106.86347  23667419.714    96914110.49647
  20630230.947   108412597.19549  20630233.063    84477353.59649
  23980682.483   126019343.32346  23980686.700    98196909.34247
  20634970.106   108437509.36148  20634972.298    84496768.87948
  21496160.255   112963090.20348  21496162.765    88023197.41148
  5  3 12 18  4 45.0000000  0  6G 2G 4G 5G 6G10G30
  20690486.002   108729236.95748  20690485.633    84724074.95649
  23670196.315   124387717.09247  23670199.954    96925495.08447
  20630953.702   108416395.23849  20630955.818    84480313.09649
  23978126.517   126005911.63046  23978130.735    98186443.09147
  20633413.597   108429329.85449  20633415.797    84490395.23749
  21494565.388   112954709.12248  21494567.906    88016666.69748
  5  3 12 18  4 50.0000000  0  6G 2G 4G 5G 6G10G30
  20691922.178   108736784.08348  20691921.816    84729955.82349
  23673055.917   124402744.30646  23673059.555    96937204.57947
  20631758.890   108420626.52649  20631761.006    84483610.20749
  23975649.835   125992896.64246  23975654.053    98176301.55747
  20631939.591   108421583.93048  20631941.791    84484359.46048
  21493052.739   112946760.09648  21493055.250    88010472.65648
  5  3 12 18  4 55.0000000  0  6G 2G 4G 5G 6G10G30
  20693263.403   108743832.26648  20693263.040    84735447.91249
  23675819.070   124417264.77147  23675822.708    96948519.22847
  20632470.739   108424367.31749  20632472.856    84486525.11149
  23973076.666   125979374.70146  23973080.876    98165765.01547
  20630372.315   108413347.87248  20630374.514    84477941.75549
  21491446.529   112938319.40448  21491449.040    88003895.49548
  5  3 12 18  5  0.0000000  0  6G 2G 4G 5G 6G10G30
  20694656.240   108751151.70548  20694655.877    84741151.37849
  23678632.388   124432048.73447  23678636.026    96960039.17147
  20633235.805   108428387.76749  20633237.922    84489657.92949
  23970553.601   125966116.03346  23970557.812    98155433.61346
  20628858.332   108405391.86648  20628860.531    84471742.27949
  21489893.315   112930157.21048  21489895.820    87997535.34848
  5  3 12 18  5  5.0000000  0  6G 2G 4G 5G 6G10G30
  20696071.449   108758588.64748  20696071.093    84746946.38749
  23681466.574   124446942.45046  23681470.212    96971644.65847
  20634024.850   108432534.19949  20634026.968    84492888.91149
  23968051.399   125952966.90446  23968055.629    98145187.53146
  20627368.395   108397562.19548  20627370.595    84465641.23849
  21488363.852   112922119.86348  21488366.364    87991272.48148
  5  3 12 18  5 10.0000000  0  6G 2G 4G 5G 6G10G30
  20697479.752   108765989.29949  20697479.403    84752713.11949
  23684292.375   124461792.10647  23684296.021    96983215.81047
  20634808.592   108436652.78649  20634810.710    84496098.20149
  23965540.749   125939773.44046  23965544.978    98134906.92847
  20625873.230   108389705.05248  20625875.423    84459518.79249
  21486828.877   112914053.51048  21486831.388    87984987.01148
  5  3 12 18  5 15.0000000  0  6G 2G 4G 5G 6G10G30
  20698822.591   108773045.96548  20698822.243    84758211.82448
  23687051.242   124476289.95646  23687054.881    96994512.81847
  20635528.482   108440435.80649  20635530.600    84499046.00349
  23962963.156   125926228.03346  23962967.383    98124352.04747
  20624314.278   108381512.76448  20624316.471    84453135.20648
  21485229.831   112905650.50048  21485232.342    87978439.21848
  5  3 12 18  5 20.0000000  0  6G 2G 4G 5G 6G10G30
  20700217.234   108780374.86648  20700216.887    84763922.65748
  23689860.446   124491052.35846  23689864.098    97006015.96547
  20636301.781   108444499.51849  20636303.899    84502212.53349
  23960435.826   125912946.88746  23960440.053    98114003.11347
  20622808.835   108373601.57948  20622811.029    84446970.64249
  21483683.992   112897527.09448  21483686.497    87972109.30448
  5  3 12 18  5 25.0000000  0  6G 2G 4G 5G 6G10G30
  20701634.431   108787822.25248  20701634.091    84769725.80949
  23692690.694   124505925.37947  23692694.346    97017605.32747
  20637099.236   108448690.17549  20637101.355    84505477.98149
  23957929.530   125899776.24746  23957933.751    98103740.28847
  20621327.631   108365817.76948  20621329.819    84440905.33349
  21482162.121   112889529.54448  21482164.633    87965877.43148
  5  3 12 18  5 30.0000000  0  6G 2G 4G 5G 6G10G30
  20703044.891   108795234.27249  20703044.558    84775501.40649
  23695512.750   124520755.38446  23695516.402    97029161.17347
  20637891.574   108452853.93849  20637893.692    84508722.47048
  23955414.988   125886562.33546  23955419.202    98093443.75747
  20619841.379   108358007.51948  20619843.566    84434819.43949
  21480634.908   112881504.01648  21480637.413    87959623.78148
  5  3 12 18  5 35.0000000  0  6G 2G 4G 5G 6G10G30
  20704477.982   108802765.18548  20704477.650    84781369.64649
  23698355.941   124535696.45546  23698359.593    97040803.56647
  20638708.157   108457145.07949  20638710.276    84512066.21449
  23952921.588   125873459.36547  23952925.802    98083233.63847
  20618379.462   108350325.09548  20618381.656    84428833.13049
  21479131.723   112873604.75749  21479134.228    87953468.52348
  5  3 12 18  5 40.0000000  0  6G 2G 4G 5G 6G10G30
  20705845.832   108809953.28348  20705845.499    84786970.75849
  23701132.451   124550286.95746  23701136.109    97052172.74947
  20639461.105   108461101.84449  20639463.230    84515149.40349
  23950361.415   125860005.62547  23950365.616    98072750.22847
  20616854.000   108342308.77248  20616856.188    84422586.65648
  21477564.725   112865370.09548  21477567.229    87947051.89348
  5  3 12 18  5 45.0000000  0  6G 2G 4G 5G 6G10G30
  20707265.710   108817414.79248  20707265.391    84792784.91749
  23703959.492   124565143.12847  23703963.152    97063748.98347
  20640267.689   108465340.47449  20640269.815    84518452.23249
  23947851.761   125846817.37046  23947855.956    98062473.68547
  20615382.275   108334574.80649  20615384.462    84416560.18649
  21476051.152   112857416.24548  21476053.656    87940854.09548
  5  3 12 18  5 50.0000000  0  6G 2G 4G 5G 6G10G30
  20708649.742   108824687.93148  20708649.424    84798452.29949
  23706749.201   124579803.14446  23706752.851    97075172.36947
  20641040.052   108469399.23849  20641042.172    84521614.90449
  23945304.776   125833432.84046  23945308.978    98052044.17147
  20613876.398   108326661.42848  20613878.578    84410393.93649
  21474503.156   112849281.50748  21474505.654    87934515.34748
  5  3 12 18  5 55.0000000  0  6G 2G 4G 5G 6G10G30
  20710056.563   108832080.79748  20710056.245    84804212.96749
  23709560.229   124594575.13446  23709563.886    97086682.99147
  20641836.806   108473586.20749  20641838.926    84524877.47949
  23942779.047   125820160.17246  23942783.242    98041701.86447
  20612395.026   108318876.76548  20612397.206    84404327.96348
  21472979.357   112841273.91648  21472981.853    87928275.67048
  5  3 12 18  6  0.0000000  0  6G 2G 4G 5G 6G10G30
  20711456.979   108839440.03048  20711456.655    84809947.44049
  23712363.370   124609305.80546  23712367.014    97098161.45747
  20642628.763   108477748.00449  20642630.891    84528120.44349
  23940245.420   125806845.96346  23940249.608    98031327.17947
  20610908.960   108311067.43948  20610911.140    84398242.77248
  21471450.596   112833240.19648  21471453.094    87922015.62648
  5  3 12 18  6  5.0000000  0  6G 2G 4G 5G 6G10G30
  20712850.991   108846765.61348  20712850.681    84815655.68149
  23715158.659   124623995.02146  23715162.310    97109607.57147
  20643415.940   108481884.64649  20643418.067    84531343.79849
  23937703.918   125793490.22146  23937708.106    98020920.09347
  20609418.202   108303233.47948  20609420.382    84392138.39748
  21469916.842   112825180.29348  21469919.333    87915735.19248
  5  3 12 18  6 10.0000000  0  6G 2G 4G 5G 6G10G30
  20714267.922   108854211.63849  20714267.613    84821457.78149
  23717975.369   124638796.92947  23717979.019    97121141.52546
  20644227.653   108486150.19449  20644229.781    84534667.60149
  23935183.808   125780247.07547  23935187.989    98010600.78747
  20607952.085   108295528.98448  20607954.259    84386134.89948
  21468407.432   112817248.32248  21468409.924    87909554.44648
  5  3 12 18  6 15.0000000  0  6G 2G 4G 5G 6G10G30
  20715707.826   108861778.34948  20715707.516    84827353.91449
  23720813.602   124653711.78946  23720817.266    97132763.45347
  20645063.943   108490544.92749  20645066.078    84538092.06549
  23932685.175   125767116.73247  23932689.349    98000369.37247
  20606510.652   108287954.20648  20606512.826    84380232.47449
  21466922.447   112809444.57748  21466924.939    87903473.58748
  5  3 12 18  6 20.0000000  0  6G 2G 4G 5G 6G10G30
  20717082.825   108869004.01848  20717082.529    84832984.29849
  23723585.455   124668277.85046  23723589.119    97144113.60346
  20645836.951   108494607.08349  20645839.080    84541257.37849
  23930120.159   125753637.51547  23930124.327    97989866.09847
  20605006.038   108280047.43748  20605008.211    84374071.35849
  21465373.956   112801307.29848  21465376.448    87897132.87048
  5  3 12 18  6 25.0000000  0  6G 2G 4G 5G 6G10G30
  20718510.195   108876504.89848  20718509.900    84838829.14349
  23726408.174   124683111.40146  23726411.845    97155672.22547
  20646663.937   108498952.92349  20646666.073    84544643.74649
  23927606.035   125740425.64147  23927610.204    97979571.11947
  20603555.525   108272424.93948  20603557.691    84368131.75449
  21463879.289   112793452.77148  21463881.781    87891012.45848
  5  3 12 18  6 30.0000000  0  6G 2G 4G 5G 6G10G30
  20719902.057   108883819.21448  20719901.768    84844528.61249
  23729193.938   124697750.50546  23729197.616    97167079.27246
  20647457.036   108503120.68749  20647459.173    84547891.35949
  23925054.904   125727019.32647  23925059.066    97969124.63747
  20602071.233   108264624.95948  20602073.405    84362053.85149
  21462350.556   112785419.22349  21462353.042    87884752.55848
  5  3 12 18  6 35.0000000  0  6G 2G 4G 5G 6G10G30
  20721346.373   108891409.11748  20721346.085    84850442.81649
  23732030.672   124712657.54546  23732034.350    97178695.13146
  20648304.210   108507572.58349  20648306.348    84551360.36549
  23922554.717   125713880.84947  23922558.865    97958886.88947
  20600641.128   108257109.71148  20600643.294    84356197.81649
  21460875.709   112777668.87948  21460878.201    87878713.33248
  5  3 12 18  6 40.0000000  0  6G 2G 4G 5G 6G10G30
  20722755.263   108898812.85248  20722754.983    84856211.95649
  23734830.483   124727370.71946  23734834.155    97190159.95747
  20649117.573   108511846.83449  20649119.717    84554690.94649
  23920017.634   125700548.35847  23920021.776    97948497.93147
  20599177.324   108249417.40148  20599179.490    84350203.81549
  21459366.886   112769739.96548  21459369.379    87872534.95848
  5  3 12 18  6 45.0000000  0  6G 2G 4G 5G 6G10G30
  20724187.379   108906338.67448  20724187.099    84862076.23049
  23737652.088   124742198.25946  23737655.766    97201713.85846
  20649955.786   108516251.67649  20649957.931    84558123.29249
  23917502.287   125687330.18347  23917506.428    97938198.06747
  20597738.499   108241856.29348  20597740.666    84344312.03949
  21457882.745   112761940.75048  21457885.238    87866457.64948
  5  3 12 18  6 50.0000000  0  6G 2G 4G 5G 6G10G30
  20725584.169   108913678.85148  20725583.901    84867795.84149
  23740436.902   124756832.45846  23740440.574    97213117.11746
  20650760.291   108520479.37649  20650762.436    84561417.60349
  23914950.109   125673918.58247  23914954.229    97927747.51947
  20596266.067   108234118.67248  20596268.234    84338282.73748
  21456364.737   112753963.53348  21456367.223    87860241.63148
  5  3 12 18  6 55.0000000  0  6G 2G 4G 5G 6G10G30
  20727033.576   108921295.53948  20727033.310    84873730.92649
  23743272.863   124771735.43946  23743276.533    97224729.80146
  20651619.049   108524992.14749  20651621.194    84564934.04449
  23912449.130   125660775.78947  23912453.250    97917506.36547
  20594848.017   108226666.77048  20594850.177    84332476.06248
  21454900.791   112746270.47648  21454903.278    87854247.05148
  5  3 12 18  7  0.0000000  0  6G 2G 4G 5G 6G10G30
  20728447.730   108928726.96748  20728447.470    84879521.64649
  23746072.076   124786445.43846  23746075.732    97236192.14946
  20652444.164   108529328.15849  20652446.317    84568312.75249
  23909911.402   125647439.93647  23909915.515    97907114.79647
  20593396.461   108219038.82348  20593398.621    84326532.21448
  21453403.055   112738399.81948  21453405.542    87848114.07348
  5  3 12 18  7  5.0000000  0  6G 2G 4G 5G 6G10G30
  20729855.984   108936127.39148  20729855.724    84885288.20849
  23748863.929   124801116.75546  23748867.585    97247624.34846
  20653265.003   108533641.69649  20653267.156    84571673.95149
  23907366.278   125634065.34447  23907370.385    97896693.06847
  20591940.758   108211389.05248  20591942.912    84320571.36248
  21451900.880   112730505.80648  21451903.360    87841962.89148
  5  3 12 18  7 10.0000000  0  6G 2G 4G 5G 6G10G30
  20731287.702   108943651.12148  20731287.449    84891150.85549
  23751677.795   124815903.53246  23751681.451    97259146.47446
  20654110.926   108538087.04849  20654113.086    84575137.86149
  23904843.178   125620806.33247  23904847.278    97886361.36747
  20590510.272   108203871.79648  20590512.426    84314713.75948
  21450423.619   112722742.81148  21450426.100    87835913.81848
  5  3 12 18  7 15.0000000  0  6G 2G 4G 5G 6G10G30
  20732713.607   108951144.27248  20732713.348    84896989.67249
  23754484.346   124830652.15246  23754488.001    97270638.92146
  20654952.659   108542510.35549  20654954.820    84578584.59149
  23902312.755   125607508.96447  23902316.849    97875999.81047
  20589075.713   108196333.16648  20589077.860    84308839.51449
  21448942.024   112714956.94549  21448944.504    87829846.90148
  5  3 12 18  7 20.0000000  0  6G 2G 4G 5G 6G10G30
  20734133.735   108958607.12348  20734133.483    84902804.88549
  23757283.689   124845362.64246  23757287.351    97282101.60246
  20655790.247   108546911.91349  20655792.409    84582014.37949
  23899775.111   125594173.61847  23899779.199    97865608.65247
  20587637.151   108188773.47249  20587639.298    84302948.84449
  21447456.116   112707148.47349  21447458.589    87823762.39048
  5  3 12 18  7 25.0000000  0  6G 2G 4G 5G 6G10G30
  20735548.152   108966039.93749  20735547.900    84908596.68649
  23760075.837   124860035.41446  23760079.499    97293534.91946
  20656623.753   108551291.98249  20656625.915    84585427.41449
  23897230.310   125580800.50648  23897234.407    97855188.02847
  20586194.640   108181192.99749  20586196.782    84297041.98249
  21445965.985   112699317.75149  21445968.459    87817660.52548
  5  3 12 18  7 30.0000000  0  6G 2G 4G 5G 6G10G30
  20736986.204   108973596.95049  20736985.958    84914485.26449
  23762890.142   124874824.62746  23762893.805    97305058.96946
  20657482.511   108555804.78549  20657484.680    84588943.88149
  23894707.654   125567543.89047  23894711.752    97844858.20747
  20584777.518   108173746.00049  20584779.659    84291239.13248
  21444500.954   112691618.99149  21444503.427    87811661.49348
  5  3 12 18  7 35.0000000  0  6G 2G 4G 5G 6G10G30
  20738418.625   108981124.37348  20738418.387    84920350.78949
  23765697.356   124889576.57346  23765701.013    97316553.98646
  20658337.266   108560296.55349  20658339.435    84592443.96149
  23892177.908   125554249.98447  23892181.999    97834499.32347
  20583356.538   108166278.70049  20583358.673    84285420.46349
  21443031.761   112683898.36249  21443034.228    87805645.43148
  5  3 12 18  7 40.0000000  0  6G 2G 4G 5G 6G10G30
  20739845.469   108988622.46048  20739845.225    84926193.45249
  23768497.538   124904291.47446  23768501.202    97328020.10446
  20659188.067   108564767.54249  20659190.235    84595927.84749
  23889641.116   125540919.08247  23889645.208    97824111.62047
  20581931.738   108158791.35749  20581933.880    84279586.17448
  21441558.479   112676156.18249  21441560.946    87799612.55748
  5  3 12 18  7 45.0000000  0  6G 2G 4G 5G 6G10G30
  20741325.364   108996399.39148  20741325.126    84932253.40149
  23771349.291   124919277.50346  23771352.954    97339697.52146
  20660093.558   108569525.93349  20660095.728    84599635.68849
  23887155.929   125527859.37047  23887160.010    97813935.24347
  20580561.788   108151592.18848  20580563.923    84273976.43048
  21440139.734   112668700.66248  21440142.202    87793803.06848
  5  3 12 18  7 50.0000000  0  6G 2G 4G 5G 6G10G30
  20742741.174   109003839.49048  20742740.936    84938050.87449
  23774135.499   124933918.99946  23774139.168    97351106.44746
  20660936.588   108573956.05349  20660938.765    84603087.72249
  23884605.183   125514455.17147  23884609.257    97803490.43347
  20579129.512   108144065.53149  20579131.649    84268111.50648
  21438658.390   112660916.14549  21438660.851    87787737.21648
  5  3 12 18  7 55.0000000  0  6G 2G 4G 5G 6G10G30
  20744180.820   109011404.88348  20744180.583    84943945.98949
  23776944.059   124948678.08246  23776947.721    97362607.03146
  20661805.093   108578520.04849  20661807.271    84606644.07749
  23882076.845   125501168.69447  23882080.912    97793137.34347
  20577722.860   108136673.55648  20577724.990    84262351.53648
  21437202.390   112653264.78448  21437204.851    87781775.11048
  5  3 12 18  8  0.0000000  0  6G 2G 4G 5G 6G10G30
  20745615.063   109018941.84748  20745614.833    84949818.93849
  23779745.738   124963401.13346  23779749.388    97374079.57546
  20662669.813   108583064.18249  20662671.998    84610184.95849
  23879541.635   125487846.10947  23879545.709    97782756.11047
  20576312.573   108129262.47948  20576314.710    84256576.67649
  21435742.461   112645592.83548  21435744.929    87775796.97248
  5  3 12 18  8  5.0000000  0  6G 2G 4G 5G 6G10G30
  20747043.927   109026450.58048  20747043.697    84955669.89949
  23782540.621   124978088.15546  23782544.286    97385523.96646
  20663530.786   108587588.62649  20663532.965    84613710.50749
  23876999.606   125474487.65747  23877003.681    97772346.93047
  20574898.696   108121832.50548  20574900.826    84250787.08848
  21434278.634   112637900.43249  21434281.095    87769802.90848
  5  3 12 18  8 10.0000000  0  6G 2G 4G 5G 6G10G30
  20748467.456   109033931.34048  20748467.233    84961499.07349
  23785328.697   124992739.59046  23785332.361    97396940.67046
  20664388.071   108592093.65649  20664390.250    84617220.91249
  23874450.794   125461093.65147  23874454.869    97761910.06447
  20573481.283   108114383.95049  20573483.413    84244983.01948
  21432811.021   112630188.01149  21432813.483    87763793.22248
  5  3 12 18  8 15.0000000  0  6G 2G 4G 5G 6G10G30
  20749915.016   109041538.28448  20749914.800    84967426.55449
  23788139.337   125007509.48146  23788142.995    97408449.65146
  20665270.999   108596733.47449  20665273.185    84620836.35249
  23871924.557   125447818.21847  23871928.625    97751565.58147
  20572089.666   108107070.98048  20572091.803    84239284.60748
  21431368.899   112622609.64048  21431371.354    87757888.00548
  5  3 12 18  8 20.0000000  0  6G 2G 4G 5G 6G10G30
  20751357.315   109049117.65048  20751357.106    84973332.55649
  23790943.244   125022244.08046  23790946.902    97419931.15246
  20666150.301   108601354.23549  20666152.487    84624436.94749
  23869391.611   125434507.59447  23869395.680    97741193.69047
  20570694.589   108099739.83448  20570696.726    84233572.03248
  21429923.028   112615011.60048  21429925.484    87751967.47248
  5  3 12 18  8 25.0000000  0  6G 2G 4G 5G 6G10G30
  20752823.731   109056823.68448  20752823.515    84979337.25649
  23793769.801   125037097.73646  23793773.452    97431505.43046
  20667055.340   108606110.24949  20667057.533    84628142.92949
  23866881.356   125421316.14547  23866885.425    97730914.64447
  20569325.416   108092544.78248  20569327.546    84227965.49948
  21428502.787   112607548.15048  21428505.250    87746151.78848
  5  3 12 18  8 30.0000000  0  6G 2G 4G 5G 6G10G30
  20754255.670   109064348.57548  20754255.454    84985200.80849
  23796560.423   125051762.45946  23796564.073    97442932.46546
  20667927.556   108610693.71449  20667929.744    84631714.45549
  23864335.184   125407935.98247  23864339.253    97720488.55947
  20567923.579   108085178.07848  20567925.716    84222225.21049
  21427049.576   112599911.50948  21427052.026    87740201.17648
  5  3 12 18  8 35.0000000  0  6G 2G 4G 5G 6G10G30
  20755711.793   109072000.55648  20755711.591    84991163.38349
  23799373.772   125066546.67646  23799377.414    97454452.62446
  20668825.572   108615412.82049  20668827.767    84635391.67649
  23861811.748   125394675.26547  23861815.831    97710155.53647
  20566547.707   108077947.88348  20566549.837    84216591.30948
  21425622.068   112592409.87548  21425624.519    87734355.73948
  5  3 12 18  8 40.0000000  0  6G 2G 4G 5G 6G10G30
  20757162.816   109079625.72948  20757162.607    84997105.08249
  23802180.528   125081296.33947  23802184.161    97465945.88046
  20669720.131   108620113.72749  20669722.319    84639054.71949
  23859281.770   125381380.23547  23859285.847    97699795.79947
  20565168.552   108070700.37748  20565170.682    84210943.90148
  21424190.983   112584889.43749  21424193.441    87728495.65348
  5  3 12 18  8 45.0000000  0  6G 2G 4G 5G 6G10G30
  20758608.780   109087224.29148  20758608.586    85003026.02849
  23804980.798   125096011.76546  23804984.424    97477412.42446
  20670611.252   108624796.63049  20670613.447    84642703.73949
  23856745.312   125368051.09147  23856749.388    97689409.45647
  20563786.139   108063435.74948  20563788.270    84205283.15549
  21422756.336   112577350.35049  21422758.795    87722621.04748
  5  3 12 18  8 50.0000000  0  6G 2G 4G 5G 6G10G30
  20760049.710   109094796.42848  20760049.515    85008926.39449
  23807774.579   125110693.09147  23807778.204    97488852.39446
  20671498.987   108629461.67649  20671501.183    84646338.83849
  23854202.372   125354687.94647  23854206.441    97678996.64047
  20562400.499   108056154.19248  20562402.623    84199609.22448
  21421318.194   112569792.86349  21421320.653    87716732.09848
  5  3 12 18  8 55.0000000  0  6G 2G 4G 5G 6G10G30
  20761514.947   109102496.30248  20761514.746    85014926.30149
  23810591.196   125125494.44846  23810594.814    97500385.91046
  20672412.663   108634263.04549  20672414.860    84650080.16049
  23851682.343   125341445.04247  23851686.412    97668677.48047
  20561040.982   108049009.88348  20561043.113    84194042.22648
  21419905.884   112562371.12149  21419908.337    87710948.93048
  5  3 12 18  9  0.0000000  0  6G 2G 4G 5G 6G10G30
  20762975.216   109110170.06748  20762975.029    85020905.85249
  23813401.384   125140261.96547  23813405.002    97511893.03546
  20673322.998   108639046.88949  20673325.201    84653807.82649
  23849155.883   125328168.50047  23849159.947    97658332.14947
  20559678.310   108041848.99048  20559680.440    84188462.30948
  21418490.131   112554931.28948  21418492.584    87705151.66048
  5  3 12 18  9  5.0000000  0  6G 2G 4G 5G 6G10G30
  20764430.589   109117818.07348  20764430.409    85026865.32949
  23816205.206   125154996.11646  23816208.817    97523374.19046
  20674230.076   108643813.58349  20674232.281    84657522.13349
  23846623.128   125314858.71747  23846627.191    97647960.87747
  20558312.551   108034671.90948  20558314.681    84182869.78348
  21417070.998   112547473.72948  21417073.452    87699340.58048
  5  3 12 18  9 10.0000000  0  6G 2G 4G 5G 6G10G30
  20765881.095   109125440.53248  20765880.915    85032804.90749
  23819002.690   125169697.08846  23819006.295    97534829.51846
  20675133.928   108648563.35849  20675136.140    84661223.25449
  23844084.065   125301515.91247  23844088.129    97637563.90247
  20556943.749   108027478.83848  20556945.872    84177264.80448
  21415648.543   112539998.67848  21415650.991    87693515.87348
  5  3 12 18  9 15.0000000  0  6G 2G 4G 5G 6G10G30
  20767326.755   109133037.56148  20767326.575    85038724.67649
  23821793.924   125184364.93146  23821797.528    97546258.96146
  20676034.579   108653296.31449  20676036.791    84664911.27149
  23841538.748   125288140.24547  23841542.812    97627141.31947
  20555571.936   108020269.94448  20555574.066    84171647.48549
  21414222.796   112532506.32348  21414225.243    87687677.67448
  5  3 12 18  9 20.0000000  0  6G 2G 4G 5G 6G10G30
  20768796.929   109140763.37448  20768796.756    85044744.78949
  23824608.150   125199153.88446  23824611.726    97557782.85446
  20676961.381   108658166.65749  20676963.594    84668706.34149
  23839016.522   125274885.92147  23839020.573    97616813.29547
  20554226.452   108013199.40948  20554228.581    84166137.98249
  21412823.076   112525150.78048  21412825.524    87681946.09048
  5  3 12 18  9 25.0000000  0  6G 2G 4G 5G 6G10G30
  20770262.327   109148464.12848  20770262.155    85050745.38349
  23827416.198   125213910.12246  23827419.787    97569281.17346
  20677885.046   108663020.55149  20677887.259    84672488.59549
  23836488.122   125261599.05747  23836492.180    97606459.88847
  20552878.031   108006113.41149  20552880.161    84160616.42648
  21411420.141   112517778.30748  21411422.590    87676201.30748
  5  3 12 18  9 30.0000000  0  6G 2G 4G 5G 6G10G30
  20771693.690   109155985.92648  20771693.518    85056606.51349
  23830188.692   125228479.76747  23830192.259    97580634.17246
  20678776.307   108667704.12849  20678778.521    84676138.13249
  23833924.235   125248125.83847  23833928.293    97595961.29448
  20551497.385   107998858.09748  20551499.515    84154962.94449
  21409984.706   112510235.04548  21409987.162    87670323.43848
  5  3 12 18  9 35.0000000  0  6G 2G 4G 5G 6G10G30
  20773208.248   109163944.98448  20773208.076    85062808.37749
  23833042.981   125243479.12446  23833046.548    97592321.97546
  20679752.412   108672833.59349  20679754.632    84680135.11449
  23831442.145   125235082.46047  23831446.198    97585797.65448
  20550201.791   107992049.70348  20550203.920    84149657.69848
  21408634.022   112503137.21149  21408636.470    87664792.67748
  5  3 12 18  9 40.0000000  0  6G 2G 4G 5G 6G10G30
  20774630.211   109171417.47848  20774630.046    85068631.10349
  23835803.206   125257984.17646  23835806.766    97603624.60946
  20680637.568   108677485.08849  20680639.789    84683759.65449
  23828866.057   125221545.05547  23828870.123    97575249.02747
  20548815.427   107984764.37348  20548817.563    84143980.82849
  21407192.308   112495560.89449  21407194.758    87658889.04248
  5  3 12 18  9 45.0000000  0  6G 2G 4G 5G 6G10G30
  20776135.436   109179327.49148  20776135.279    85074794.75049
  23838645.268   125272919.12446  23838648.840    97615262.17646
  20681607.620   108682582.74949  20681609.849    84687731.85349
  23826371.805   125208437.76647  23826375.871    97565035.57448
  20547514.187   107977926.25048  20547516.317    84138652.41148
  21405835.404   112488430.31549  21405837.847    87653332.75048
  5  3 12 18  9 50.0000000  0  6G 2G 4G 5G 6G10G30
  20777577.434   109186905.20949  20777577.277    85080699.46149
  23841422.598   125287514.12246  23841426.164    97626634.91646
  20682516.085   108687356.76249  20682518.314    84691451.86549
  23823812.929   125194990.84347  23823816.997    97554557.47648
  20546151.542   107970765.53348  20546153.672    84133072.64148
  21404416.820   112480975.60749  21404419.270    87647523.88648
  5  3 12 18  9 55.0000000  0  6G 2G 4G 5G 6G10G30
  20779014.829   109194458.77049  20779014.672    85086585.35249
  23844193.902   125302077.39246  23844197.474    97637982.90246
  20683421.599   108692115.23749  20683423.828    84695159.76349
  23821248.053   125181512.36447  23821252.121    97544054.77047
  20544786.148   107963590.37048  20544788.277    84127481.60949
  21402995.191   112473504.95549  21402997.633    87641702.61448
  5  3 12 18 10  0.0000000  0  6G 2G 4G 5G 6G10G30
  20780535.572   109202450.32849  20780535.422    85092812.53749
  23847047.119   125317071.02647  23847050.692    97649666.22846
  20684412.088   108697320.32749  20684414.318    84699215.68549
  23818765.110   125168464.53147  23818769.178    97533887.65647
  20543505.948   107956862.90348  20543508.077    84122239.43249
  21401658.485   112466480.52048  21401660.921    87636229.03248
  5  3 12 18 10  5.0000000  0  6G 2G 4G 5G 6G10G30
  20781993.167   109210110.01248  20781993.025    85098781.11549
  23849835.702   125331725.09746  23849839.267    97661084.97946
  20685341.086   108702202.17949  20685343.323    84703019.71149
  23816217.622   125155077.45347  23816221.697    97523456.17947
  20542164.452   107949813.26748  20542166.582    84116746.20649
  21400260.183   112459132.39148  21400262.626    87630503.21848
  5  3 12 18 10 10.0000000  0  6G 2G 4G 5G 6G10G30
  20783475.519   109217899.85949  20783475.383    85104851.12749
  23852647.590   125346501.76346  23852651.142    97672599.29046
  20686296.480   108707222.84149  20686298.716    84706931.91949
  23813693.514   125141813.17747  23813697.588    97513120.37547
  20540849.568   107942903.53748  20540851.691    84111362.00948
  21398888.212   112451922.66648  21398890.655    87624885.25648
  5  3 12 18 10 15.0000000  0  6G 2G 4G 5G 6G10G30
  20784924.044   109225511.90648  20784923.916    85110782.59349
  23855424.257   125361092.93246  23855427.815    97683968.95846
  20687219.703   108712074.34949  20687221.941    84710712.30749
  23811134.164   125128363.76447  23811138.238    97502640.32747
  20539502.719   107935825.82948  20539504.842    84105846.91848
  21397483.997   112444543.49748  21397486.433    87619135.26548
  5  3 12 18 10 20.0000000  0  6G 2G 4G 5G 6G10G30
  20786397.377   109233254.32448  20786397.249    85116815.64649
  23858224.201   125375806.92546  23858227.746    97695434.45846
  20688169.370   108717064.91248  20688171.607    84714601.06349
  23808598.268   125115037.48047  23808602.335    97492256.19847
  20538182.536   107928888.24848  20538184.665    84100441.01649
  21396106.186   112437302.95848  21396108.623    87613493.27048
  5  3 12 18 10 25.0000000  0  6G 2G 4G 5G 6G10G30
  20787895.570   109241127.34749  20787895.449    85122950.46149
  23861047.589   125390643.89647  23861051.139    97706995.72047
  20689145.531   108722194.67149  20689147.775    84718598.27749
  23806085.808   125101834.44847  23806089.869    97481968.13047
  20536889.077   107922091.04648  20536891.207    84095144.48848
  21394754.773   112430201.29648  21394757.210    87607959.51948
  5  3 12 18 10 30.0000000  0  6G 2G 4G 5G 6G10G30
  20789360.021   109248823.12148  20789359.906    85128947.17049
  23863835.778   125405295.86746  23863839.329    97718412.82846
  20690089.606   108727155.78949  20690091.851    84722464.07849
  23803538.230   125088446.83447  23803542.284    97471536.22747
  20535563.740   107915126.35349  20535565.864    84089717.46149
  21393371.218   112422930.63848  21393373.650    87602294.07448
  5  3 12 18 10 35.0000000  0  6G 2G 4G 5G 6G10G30
  20790820.061   109256495.65448  20790819.955    85134925.76349
  23866618.139   125419917.08547  23866621.697    97729805.94246
  20691030.900   108732102.32449  20691033.152    84726318.51849
  23800984.855   125075028.72647  23800988.902    97461080.55647
  20534235.849   107908148.26948  20534237.972    84084279.99648
  21391984.818   112415645.08849  21391987.250    87596617.02948
  5  3 12 18 10 40.0000000  0  6G 2G 4G 5G 6G10G30
  20792275.722   109264145.20348  20792275.616    85140886.45149
  23869394.620   125434507.62346  23869398.178    97741175.19946
  20691969.473   108737034.52449  20691971.718    84730161.78849
  23798425.689   125061580.31047  23798429.728    97450601.29147
  20532905.449   107901156.97049  20532907.565    84078832.23448
  21390595.639   112408344.84149  21390598.072    87590928.51448
  5  3 12 18 10 45.0000000  0  6G 2G 4G 5G 6G10G30
  20793756.318   109271925.78848  20793756.212    85146949.24549
  23872194.623   125449221.61446  23872198.182    97752640.62046
  20692934.621   108742106.41549  20692936.867    84734113.91349
  23795890.088   125048255.70247  23795894.114    97440218.50047
  20531601.867   107894306.57148  20531603.984    84073494.25649
  21389232.976   112401184.02849  21389235.395    87585348.67348
  5  3 12 18 10 50.0000000  0  6G 2G 4G 5G 6G10G30
  20795232.557   109279683.50648  20795232.465    85152994.22249
  23874988.825   125463905.14946  23874992.377    97764082.32046
  20693897.064   108747164.08849  20693899.317    84738054.95449
  23793348.767   125034900.93847  23793352.786    97429812.18647
  20530295.795   107887443.17849  20530297.905    84068146.17449
  21387867.555   112394008.69049  21387869.980    87579757.49748
  5  3 12 18 10 55.0000000  0  6G 2G 4G 5G 6G10G30
  20796763.086   109287726.46248  20796762.988    85159261.46149
  23877835.839   125478866.27646  23877839.391    97775740.33747
  20694915.443   108752515.66949  20694917.695    84742225.01149
  23790860.338   125021824.15647  23790864.364    97419622.48447
  20529045.900   107880874.90349  20529048.017    84063028.02949
  21386558.007   112387126.94048  21386560.419    87574395.09548
  5  3 12 18 11  0.0000000  0  6G 2G 4G 5G 6G10G30
  20798230.676   109295438.69749  20798230.585    85165270.99149
  23880618.457   125493489.06746  23880622.010    97787134.72746
  20695872.533   108757545.21449  20695874.793    84746144.13249
  23788307.572   125008409.40247  23788311.585    97409169.46747
  20527734.944   107873985.81549  20527737.054    84057659.91948
  21385187.125   112379922.93848  21385189.537    87568781.59348
  5  3 12 18 11  5.0000000  0  6G 2G 4G 5G 6G10G30
  20799723.276   109303282.36748  20799723.193    85171382.94149
  23883424.644   125508235.70847  23883428.188    97798625.62046
  20696856.282   108762714.84849  20696858.541    84750172.42049
  23785778.454   124995118.85946  23785782.466    97398813.21047
  20526450.879   107867238.03849  20526452.988    84052401.91648
  21383842.857   112372858.76248  21383845.263    87563277.04748
  5  3 12 18 11 10.0000000  0  6G 2G 4G 5G 6G10G30
  20801211.615   109311103.63948  20801211.532    85177477.44149
  23886225.163   125522952.38146  23886228.707    97810093.11946
  20697837.414   108767870.73149  20697839.674    84754189.99249
  23783243.711   124981798.69746  23783247.717    97388433.86847
  20525164.429   107860477.72949  20525166.538    84047134.14949
  21382495.929   112365780.57648  21382498.329    87557761.57848
  5  3 12 18 11 15.0000000  0  6G 2G 4G 5G 6G10G30
  20802725.013   109319056.56548  20802724.929    85183674.51849
  23889049.252   125537792.97647  23889052.796    97821657.19746
  20698845.242   108773166.90649  20698847.509    84758316.87949
  23780732.630   124968602.97247  23780736.644    97378151.50547
  20523904.929   107853859.01149  20523907.031    84041976.71048
  21381175.651   112358842.47049  21381178.051    87552355.26048
  5  3 12 18 11 20.0000000  0  6G 2G 4G 5G 6G10G30
  20804175.558   109326679.26648  20804175.482    85189614.28749
  23891809.086   125552295.90646  23891812.629    97832958.15946
  20699791.888   108778141.53149  20699794.156    84762193.20749
  23778157.353   124955069.85946  23778161.367    97367606.23947
  20522584.475   107846920.01149  20522586.577    84036569.70249
  21379794.137   112351582.56148  21379796.523    87546698.19648
  5  3 12 18 11 25.0000000  0  6G 2G 4G 5G 6G10G30
  20805680.505   109334587.81548  20805680.422    85195776.79849
  23894621.816   125567076.96346  23894625.350    97844475.87846
  20700794.576   108783410.69249  20700796.843    84766299.04549
  23775635.097   124941815.44247  23775639.110    97357278.14747
  20521320.323   107840276.81449  20521322.426    84031393.18249
  21378468.644   112344617.04948  21378471.030    87541270.52348
  5  3 12 18 11 30.0000000  0  6G 2G 4G 5G 6G10G30
  20807151.959   109342320.32548  20807151.876    85201802.12549
  23897399.638   125581674.51746  23897403.171    97855850.59046
  20701765.416   108788512.49349  20701767.684    84770274.47649
  23773078.005   124928377.76946  23773082.033    97346807.21847
  20520024.566   107833467.56849  20520026.662    84026087.27948
  21377111.254   112337483.95148  21377113.641    87535712.27348
  5  3 12 18 11 35.0000000  0  6G 2G 4G 5G 6G10G30
  20808648.527   109350184.84548  20808648.451    85207930.31849
  23900201.129   125596396.42247  23900204.663    97867322.19746
  20702763.040   108793755.00849  20702765.316    84774359.54849
  23770544.638   124915065.02446  23770548.653    97336433.69947
  20518755.825   107826800.31948  20518757.929    84020892.02648
  21375780.629   112330491.40448  21375783.010    87530263.52948
  5  3 12 18 11 40.0000000  0  6G 2G 4G 5G 6G10G30
  20810140.940   109358027.56048  20810140.871    85214041.53049
  23902997.024   125611088.88446  23903000.550    97878770.85646
  20703758.151   108798984.38449  20703760.426    84778434.38949
  23768005.793   124901723.30546  23768009.816    97326037.55547
  20517484.835   107820121.25349  20517486.939    84015687.56649
  21374447.437   112323485.49748  21374449.810    87524804.39448
  5  3 12 18 11 45.0000000  0  6G 2G 4G 5G 6G10G30
  20811687.847   109366156.57748  20811687.778    85220375.82449
  23905845.980   125626060.15546  23905849.504    97890436.75546
  20704809.415   108804508.78449  20704811.692    84782739.11549
  23765520.055   124888660.72647  23765524.080    97315858.94447
  20516270.240   107813738.51349  20516272.337    84010714.00748
  21373170.376   112316774.46348  21373172.743    87519575.01948
  5  3 12 18 11 50.0000000  0  6G 2G 4G 5G 6G10G30
  20813142.726   109373802.01948  20813142.657    85226333.30949
  23908601.449   125640540.24546  23908604.973    97901719.93746
  20705770.302   108809558.27849  20705772.586    84786673.78449
  23762940.945   124875107.44347  23762944.970    97305297.95047
  20514965.531   107806882.21948  20514967.628    84005371.44049
  21371802.905   112309588.38549  21371805.272    87513975.48548
  5  3 12 18 11 55.0000000  0  6G 2G 4G 5G 6G10G30
  20814681.427   109381887.98048  20814681.358    85232634.06349
  23911439.323   125655453.28146  23911442.853    97913340.45746
  20706816.682   108815057.01249  20706818.967    84790958.50849
  23760444.318   124861987.57847  23760448.350    97295074.68047
  20513746.561   107800476.48849  20513748.658    84000379.96349
  21370520.908   112302851.41849  21370523.276    87508725.89348
  5  3 12 18 12  0.0000000  0  6G 2G 4G 5G 6G10G30
  20816157.454   109389644.55248  20816157.385    85238678.14749
  23914213.048   125670029.33346  23914216.584    97924698.42547
  20707802.022   108820235.00649  20707804.306    84794993.30949
  23757883.618   124848531.16647  23757887.637    97284589.20647
  20512466.815   107793751.37949  20512468.912    83995139.61849
  21369177.843   112295793.59149  21369180.204    87503226.29948
  5  3 12 18 12  5.0000000  0  6G 2G 4G 5G 6G10G30
  20817629.428   109397379.79848  20817629.367    85244705.60449
  23916981.289   125684576.50646  23916984.826    97936033.87947
  20708784.964   108825400.40549  20708787.255    84799018.29049
  23755317.551   124835046.35946  23755321.570    97274081.56047
  20511184.926   107787015.04049  20511187.024    83989890.53049
  21367832.359   112288723.02449  21367834.712    87497716.76748
  5  3 12 18 12 10.0000000  0  6G 2G 4G 5G 6G10G30
  20819155.960   109405401.80948  20819155.898    85250956.52649
  23919802.665   125699402.87346  23919806.207    97947586.87146
  20709824.141   108830861.28649  20709826.440    84803273.51749
  23752804.722   124821841.32446  23752808.741    97263791.91247
  20509959.534   107780575.56149  20509961.624    83984872.75649
  21366543.083   112281947.80649  21366545.438    87492437.37448
  5  3 12 18 12 15.0000000  0  6G 2G 4G 5G 6G10G30
  20820649.192   109413248.79548  20820649.137    85257071.05949
  23922589.320   125714046.68747  23922592.870    97958997.60047
  20710831.661   108836155.87049  20710833.960    84807399.17449
  23750257.219   124808454.16746  23750261.238    97253360.37747
  20508702.750   107773971.14649  20508704.841    83979726.46949
  21365222.134   112275006.23449  21365224.488    87487028.36848
  5  3 12 18 12 20.0000000  0  6G 2G 4G 5G 6G10G30
  20822138.438   109421074.83848  20822138.390    85263169.27049
  23925370.511   125728661.94746  23925374.047    97970386.12047
  20711836.858   108841438.18549  20711839.158    84811515.26049
  23747704.390   124795038.99146  23747708.402    97242907.00447
  20507443.900   107767355.87749  20507445.991    83974571.71949
  21363898.852   112268052.30748  21363901.198    87481609.71748
  5  3 12 18 12 25.0000000  0  6G 2G 4G 5G 6G10G30
  20823653.025   109429034.07648  20823652.976    85269371.27949
  23928175.629   125743402.78647  23928179.180    97981872.44947
  20712869.047   108846862.37549  20712871.354    84815741.89749
  23745175.564   124781749.95546  23745179.577    97232551.91747
  20506212.322   107760883.89249  20506214.420    83969528.61149
  21362602.541   112261240.17948  21362604.888    87476301.57348
  5  3 12 18 12 30.0000000  0  6G 2G 4G 5G 6G10G30
  20825163.683   109436972.60448  20825163.635    85275557.14149
  23930975.357   125758115.39247  23930978.914    97993336.80047
  20713898.948   108852274.53949  20713901.255    84819959.17049
  23742641.431   124768433.12046  23742645.437    97222175.19347
  20504978.733   107754401.33549  20504980.824    83964477.27449
  21361303.950   112254416.03848  21361306.297    87470984.06248
  5  3 12 18 12 35.0000000  0  6G 2G 4G 5G 6G10G30
  20826670.423   109444890.57948  20826670.382    85281726.99049
  23933769.699   125772799.85346  23933773.256    98004779.25946
  20714926.591   108857674.84149  20714928.905    84824167.19449
  23740102.094   124755088.74946  23740106.107    97211776.96947
  20503743.160   107747908.38849  20503745.244    83959417.84449
  21360003.103   112247580.00749  21360005.443    87465657.28348
  5  3 12 18 12 40.0000000  0  6G 2G 4G 5G 6G10G30
  20828202.567   109452942.04748  20828202.533    85288000.85849
  23936588.029   125787610.27746  23936591.587    98016319.84947
  20715981.310   108863217.36349  20715983.625    84828486.03249
  23737586.785   124741870.86846  23737590.791    97201477.36047
  20502534.930   107741559.09549  20502537.014    83954470.34349
  21358729.308   112240886.17349  21358731.649    87460441.30848
  5  3 12 18 12 45.0000000  0  6G 2G 4G 5G 6G10G30
  20829672.222   109460665.17248  20829672.188    85294018.88249
  23939342.462   125802084.76246  23939346.032    98027598.62547
  20716975.180   108868440.24848  20716977.501    84832555.82249
  23735007.684   124728317.66346  23735011.691    97190916.43647
  20501266.148   107734891.63249  20501268.232    83949274.92249
  21357394.682   112233872.69748  21357397.016    87454976.27048
  5  3 12 18 12 50.0000000  0  6G 2G 4G 5G 6G10G30
  20831196.648   109468676.08248  20831196.621    85300261.14849
  23942150.193   125816839.58446  23942153.777    98039095.90247
  20718025.482   108873959.62149  20718027.804    84836856.63449
  23732482.014   124715045.20946  23732486.020    97180574.26947
  20500054.068   107728522.14149  20500056.153    83944311.69349
  21356116.472   112227155.71949  21356118.806    87449742.27648
  5  3 12 18 12 55.0000000  0  6G 2G 4G 5G 6G10G30
  20832717.248   109476666.88949  20832717.228    85306487.74949
  23944952.697   125831566.62247  23944956.302    98050571.46147
  20719073.625   108879467.61749  20719075.953    84841148.56849
  23729951.192   124701745.71246  23729955.206    97170211.03747
  20498840.113   107722142.73549  20498842.198    83939340.72249
  21354836.110   112220427.37049  21354838.437    87444499.41248
  5  3 12 18 13  0.0000000  0  6G 2G 4G 5G 6G10G30
  20834204.753   109484483.74948  20834204.734    85312578.80649
  23947720.648   125846112.33546  23947724.254    98061905.79447
  20720090.316   108884810.36849  20720092.638    84845311.75449
  23727385.922   124688265.25346  23727389.935    97159706.81047
  20497594.996   107715599.59849  20497597.074    83934242.17549
  21353524.315   112213533.80949  21353526.642    87439127.79848
  5  3 12 18 13  5.0000000  0  6G 2G 4G 5G 6G10G30
  20835717.773   109492434.72248  20835717.761    85318774.36649
  23950512.687   125860784.53446  23950516.314    98073338.65447
  20721134.185   108890295.93749  20721136.520    84849586.21649
  23724844.848   124674911.91246  23724848.867    97149301.62347
  20496377.339   107709200.79749  20496379.417    83929256.10549
  21352239.699   112206783.13749  21352242.019    87433867.54648
  5  3 12 18 13 10.0000000  0  6G 2G 4G 5G 6G10G30
  20837285.666   109500674.05748  20837285.661    85325194.62449
  23953358.148   125875737.50147  23953361.774    98084990.30647
  20722234.586   108896078.57949  20722236.914    84854092.17549
  23722357.327   124661840.02946  23722361.346    97139115.76647
  20495216.505   107703100.60649  20495218.583    83924502.71749
  21351011.625   112200329.59948  21351013.945    87428838.82048
  5  3 12 18 13 15.0000000  0  6G 2G 4G 5G 6G10G30
  20838791.232   109508585.82748  20838791.228    85331359.63749
  23956139.871   125890355.46146  23956143.510    98096380.89547
  20723274.318   108901542.40849  20723276.646    84858349.70549
  23719806.181   124648433.66246  23719810.207    97128669.24647
  20493995.301   107696683.13749  20493997.379    83919502.08949
  21349722.896   112193557.31549  21349725.210    87423561.72848
  5  3 12 18 13 20.0000000  0  6G 2G 4G 5G 6G10G30
  20840322.420   109516632.27448  20840322.415    85337629.59549
  23958945.759   125905100.63046  23958949.399    98107870.66747
  20724341.337   108907149.63449  20724343.672    84862718.96549
  23717279.334   124635155.05446  23717283.353    97118322.29447
  20492801.676   107690410.62549  20492803.747    83914614.42749
  21348461.481   112186928.49949  21348463.801    87418396.40648
  5  3 12 18 13 25.0000000  0  6G 2G 4G 5G 6G10G30
  20841820.663   109524505.56249  20841820.666    85343764.61949
  23961717.291   125919665.00447  23961720.938    98119219.50047
  20725377.074   108912592.43849  20725379.410    84866960.11049
  23714718.225   124621696.39845  23714722.250    97107835.03747
  20491577.064   107683975.24749  20491579.136    83909599.85249
  21347168.785   112180135.33749  21347171.106    87413103.03348
  5  3 12 18 13 30.0000000  0  6G 2G 4G 5G 6G10G30
  20843344.580   109532513.83549  20843344.591    85350004.83749
  23964513.094   125934356.95246  23964516.748    98130667.74847
  20726440.153   108918178.95349  20726442.496    84871313.23549
  23712181.477   124608365.82146  23712185.500    97097447.59647
  20490380.094   107677685.12949  20490382.159    83904698.46349
  21345903.443   112173485.98348  21345905.763    87407921.73048
  5  3 12 18 13 35.0000000  0  6G 2G 4G 5G 6G10G30
  20844864.919   109540503.23949  20844864.930    85356230.34049
  23967303.854   125949022.40147  23967307.528    98142095.33947
  20727501.301   108923755.32249  20727503.643    84875658.45649
  23709639.821   124595009.48946  23709643.844    97087040.09447
  20489181.494   107671386.43949  20489183.566    83899790.39349
  21344636.211   112166826.60149  21344638.525    87402732.60148
  5  3 12 18 13 40.0000000  0  6G 2G 4G 5G 6G10G30
  20846381.690   109548473.92049  20846381.708    85362441.25849
  23970089.600   125963661.62446  23970093.273    98153502.53147
  20728560.549   108929321.71149  20728562.899    84879995.90149
  23707093.289   124581627.46546  23707097.311    97076612.56047
  20487981.290   107665079.35949  20487983.355    83894875.79349
  21343367.091   112160157.36548  21343369.412    87397535.79748
  5  3 12 18 13 45.0000000  0  6G 2G 4G 5G 6G10G30
  20847924.221   109556579.97948  20847924.247    85368757.66749
  23972899.721   125978428.75746  23972903.409    98165009.34947
  20729647.227   108935032.20949  20729649.577    84884445.63549
  23704571.242   124568374.04946  23704575.277    97066285.22247
  20486808.830   107658918.00949  20486810.903    83890074.73449
  21342125.415   112153632.34149  21342127.735    87392451.36748
  5  3 12 18 13 50.0000000  0  6G 2G 4G 5G 6G10G30
  20849433.951   109564513.66348  20849433.983    85374939.75549
  23975675.557   125993015.93447  23975679.244    98176375.99247
  20730702.755   108940579.04649  20730705.098    84888767.84849
  23702015.050   124554941.35746  23702019.079    97055818.23647
  20485605.530   107652594.62249  20485607.595    83885147.42249
  21340852.617   112146943.80949  21340854.931    87387239.54148
  5  3 12 18 13 55.0000000  0  6G 2G 4G 5G 6G10G30
  20850969.514   109572583.06749  20850969.554    85381227.59749
  23978475.809   126007731.32747  23978479.504    98187842.52347
  20731785.774   108946270.32049  20731788.125    84893202.59949
  23699483.434   124541637.53246  23699487.469    97045451.59447
  20484430.016   107646417.31949  20484432.081    83880333.95149
  21339607.362   112140399.95048  21339609.676    87382140.43148
  5  3 12 18 14  0.0000000  0  6G 2G 4G 5G 6G10G30
  20852530.917   109580788.32648  20852530.956    85387621.31049
  23981300.479   126022575.03747  23981304.174    98199409.04347
  20732896.299   108952106.17049  20732898.651    84897750.01749
  23696976.319   124528462.71346  23696980.355    97035185.53547
  20483282.340   107640386.24149  20483284.405    83875634.41049
  21338389.645   112134000.83349  21338391.959    87377154.11648
  5  3 12 18 14  5.0000000  0  6G 2G 4G 5G 6G10G30
  20854030.292   109588667.56548  20854030.340    85393760.97149
  23984061.700   126037085.22546  23984065.401    98210715.65347
  20733946.446   108957624.72649  20733948.796    84902050.18849
  23694405.895   124514955.07346  23694409.923    97024660.11047
  20482074.593   107634039.51749  20482076.651    83870688.92149
  21337111.603   112127284.64648  21337113.917    87371920.71448
  5  3 12 18 14 10.0000000  0  6G 2G 4G 5G 6G10G30
  20855555.574   109596682.94849  20855555.630    85400006.71749
  23986847.360   126051723.96946  23986851.056    98222122.47447
  20735024.160   108963288.18449  20735026.518    84906463.27849
  23691860.059   124501576.67546  23691864.086    97014235.39547
  20480894.739   107627839.31149  20480896.798    83865857.58949
  21335861.156   112120713.53149  21335863.470    87366800.37748
  5  3 12 18 14 15.0000000  0  6G 2G 4G 5G 6G10G30
  20857136.085   109604988.61748  20857136.140    85406478.67249
  23989686.851   126066645.56247  23989690.539    98233749.68247
  20736158.794   108969250.66148  20736161.152    84911109.35349
  23689368.171   124488481.78146  23689372.198    97004031.59347
  20479772.090   107621939.78549  20479774.149    83861260.56049
  21334667.638   112114441.61549  21334669.952    87361913.18148
  5  3 12 18 14 20.0000000  0  6G 2G 4G 5G 6G10G30
  20858654.654   109612968.75249  20858654.716    85412696.95749
  23992462.978   126081234.17647  23992466.666    98245117.42747
  20737233.133   108974896.38449  20737235.498    84915508.61949
  23686813.067   124475054.61646  23686817.100    96993568.86147
  20478589.485   107615725.18549  20478591.538    83856418.02949
  21333413.897   112107853.19248  21333416.211    87356779.35148
  5  3 12 18 14 25.0000000  0  6G 2G 4G 5G 6G10G30
  20860199.228   109621085.57349  20860199.297    85419021.75849
  23995263.684   126095951.89646  23995267.373    98256585.76247
  20738335.149   108980687.48849  20738337.508    84920021.16649
  23684282.653   124461757.32746  23684286.672    96983207.36947
  20477434.878   107609657.68149  20477436.931    83851690.10349
  21332187.878   112101410.38948  21332190.199    87351758.97648
  5  3 12 18 14 30.0000000  0  6G 2G 4G 5G 6G10G30
  20861711.228   109629031.12548  20861711.305    85425213.08349
  23998030.416   126110490.88746  23998034.105    98267914.78647
  20739406.236   108986316.08949  20739408.602    84924407.08449
  23681718.378   124448281.97346  23681722.403    96972707.08547
  20476249.669   107603429.36649  20476251.715    83846836.87649
  21330930.969   112094805.35449  21330933.277    87346612.21648
  5  3 12 18 14 35.0000000  0  6G 2G 4G 5G 6G10G30
  20863219.939   109636959.45648  20863220.023    85431391.00249
  24000792.366   126125005.18846  24000796.048    98279224.66947
  20740475.723   108991936.24749  20740478.095    84928786.41849
  23679149.518   124434782.64546  23679153.535    96962188.15747
  20475063.178   107597194.31448  20475065.231    83841978.39149
  21329672.524   112088192.18048  21329674.838    87341459.08848
  5  3 12 18 14 40.0000000  0  6G 2G 4G 5G 6G10G30
  20864813.342   109645332.84548  20864813.419    85437915.72449
  24003637.626   126139957.03747  24003641.315    98290875.43647
  20741631.556   108998010.18848  20741633.928    84933519.36149
  23676664.085   124421721.63645  23676668.115    96952010.74647
  20473963.375   107591414.81048  20473965.428    83837474.88049
  21328500.473   112082033.00648  21328502.787    87336659.73448
  5  3 12 18 14 45.0000000  0  6G 2G 4G 5G 6G10G30
  20866315.642   109653227.45548  20866315.727    85444067.36149
  24006390.347   126154422.62347  24006394.037    98302147.30947
  20742697.940   109003614.10749  20742700.312    84937886.05749
  23674086.248   124408175.17045  23674090.276    96941455.08447
  20472774.463   107585167.03548  20472776.510    83832606.49249
  21327239.051   112075404.15948  21327241.365    87331494.39248
  5  3 12 18 14 50.0000000  0  6G 2G 4G 5G 6G10G30
  20867844.071   109661259.36849  20867844.156    85450325.99249
  24009167.797   126169018.09247  24009171.493    98313520.37047
  20743792.129   109009364.07849  20743794.501    84942366.54749
  23671533.257   124394759.26545  23671537.285    96931001.16647
  20471613.677   107579067.09848  20471615.725    83827853.30049
  21326005.461   112068921.69348  21326007.775    87326443.13848
  5  3 12 18 14 55.0000000  0  6G 2G 4G 5G 6G10G30
  20869398.645   109669428.71248  20869398.738    85456691.71149
  24011969.932   126183743.47747  24011973.629    98324994.71047
  20744914.140   109015260.25349  20744916.513    84946960.96549
  23669005.155   124381474.09346  23669009.188    96920649.09747
  20470481.048   107573115.12449  20470483.089    83823215.40849
  21324799.759   112062585.72149  21324802.074    87321506.02648
  5  3 12 18 15  0.0000000  0  6G 2G 4G 5G 6G10G30
  20870950.104   109677581.65449  20870950.197    85463044.64849
  24014767.524   126198444.88847  24014771.221    98336450.35147
  20746034.689   109021148.77949  20746037.061    84951549.42349
  23666472.657   124368165.79046  23666476.704    96910278.99647
  20469347.318   107567157.29949  20469349.359    83818572.94349
  21323592.681   112056242.42049  21323594.989    87316563.18348
  5  3 12 18 15  5.0000000  0  6G 2G 4G 5G 6G10G30
  20872498.449   109685718.25948  20872498.542    85469384.86349
  24017560.618   126213122.63546  24017564.329    98347887.53547
  20747153.792   109027029.70749  20747156.165    84956131.96849
  23663935.756   124354834.47446  23663939.809    96899890.99347
  20468212.476   107561193.69549  20468214.509    83813925.98549
  21322384.202   112049891.88049  21322386.516    87311614.72148
  5  3 12 18 15 10.0000000  0  6G 2G 4G 5G 6G10G30
  20874043.714   109693838.68249  20874043.814    85475712.46149
  24020349.215   126227776.74746  24020352.933    98359306.31047
  20748271.490   109032903.24649  20748273.869    84960708.74849
  23661394.525   124341480.27546  23661398.584    96889485.13347
  20467076.566   107555224.44849  20467078.594    83809274.63349
  21321174.385   112043534.24949  21321176.693    87306660.72748
  5  3 12 18 15 15.0000000  0  6G 2G 4G 5G 6G10G30
  20875585.927   109701943.03749  20875586.028    85482027.53849
  24023133.305   126242407.23847  24023137.024    98370706.69847
  20749387.799   109038769.46149  20749390.179    84965279.81949
  23658848.970   124328103.35746  23658853.022    96879061.57647
  20465939.614   107549249.69249  20465941.641    83804618.97249
  21319963.253   112037169.70949  21319965.561    87301701.34648
  5  3 12 18 15 20.0000000  0  6G 2G 4G 5G 6G10G30
  20877125.096   109710031.42349  20877125.204    85488330.17549
  24025912.975   126257014.31946  24025916.722    98382088.78447
  20750502.733   109044628.47548  20750505.112    84969845.28349
  23656299.101   124314703.82946  23656303.152    96868620.41047
  20464801.619   107543269.55149  20464803.647    83799959.13549
  21318750.816   112030798.34349  21318753.125    87296736.65248
  5  3 12 18 15 25.0000000  0  6G 2G 4G 5G 6G10G30
  20878661.273   109718104.05648  20878661.375    85494620.53949
  24028688.175   126271598.12446  24028691.922    98393452.79647
  20751616.330   109050480.46949  20751618.709    84974405.27849
  23653744.994   124301281.90946  23653749.059    96858161.76347
  20463662.657   107537284.23549  20463664.679    83795295.25449
  21317537.116   112024420.33649  21317539.423    87291766.77948
  5  3 12 18 15 30.0000000  0  6G 2G 4G 5G 6G10G30
  20880253.069   109726468.97249  20880253.180    85501138.64949
  24031517.585   126286466.70946  24031521.332    98405038.69447
  20752787.215   109056633.48149  20752789.596    84979199.83049
  23651245.207   124288145.62846  23651249.264    96847925.73947
  20462581.321   107531601.81049  20462583.337    83790867.40049
  21316380.782   112018343.79149  21316383.083    87287031.82048
  5  3 12 18 15 35.0000000  0  6G 2G 4G 5G 6G10G30
  20881783.266   109734510.21148  20881783.377    85507404.55149
  24034283.978   126301004.23547  24034287.726    98416366.64547
  20753898.171   109062471.62249  20753900.550    84983749.03349
  23648682.575   124274678.99946  23648686.631    96837432.27747
  20461440.424   107525606.38649  20461442.439    83786195.64849
  21315164.606   112011952.74349  21315166.907    87282051.78248
  5  3 12 18 15 40.0000000  0  6G 2G 4G 5G 6G10G30
  20883339.826   109742689.98648  20883339.943    85513778.39849
  24037075.341   126315672.82046  24037079.096    98427796.68547
  20755037.164   109068457.04249  20755039.544    84988412.99249
  23646145.066   124261344.32946  23646149.127    96827041.62447
  20460327.912   107519760.12449  20460329.933    83781640.12249
  21313976.543   112005709.42949  21313978.850    87277186.86048
  5  3 12 18 15 45.0000000  0  6G 2G 4G 5G 6G10G30
  20884893.471   109750854.41848  20884893.589    85520140.28949
  24039862.364   126330318.60346  24039866.134    98439208.95047
  20756174.899   109074435.87849  20756177.286    84993071.82449
  23643603.403   124247987.70746  23643607.478    96816633.84247
  20459214.514   107513909.14948  20459216.530    83777080.92149
  21312787.316   111999459.99748  21312789.617    87272317.17848
  5  3 12 18 15 50.0000000  0  6G 2G 4G 5G 6G10G30
  20886444.194   109759003.55349  20886444.319    85526490.26849
  24042645.038   126344941.62047  24042648.807    98450603.50047
  20757311.404   109080408.22549  20757313.791    84997725.59149
  23641057.528   124234609.20046  23641061.590    96806209.07147
  20458100.229   107508053.57449  20458102.237    83772518.14249
  21311596.929   111993204.50249  21311599.229    87267442.77148
  5  3 12 18 15 55.0000000  0  6G 2G 4G 5G 6G10G30
  20888021.351   109767291.53748  20888021.483    85532948.43049
  24045452.733   126359696.03447  24045456.510    98462100.41947
  20758475.995   109086528.18849  20758478.382    85002494.39649
  23638536.844   124221362.94846  23638540.905    96795887.32147
  20457014.402   107502347.51248  20457016.410    83768071.86149
  21310434.729   111987097.10348  21310437.024    87262683.76548
  5  3 12 18 16  0.0000000  0  6G 2G 4G 5G 6G10G30
  20889566.357   109775410.53649  20889566.484    85539274.91649
  24048226.834   126374274.06146  24048230.617    98473459.92247
  20759610.092   109092487.91149  20759612.479    85007138.33449
  23635982.760   124207941.17746  23635986.821    96785428.80447
  20455898.453   107496483.15948  20455900.468    83763502.23349
  21309242.118   111980829.92148  21309244.412    87257800.25248
  5  3 12 18 16  5.0000000  0  6G 2G 4G 5G 6G10G30
  20891137.818   109783668.61749  20891137.951    85545709.78349
  24051025.998   126388983.73846  24051029.782    98484922.00347
  20760772.326   109098595.48949  20760774.719    85011897.48249
  23633453.853   124194651.86646  23633457.899    96775073.54347
  20454810.997   107490768.57349  20454813.006    83759049.32049
  21308077.745   111974711.10148  21308080.033    87253032.34648
  5  3 12 18 16 10.0000000  0  6G 2G 4G 5G 6G10G30
  20892677.151   109791757.86649  20892677.291    85552013.09049
  24053791.599   126403517.09847  24053795.382    98496246.70547
  20761904.104   109104543.02449  20761906.497    85016531.92449
  23630891.615   124181187.21546  23630895.662    96764581.60847
  20453693.452   107484895.86549  20453695.454    83754473.19449
  21306883.010   111968432.75448  21306885.298    87248140.13448
  5  3 12 18 16 15.0000000  0  6G 2G 4G 5G 6G10G30
  20894242.999   109799986.42349  20894243.133    85558424.95149
  24056582.303   126418182.28947  24056586.100    98507674.10647
  20763064.051   109110638.61749  20763066.451    85021281.74049
  23628354.617   124167855.32946  23628358.671    96754193.15047
  20452604.462   107479173.18449  20452606.463    83750013.95949
  21305716.557   111962302.97249  21305718.852    87243363.67048
  5  3 12 18 16 20.0000000  0  6G 2G 4G 5G 6G10G30
  20895806.047   109808200.29648  20895806.189    85564825.37249
  24059368.787   126432825.41946  24059372.578    98519084.35947
  20764222.888   109116728.31849  20764225.295    85026026.95149
  23625813.614   124154502.29646  23625817.674    96743788.18947
  20451514.726   107473446.58449  20451516.722    83745551.68049
  21304549.083   111956167.82449  21304551.364    87238583.03548
  5  3 12 18 16 25.0000000  0  6G 2G 4G 5G 6G10G30
  20897366.340   109816399.65848  20897366.481    85571214.47749
  24062151.158   126447446.66146  24062154.962    98530477.47747
  20765380.640   109122812.34249  20765383.046    85030767.74849
  23623268.595   124141128.19546  23623272.661    96733366.82147
  20450424.280   107467716.25049  20450426.275    83741086.48549
  21303380.616   111950027.52149  21303382.897    87233798.39148
  5  3 12 18 16 30.0000000  0  6G 2G 4G 5G 6G10G30
  20898923.885   109824584.64348  20898924.040    85577592.38849
  24064929.334   126462046.01147  24064933.138    98541853.57847
  20766537.320   109128890.73649  20766539.727    85035504.16249
  23620719.598   124127733.25146  23620723.665    96722929.23347
  20449333.128   107461982.27148  20449335.123    83736618.46249
  21302211.182   111943882.13548  21302213.462    87229009.78148
  5  3 12 18 16 35.0000000  0  6G 2G 4G 5G 6G10G30
  20900508.020   109832909.30149  20900508.169    85584079.13149
  24067732.662   126476777.56647  24067736.459    98553332.71147
  20767722.252   109135117.59649  20767724.658    85040356.25749
  23618195.960   124114471.44346  23618200.020    96712595.35947
  20448270.626   107456398.75448  20448272.629    83732267.66249
  21301070.106   111937885.76948  21301072.386    87224337.29548
  5  3 12 18 16 40.0000000  0  6G 2G 4G 5G 6G10G30
  20902060.146   109841065.78048  20902060.303    85590434.82949
  24070502.595   126491333.51046  24070506.407    98564674.96447
  20768876.846   109141185.03049  20768879.252    85045084.12849
  23615639.068   124101034.97647  23615643.134    96702125.40247
  20447178.150   107450657.81848  20447180.146    83727794.22149
  21299898.813   111931730.58348  21299901.094    87219541.04948
  5  3 12 18 16 45.0000000  0  6G 2G 4G 5G 6G10G30
  20903638.909   109849362.20248  20903639.065    85596899.56749
  24073297.738   126506022.05246  24073301.550    98576120.57847
  20770059.742   109147401.15749  20770062.155    85049927.85549
  23613107.583   124087731.93646  23613111.644    96691759.40247
  20446114.369   107445067.61049  20446116.358    83723438.22149
  21298755.930   111925724.69148  21298758.210    87214861.13348
  5  3 12 18 16 50.0000000  0  6G 2G 4G 5G 6G10G30
  20905215.006   109857644.64848  20905215.170    85603353.42249
  24076088.772   126520689.12946  24076092.571    98587549.49947
  20771241.647   109153612.08349  20771244.055    85054767.53649
  23610572.214   124074408.48247  23610576.282    96681377.48947
  20445049.985   107439474.23748  20445051.982    83719079.74649
  21297612.154   111919714.17048  21297614.434    87210177.62248
  5  3 12 18 16 55.0000000  0  6G 2G 4G 5G 6G10G30
  20906817.760   109866067.17949  20906817.924    85609916.43049
  24078905.102   126535488.94847  24078908.908    98599081.80147
  20772451.879   109159971.92649  20772454.292    85059723.25849
  23608062.281   124061218.69146  23608066.341    96671099.73147
  20444014.319   107434031.80548  20444016.309    83714838.90049
  21296496.850   111913853.21148  21296499.130    87205610.64048
  5  3 12 18 17  0.0000000  0  6G 2G 4G 5G 6G10G30
  20908359.286   109874167.92148  20908359.458    85616228.69249
  24081658.778   126549959.55046  24081662.584    98610357.58147
  20773602.554   109166018.72948  20773604.968    85064435.05049
  23605489.868   124047700.66846  23605493.929    96660566.22747
  20442919.486   107428278.41848  20442921.477    83710355.74549
  21295322.095   111907679.79748  21295324.368    87200800.18548
  5  3 12 18 17  5.0000000  0  6G 2G 4G 5G 6G10G30
  20909927.511   109882408.96748  20909927.683    85622650.27849
  24084437.742   126564563.04346  24084441.542    98621736.92047
  20774781.592   109172214.61949  20774784.014    85069263.01449
  23602942.945   124034316.52746  23602946.999    96650137.03747
  20441853.414   107422676.20449  20441855.404    83705990.38849
  21294175.824   111901656.13548  21294178.097    87196106.42948
  5  3 12 18 17 10.0000000  0  6G 2G 4G 5G 6G10G30
  20911522.426   109890790.30148  20911522.598    85629181.19049
  24087242.040   126579299.51046  24087245.854    98633219.82747
  20775989.014   109178559.63449  20775991.429    85074207.17849
  23600421.509   124021066.32146  23600425.563    96639812.20947
  20440816.109   107417225.16049  20440818.099    83701742.82949
  21293058.061   111895782.25049  21293060.327    87191529.37848
  5  3 12 18 17 15.0000000  0  6G 2G 4G 5G 6G10G30
  20913056.172   109898850.19048  20913056.351    85635461.62149
  24089983.692   126593707.05146  24089987.506    98644446.49647
  20777136.931   109184591.97849  20777139.353    85078907.70549
  23597837.674   124007488.24047  23597841.721    96629231.90347
  20439719.709   107411463.53749  20439721.692    83697253.25549
  21291880.919   111889596.36049  21291883.185    87186709.20948
  5  3 12 18 17 20.0000000  0  6G 2G 4G 5G 6G10G30
  20914646.007   109907204.79948  20914646.187    85641971.70349
  24092780.041   126608401.93346  24092783.854    98655897.04446
  20778342.592   109190927.76749  20778345.013    85083844.68149
  23595308.693   123994198.41946  23595312.741    96618876.21347
  20438681.449   107406007.47749  20438683.433    83693001.78949
  21290761.653   111883714.60948  21290763.919    87182126.03348
  5  3 12 18 17 25.0000000  0  6G 2G 4G 5G 6G10G30
  20916262.635   109915700.20348  20916262.815    85648591.49249
  24095601.785   126623230.17447  24095605.592    98667451.49347
  20779576.725   109197413.17849  20779579.153    85088898.24749
  23592805.321   123981043.07646  23592809.382    96608625.28347
  20437672.064   107400703.15449  20437674.048    83688868.55749
  21289671.000   111877983.18949  21289673.266    87177659.99348
  5  3 12 18 17 30.0000000  0  6G 2G 4G 5G 6G10G30
  20917818.142   109923874.41749  20917818.323    85654961.00549
  24098361.009   126637729.89946  24098364.822    98678749.95447
  20780751.412   109203586.20049  20780753.839    85093708.39049
  23590239.597   123967560.23446  23590243.657    96598119.19647
  20436603.647   107395088.55549  20436605.625    83684493.54349
  21288521.027   111871940.06948  21288523.293    87172951.07548
  5  3 12 18 17 35.0000000  0  6G 2G 4G 5G 6G10G30
  20919400.470   109932189.64048  20919400.657    85661440.40149
  24101145.639   126652363.23046  24101149.452    98690152.55147
  20781954.598   109209908.98649  20781957.033    85098635.23549
  23587699.496   123954211.97346  23587703.550    96587717.97447
  20435564.130   107389625.85749  20435566.100    83680236.89749
  21287399.687   111866047.41949  21287401.953    87168359.40648
  5  3 12 18 17 40.0000000  0  6G 2G 4G 5G 6G10G30
  20920980.338   109940491.86948  20920980.526    85667909.66949
  24103926.372   126666976.07846  24103930.178    98701539.18946
  20783156.988   109216227.56149  20783159.417    85103558.79849
  23585155.717   123940844.35446  23585159.776    96577301.64547
  20434524.216   107384161.10249  20434526.179    83675978.65549
  21286277.698   111860151.33049  21286279.957    87163765.05448
  5  3 12 18 17 45.0000000  0  6G 2G 4G 5G 6G10G30
  20922557.747   109948781.21148  20922557.942    85674368.89349
  24106703.268   126681568.73746  24106707.082    98712910.08547
  20784358.592   109222542.03149  20784361.027    85108479.15849
  23582608.289   123927457.56347  23582612.340    96566870.38547
  20433483.937   107378694.43149  20433485.900    83671718.91849
  21285155.074   111854251.89949  21285157.340    87159168.09348
  5  3 12 18 17 50.0000000  0  6G 2G 4G 5G 6G10G30
  20924162.041   109957211.79948  20924162.229    85680938.17949
  24109505.646   126696295.20446  24109509.467    98724385.22447
  20785588.745   109229006.53049  20785591.181    85113516.43249
  23580086.530   123914205.66347  23580090.588    96556544.23147
  20432472.624   107373379.94149  20432474.580    83667577.76048
  21284061.128   111848503.23849  21284063.394    87154688.62748
  5  3 12 18 17 55.0000000  0  6G 2G 4G 5G 6G10G30
  20925734.614   109965475.72548  20925734.809    85687377.59949
  24112274.902   126710847.71046  24112278.721    98735724.82746
  20786788.867   109235313.17949  20786791.303    85118430.69949
  23577531.843   123900780.81647  23577535.886    96546083.34147
  20431431.686   107367909.80949  20431433.642    83663315.32749
  21282937.312   111842597.51149  21282939.570    87150086.75848
  5  3 12 18 18  0.0000000  0  6G 2G 4G 5G 6G10G30
  20927304.806   109973727.10849  20927305.008    85693807.24149
  24115040.395   126725380.28946  24115044.222    98747048.87146
  20787988.270   109241616.08549  20787990.713    85123342.05349
  23574973.604   123887337.14947  23574977.648    96535607.75147
  20430390.459   107362438.12449  20430392.409    83659051.68149
  21281812.928   111836688.86449  21281815.179    87145482.62848
  5  3 12 18 18  5.0000000  0  6G 2G 4G 5G 6G10G30
  20928901.941   109982120.11148  20928902.144    85700347.24349
  24117831.366   126740047.12647  24117835.179    98758477.62346
  20789216.297   109248069.41149  20789218.740    85128370.61849
  23572441.102   123874028.82247  23572445.138    96525237.63947
  20429378.267   107357119.05249  20429380.209    83654906.95749
  21280717.307   111830931.34149  21280719.558    87140996.24448
  5  3 12 18 18 10.0000000  0  6G 2G 4G 5G 6G10G30
  20930496.737   109990500.78848  20930496.933    85706877.64049
  24120618.657   126754694.25246  24120622.477    98769890.92446
  20790443.657   109254519.23449  20790446.101    85133396.45549
  23569905.070   123860701.91747  23569909.099    96514853.04947
  20428365.827   107351798.67249  20428367.769    83650761.21349
  21279621.181   111825171.15649  21279623.432    87136507.79148
  5  3 12 18 18 15.0000000  0  6G 2G 4G 5G 6G10G30
  20932059.910   109998715.28948  20932060.108    85713278.54949
  24123372.927   126769167.88546  24123376.753    98781169.03746
  20791641.073   109260811.66249  20791643.516    85138299.64049
  23567336.231   123847202.54346  23567340.253    96504334.05447
  20427323.865   107346323.12649  20427325.806    83646494.55249
  21278495.262   111819254.41249  21278497.506    87131897.34248
  5  3 12 18 18 20.0000000  0  6G 2G 4G 5G 6G10G30
  20933650.097   110007071.74948  20933650.296    85719790.07049
  24126152.735   126783776.00046  24126156.546    98792552.01346
  20792867.168   109267254.83649  20792869.612    85143320.29649
  23564793.201   123833838.86447  23564797.217    96493920.80647
  20426311.018   107341000.57849  20426312.953    83642347.11849
  21277398.176   111813489.22049  21277400.420    87127404.99048
  5  3 12 18 18 25.0000000  0  6G 2G 4G 5G 6G10G30
  20935267.310   110015570.25648  20935267.514    85726412.27849
  24128958.226   126798518.95246  24128962.037    98804040.02946
  20794121.964   109273848.83549  20794124.414    85148458.47149
  23562276.017   123820611.00347  23562280.025    96483613.39047
  20425327.301   107335831.11049  20425329.229    83638318.96449
  21276329.962   111807875.71549  21276332.206    87123030.83448
  5  3 12 18 18 30.0000000  0  6G 2G 4G 5G 6G10G30
  20936852.973   110023902.94048  20936853.178    85732905.27349
  24131730.753   126813088.65046  24131734.565    98815393.03647
  20795346.886   109280285.84349  20795349.337    85153474.32549
  23559726.079   123807211.05247  23559730.073    96473171.88847
  20424314.129   107330506.88749  20424316.058    83634170.22749
  21275232.029   111802106.06949  21275234.266    87118535.01448
  5  3 12 18 18 35.0000000  0  6G 2G 4G 5G 6G10G30
  20938436.417   110032223.96748  20938436.623    85739389.18749
  24134499.673   126827639.36246  24134503.478    98826731.24246
  20796571.263   109286719.95449  20796573.714    85158487.91149
  23557172.751   123793793.25246  23557176.752    96462716.46347
  20423300.850   107325182.07249  20423302.772    83630021.02449
  21274133.725   111796334.41249  21274135.962    87114037.61249
  5  3 12 18 18 40.0000000  0  6G 2G 4G 5G 6G10G30
  20940017.664   110040533.47348  20940017.870    85745864.12849
  24137265.018   126842171.13046  24137268.837    98838054.64146
  20797795.110   109293151.31249  20797797.560    85163499.35949
  23554616.027   123780357.70146  23554620.015    96452247.24047
  20422287.476   107319856.78849  20422289.399    83625871.46048
  21273035.059   111790560.85349  21273037.304    87109538.72748
  5  3 12 18 18 45.0000000  0  6G 2G 4G 5G 6G10G30
  20941626.034   110048985.51749  20941626.248    85752450.13449
  24140056.040   126856838.11145  24140059.852    98849483.47546
  20799047.754   109299734.00149  20799050.205    85168628.72849
  23552085.255   123767058.47046  23552089.242    96441884.21347
  20421303.344   107314685.13548  20421305.266    83621841.60249
  21271965.343   111784939.52249  21271967.588    87105158.48348
  5  3 12 18 18 50.0000000  0  6G 2G 4G 5G 6G10G30
  20943202.954   110057272.25549  20943203.168    85758907.33049
  24142814.204   126871332.39245  24142818.017    98860777.73346
  20800270.616   109306160.15749  20800273.074    85173636.11449
  23549521.870   123753587.75947  23549525.857    96431387.54747
  20420289.865   107309359.26949  20420291.780    83617691.57749
  21270866.026   111779162.60449  21270868.264    87100656.99848
  5  3 12 18 18 55.0000000  0  6G 2G 4G 5G 6G10G30
  20944807.035   110065701.72748  20944807.249    85765475.74249
  24145598.177   126885962.08246  24145602.004    98872177.44246
  20801522.323   109312737.89049  20801524.781    85178761.61349
  23546984.451   123740253.62347  23546988.424    96420997.33847
  20419305.664   107304187.29049  20419307.580    83613661.47349
  21269795.728   111773538.17949  21269797.966    87096274.33648
  5  3 12 18 19  0.0000000  0  6G 2G 4G 5G 6G10G30
  20946438.301   110074274.08948  20946438.523    85772155.50449
  24148407.923   126900727.39746  24148411.742    98883682.88346
  20802802.898   109319467.32749  20802805.350    85184005.32949
  23544473.072   123727056.26847  23544477.037    96410713.69347
  20418350.775   107299169.34749  20418352.691    83609751.39349
  21268754.490   111768066.37149  21268756.721    87092010.58148
  5  3 12 18 19  5.0000000  0  6G 2G 4G 5G 6G10G30
  20948038.177   110082681.46048  20948038.400    85778706.69949
  24151184.891   126915320.36646  24151188.711    98895054.01546
  20804053.740   109326040.57649  20804056.191    85189127.34449
  23541929.119   123713687.74047  23541933.084    96400296.66047
  20417366.611   107293997.53048  20417368.527    83605721.40649
  21267683.699   111762439.32848  21267685.931    87087625.87648
  5  3 12 18 19 10.0000000  0  6G 2G 4G 5G 6G10G30
  20949635.981   110091077.97548  20949636.203    85785249.43749
  24153958.391   126929895.11446  24153962.225    98906410.93546
  20805304.208   109332611.79649  20805306.659    85194247.77049
  23539381.933   123700302.21847  23539385.891    96389866.39447
  20416382.503   107288826.00448  20416384.405    83601691.65649
  21266612.696   111756811.20048  21266614.929    87083240.33148
  5  3 12 18 19 15.0000000  0  6G 2G 4G 5G 6G10G30
  20951231.744   110099463.74049  20951231.968    85791783.79549
  24156728.443   126944451.83746  24156732.278    98917753.83646
  20806554.298   109339181.06349  20806556.742    85199366.68349
  23536831.545   123686899.80347  23536835.495    96379422.95047
  20415398.462   107283654.86748  20415400.364    83597662.20349
  21265541.503   111751182.07348  21265543.729    87078854.00848
  5  3 12 18 19 20.0000000  0  6G 2G 4G 5G 6G10G30
  20952854.769   110107992.79049  20952854.992    85798429.81049
  24159524.381   126959144.46446  24159528.224    98929202.61046
  20807833.334   109345902.41349  20807835.786    85204604.09049
  23534307.250   123673634.57947  23534311.187    96369086.42447
  20414443.815   107278638.19748  20414445.718    83593753.11849
  21264499.443   111745705.98249  21264501.677    87074586.91748
  5  3 12 18 19 25.0000000  0  6G 2G 4G 5G 6G10G30
  20954446.477   110116357.21348  20954446.709    85804947.52849
  24162287.553   126973665.12346  24162291.381    98940517.43646
  20809082.721   109352467.95549  20809085.166    85209720.09349
  23531750.466   123660198.61847  23531754.396    96358616.85547
  20413459.986   107273468.10848  20413461.882    83589724.47549
  21263427.929   111740075.13649  21263430.155    87070199.24548
  5  3 12 18 19 30.0000000  0  6G 2G 4G 5G 6G10G30
  20956036.170   110124711.10649  20956036.395    85811457.05949
  24165047.388   126988167.93446  24165051.223    98951818.27546
  20810331.765   109359031.75949  20810334.217    85214834.74749
  23529190.526   123646746.04447  23529194.450    96348134.33347
  20412476.274   107268298.69849  20412478.177    83585696.36849
  21262356.272   111734443.57349  21262358.505    87065811.01948
  5  3 12 18 19 35.0000000  0  6G 2G 4G 5G 6G10G30
  20957653.188   110133208.59248  20957653.420    85818078.47449
  24167833.121   127002807.09246  24167836.956    98963225.41846
  20811609.815   109365747.95449  20811612.267    85220068.14749
  23526656.757   123633431.03047  23526660.667    96337759.01347
  20411522.017   107263284.07548  20411523.914    83581788.88049
  21261313.803   111728965.39449  21261316.029    87061542.31648
  5  3 12 18 19 40.0000000  0  6G 2G 4G 5G 6G10G30
  20959268.256   110141695.79749  20959268.487    85824691.87649
  24170615.512   127017428.59446  24170619.340    98974618.78546
  20812887.593   109372462.69249  20812890.038    85225300.40649
  23524119.877   123620099.60047  23524123.788    96327370.88247
  20410567.952   107258270.39649  20410569.849    83577882.11349
  21260271.254   111723486.76049  21260273.480    87057273.25348
  5  3 12 18 19 45.0000000  0  6G 2G 4G 5G 6G10G30
  20960881.363   110150172.76749  20960881.595    85831297.31549
  24173394.578   127032032.58846  24173398.400    98985998.50646
  20814165.084   109379175.98249  20814167.535    85230531.54549
  23521579.872   123606751.91347  23521583.770    96316970.12147
  20409614.062   107253257.70049  20409615.959    83573976.12349
  21259228.625   111718007.74248  21259230.851    87053003.89348
  5  3 12 18 19 50.0000000  0  6G 2G 4G 5G 6G10G30
  20962492.562   110158639.61048  20962492.794    85837894.84149
  24176170.309   127046619.06346  24176174.130    98997364.56346
  20815442.339   109385887.93949  20815444.784    85235761.63349
  23519036.804   123593388.00046  23519040.700    96306556.67747
  20408660.383   107248246.08549  20408662.274    83570070.97449
  21258185.944   111712528.44649  21258188.163    87048734.32348
  5  3 12 18 19 55.0000000  0  6G 2G 4G 5G 6G10G30
  20964101.855   110167096.53548  20964102.081    85844484.66449
  24178942.748   127061188.39146  24178946.556    99008717.31246
  20816719.365   109392598.76149  20816721.811    85240990.84449
  23516490.691   123580008.11346  23516494.580    96296130.80347
  20407706.954   107243235.81149  20407708.844    83566166.87149
  21257143.256   111707049.05349  21257145.468    87044464.66148
  5  3 12 18 20  0.0000000  0  6G 2G 4G 5G 6G10G30
  20965738.543   110175697.32448  20965738.776    85851186.56349
  24181741.202   127075894.26946  24181745.009    99020176.41246
  20818025.451   109399462.28549  20818027.895    85246339.04249
  23513970.820   123566766.10446  23513974.710    96285812.35747
  20406783.055   107238380.69049  20406784.939    83562383.66749
  21256129.831   111701723.46749  21256132.036    87040314.85448
  5  3 12 18 20  5.0000000  0  6G 2G 4G 5G 6G10G30
  20967344.043   110184134.28448  20967344.276    85857760.81749
  24184507.099   127090429.00246  24184510.906    99031502.14546
  20819302.032   109406170.76749  20819304.484    85251566.42849
  23511418.613   123553354.26147  23511422.490    96275361.59947
  20405830.121   107233373.02249  20405832.013    83558481.59149
  21255087.108   111696243.92349  21255089.313    87036045.07848
  5  3 12 18 20 10.0000000  0  6G 2G 4G 5G 6G10G30
  20968947.662   110192561.36048  20968947.895    85864327.36949
  24187269.660   127104946.48447  24187273.448    99042814.51146
  20820578.407   109412878.16449  20820580.859    85256792.97249
  23508863.395   123539926.52847  23508867.272    96264898.43947
  20404877.457   107228366.73649  20404879.342    83554580.59449
  21254044.371   111690764.39349  21254046.568    87031775.33948
  5  3 12 18 20 15.0000000  0  6G 2G 4G 5G 6G10G30
  20970578.743   110201132.75048  20970578.976    85871006.37449
  24190058.384   127119601.04546  24190062.193    99054233.58146
  20821883.925   109419738.67449  20821886.377    85262138.81649
  23506334.492   123526637.08647  23506338.357    96254543.04847
  20403954.403   107223516.05549  20403956.289    83550800.84549
  21253031.009   111685439.08049  21253033.200    87027625.73348
  5  3 12 18 20 20.0000000  0  6G 2G 4G 5G 6G10G30
  20972178.664   110209540.38648  20972178.903    85877557.77449
  24192814.508   127134084.54046  24192818.324    99065519.41146
  20823159.948   109426444.21949  20823162.400    85267363.92049
  23503773.285   123513177.94647  23503777.136    96244055.43547
  20403002.338   107218512.94949  20403004.223    83546902.32949
  21251988.358   111679959.97149  21251990.547    87023356.30848
  5  3 12 18 20 25.0000000  0  6G 2G 4G 5G 6G10G30
  20973806.083   110218092.50248  20973806.323    85884221.75749
  24195596.716   127148705.20847  24195600.526    99076912.15646
  20824465.141   109433303.02549  20824467.586    85272708.43949
  23501238.460   123499857.32147  23501242.312    96233675.71947
  20402079.927   107213665.64748  20402081.806    83543125.21549
  21250975.118   111674635.32949  21250977.301    87019207.23348
  5  3 12 18 20 30.0000000  0  6G 2G 4G 5G 6G10G30
  20975431.676   110226635.08148  20975431.914    85890878.31349
  24198375.765   127163309.02147  24198379.589    99088291.70746
  20825770.196   109440161.10349  20825772.642    85278052.39049
  23498700.667   123486521.19147  23498704.511    96223283.94547
  20401157.862   107208820.16348  20401159.734    83539349.51649
  21249961.936   111669311.08749  21249964.118    87015058.48248
  5  3 12 18 20 35.0000000  0  6G 2G 4G 5G 6G10G30
  20977026.184   110235014.24549  20977026.423    85897407.52849
  24201122.316   127177742.24546  24201126.142    99099538.38046
  20827045.823   109446864.60049  20827048.275    85283275.89849
  23496130.643   123473015.68647  23496134.481    96212760.19647
  20400206.864   107203822.63949  20400208.738    83535455.34749
  21248919.578   111663833.42449  21248921.760    87010790.16748
  5  3 12 18 20 40.0000000  0  6G 2G 4G 5G 6G10G30
  20978677.526   110243692.10848  20978677.765    85904169.49649
  24203924.356   127192466.87446  24203928.195    99111012.07146
  20828379.969   109453875.55349  20828382.421    85288738.96849
  23493616.368   123459802.92547  23493620.205    96202464.49947
  20399314.861   107199135.15949  20399316.734    83531802.76949
  21247935.953   111658664.44049  21247938.128    87006762.39148
  5  3 12 18 20 45.0000000  0  6G 2G 4G 5G 6G10G30
  20980268.499   110252052.66348  20980268.738    85910684.20249
  24206664.552   127206866.85846  24206668.385    99122232.87846
  20829655.410   109460578.00949  20829657.862    85293961.65849
  23491040.549   123446266.99747  23491044.380    96191917.05047
  20398364.654   107194141.75949  20398366.521    83527911.80749
  21246893.842   111653188.14349  21246896.017    87002495.15348
  5  3 12 18 20 50.0000000  0  6G 2G 4G 5G 6G10G30
  20981916.313   110260711.98848  20981916.553    85917431.73049
  24209460.278   127221558.37346  24209464.112    99133680.78746
  20830989.379   109467588.06349  20830991.831    85299424.03649
  23488520.462   123433023.85247  23488524.294    96181597.71847
  20397473.461   107189458.54049  20397475.336    83524262.55249
  21245910.498   111648020.63648  21245912.666    86998468.52548
  5  3 12 18 20 55.0000000  0  6G 2G 4G 5G 6G10G30
  20983533.072   110269208.14248  20983533.310    85924052.11249
  24212223.542   127236079.45546  24212227.377    99144995.92746
  20832293.973   109474443.75249  20832296.418    85304766.13249
  23485968.215   123419611.73347  23485972.040    96171146.72747
  20396553.386   107184623.54549  20396555.261    83520495.03149
  21244898.012   111642699.98349  21244900.179    86994322.56248
  5  3 12 18 21  0.0000000  0  6G 2G 4G 5G 6G10G30
  20985148.118   110277695.20248  20985148.357    85930665.39649
  24214983.698   127250584.14446  24214987.540    99156298.27047
  20833598.508   109481299.12949  20833600.954    85310107.98849
  23483413.089   123406184.55146  23483416.915    96160684.01147
  20395633.762   107179790.85549  20395635.630    83516729.29649
  21243885.695   111637380.25849  21243887.862    86990177.32248
  5  3 12 18 21  5.0000000  0  6G 2G 4G 5G 6G10G30
  20986761.424   110286173.21548  20986761.656    85937271.64749
  24217740.765   127265072.50046  24217744.614    99167587.87346
  20834903.003   109488154.26449  20834905.448    85315449.64349
  23480855.125   123392742.48446  23480858.952    96150209.70547
  20394714.572   107174960.54249  20394716.440    83512965.43049
  21242873.564   111632061.50249  21242875.723    86986032.84648
  5  3 12 18 21 10.0000000  0  6G 2G 4G 5G 6G10G30
  20988402.322   110294796.19348  20988402.567    85943990.84349
  24220524.028   127279698.55146  24220527.884    99178984.77146
  20836236.750   109495163.15549  20836239.196    85320911.11749
  23478323.628   123379439.46847  23478327.454    96139843.73947
  20393825.155   107170286.62549  20393827.024    83509323.42049
  21241890.933   111626897.77449  21241893.086    86982009.17648
  5  3 12 18 21 15.0000000  0  6G 2G 4G 5G 6G10G30
  20990041.517   110303410.22048  20990041.749    85950703.07949
  24223304.190   127294308.43446  24223308.041    99190369.11246
  20837570.475   109502171.89449  20837572.920    85326372.46549
  23475789.324   123366121.67446  23475793.151    96129466.25447
  20392936.199   107165615.15949  20392938.061    83505683.32649
  21240908.527   111621735.16549  21240910.680    86977986.35348
  5  3 12 18 21 20.0000000  0  5G 2G 5G 6G10G30
  20991679.010   110312015.30348  20991679.248    85957408.33648
  20838904.160   109509180.48849  20838906.604    85331833.71049
  23473252.199   123352789.08546  23473256.019    96119077.24747
  20392047.721   107160946.17549  20392049.583    83502045.15949
  21239926.326   111616573.72549  21239928.471    86973964.46748
  5  3 12 18 21 25.0000000  0  5G 2G 5G 6G10G30
  20993285.502   110320457.47948  20993285.739    85963986.64948
  20840208.525   109516034.94149  20840210.970    85337174.83749
  23470682.969   123339287.69147  23470686.796    96108556.68047
  20391130.414   107156125.72549  20391132.270    83498288.97649
  21238915.057   111611259.43649  21238917.195    86969823.45848
  5  3 12 18 21 30.0000000  0  5G 2G 5G 6G10G30
  20994919.615   110329044.77048  20994919.852    85970678.03749
  20841542.177   109523043.29649  20841544.614    85342635.88949
  23468140.253   123325925.62747  23468144.073    96098144.68347
  20390242.914   107151461.85249  20390244.771    83494654.78349
  21237933.312   111606100.36549  21237935.442    86965803.41048
  5  3 12 18 21 35.0000000  0  5G 2G 5G 6G10G30
  20996581.351   110337777.28348  20996581.588    85977482.59848
  20842905.132   109530205.67249  20842907.576    85348216.95949
  23465624.053   123312702.97346  23465627.873    96087841.32847
  20389385.229   107146954.71749  20389387.085    83491142.73449
  21236981.123   111601096.61049  21236983.246    86961904.38848
  5  3 12 18 21 40.0000000  0  5G 2G 5G 6G10G30
  20998212.120   110346347.00148  20998212.357    85984160.29248
  20844238.794   109537214.08649  20844241.232    85353678.05749
  23463075.782   123299311.74647  23463079.601    96077406.61247
  20388498.763   107142296.30849  20388500.612    83487512.81049
  21235999.920   111595940.29049  21236002.050    86957886.45848
  5  3 12 18 21 45.0000000  0  5G 2G 5G 6G10G30
  20999841.245   110354908.07548  20999841.481    85990831.25049
  20845572.480   109544222.68249  20845574.917    85359139.30349
  23460524.771   123285906.12946  23460528.590    96066960.68147
  20387612.835   107137640.75449  20387614.684    83483885.11249
  21235018.974   111590785.44949  21235021.090    86953869.71848
  5  3 12 18 21 50.0000000  0  5G 2G 5G 6G10G30
  21001498.016   110363614.46648  21001498.252    85997615.45449
  20846935.505   109551385.39649  20846937.935    85364720.63749
  23458000.306   123272640.03447  23458004.110    96056623.48047
  20386756.755   107133142.02349  20386758.605    83480379.61249
  21234067.629   111585786.06549  21234069.744    86949974.08548
  5  3 12 18 21 55.0000000  0  5G 2G 5G 6G10G30
  21003123.851   110372158.25848  21003124.081    86004272.95149
  20848269.258   109558394.31849  20848271.695    85370182.12749
  23455443.796   123259205.54847  23455447.600    96046155.06247
  20385871.933   107128492.22449  20385873.776    83476756.38549
  21233087.264   111580634.27449  21233089.372    86945959.71648
  5  3 12 18 22  0.0000000  0  5G 2G 5G 6G10G30
  21004777.370   110380847.55748  21004777.592    86011043.83349
  20849632.377   109565557.55549  20849634.807    85375763.87649
  23452913.885   123245910.83947  23452917.689    96035795.56247
  20385016.983   107123999.46049  20385018.826    83473255.54049
  21232136.545   111575638.17949  21232138.652    86942066.64748
  5  3 12 18 22  5.0000000  0  5G 2G 5G 6G10G30
  21006399.982   110389374.40748  21006400.204    86017688.12549
  20850966.260   109572567.12849  20850968.690    85381225.87249
  23450351.980   123232447.96947  23450355.778    96025305.02847
  20384133.323   107119355.82749  20384135.159    83469637.13449
  21231156.843   111570489.81249  21231158.944    86938054.93848
  5  3 12 18 22 10.0000000  0  5G 2G 5G 6G10G30
  21008050.332   110398047.05548  21008050.554    86024446.03449
  20852329.563   109579731.30249  20852331.993    85386808.33949
  23447816.720   123219125.18047  23447820.518    96014923.65447
  20383279.610   107114869.53449  20383281.452    83466141.31649
  21230206.817   111565497.45549  21230208.911    86934164.80648
  5  3 12 18 22 15.0000000  0  5G 2G 5G 6G10G30
  21009699.099   110406711.35748  21009699.315    86031197.43448
  20853692.948   109586895.93848  20853695.378    85392391.17249
  23445278.807   123205788.39147  23445282.600    96004531.36748
  20382426.511   107110386.50049  20382428.347    83462648.05549
  21229257.174   111560507.01449  21229259.267    86930276.13948
  5  3 12 18 22 20.0000000  0  5G 2G 5G 6G10G30
  21011346.273   110415367.31448  21011346.489    86037942.33549
  20855056.410   109594060.97849  20855058.846    85397974.31449
  23442738.201   123192437.47447  23442741.993    95994128.06747
  20381574.023   107105906.64749  20381575.853    83459157.26349
  21228307.868   111555518.37649  21228309.954    86926388.89448
  5  3 12 18 22 25.0000000  0  5G 2G 5G 6G10G30
  21012933.274   110423707.06148  21012933.489    86044440.83648
  20856361.374   109600918.64049  20856363.802    85403317.95449
  23440136.340   123178764.69647  23440140.126    95983473.98247
  20380663.568   107101122.20249  20380665.396    83455429.12849
  21227300.352   111550223.87549  21227302.438    86922263.31548
  5  3 12 18 22 30.0000000  0  5G 2G 5G 6G10G30
  21014635.959   110432654.72848  21014636.166    86051413.04549
  20857783.704   109608393.00549  20857786.126    85409142.13249
  23437649.086   123165694.09247  23437652.874    95973289.10147
  20379871.004   107096957.25049  20379872.833    83452183.71349
  21226410.458   111545547.48449  21226412.544    86918619.38148
  5  3 12 18 22 35.0000000  0  5G 2G 5G 6G10G30
  21016249.198   110441132.32648  21016249.405    86058018.95849
  20859118.254   109615406.07849  20859120.682    85414606.85449
  23435071.303   123152147.71947  23435075.090    95962733.47847
  20378991.199   107092333.84548  20378993.028    83448581.05949
  21225433.083   111540411.31049  21225435.169    86914617.16148
  5  3 12 18 22 40.0000000  0  5G 2G 5G 6G10G30
  21017919.518   110449909.94848  21017919.717    86064858.66949
  20860511.572   109622727.98449  20860513.994    85420312.23449
  23432549.532   123138895.75347  23432553.313    95952407.28447
  20378170.700   107088022.09548  20378172.523    83445221.25949
  21224514.741   111535585.42548  21224516.820    86910856.74048
  5  3 12 18 22 45.0000000  0  5G 2G 5G 6G10G30
  21019529.737   110458371.73648  21019529.935    86071452.27548
  20861846.456   109629742.84749  20861848.877    85425778.35849
  23429966.593   123125322.28847  23429970.367    95941830.55147
  20377292.317   107083406.15848  20377294.133    83441624.43049
  21223538.266   111530454.01449  21223540.345    86906858.23748
  5  3 12 18 22 50.0000000  0  5G 2G 5G 6G10G30
  21021197.108   110467133.79848  21021197.306    86078279.84848
  20863240.149   109637066.75249  20863242.570    85431485.29549
  23427439.700   123112043.46847  23427443.467    95931483.44347
  20376473.283   107079102.10649  20376475.091    83438270.62449
  21222620.885   111525633.14549  21222622.964    86903101.71548
  5  3 12 18 22 55.0000000  0  5G 2G 5G 6G10G30
  21022862.985   110475888.01348  21022863.177    86085101.31148
  20864634.032   109644391.62549  20864636.453    85437192.98449
  23424910.246   123098751.15747  23424914.012    95921125.81047
  20375654.967   107074801.85749  20375656.776    83434919.78949
  21221703.966   111520814.73049  21221706.044    86899347.11048
  5  3 12 18 23  0.0000000  0  5G 2G 5G 6G10G30
  21024527.375   110484634.41248  21024527.567    86091916.67948
  20866028.099   109651717.49749  20866030.519    85442901.45249
  23422378.249   123085445.45647  23422382.008    95910757.74147
  20374837.396   107070505.49549  20374839.198    83431571.97849
  21220787.532   111515998.86949  21220789.603    86895594.50248
  5  3 12 18 23  5.0000000  0  5G 2G 5G 6G10G30
  21026131.684   110493065.17248  21026131.875    86098486.11548
  20867363.773   109658736.51449  20867366.187    85448370.82049
  23419785.114   123071818.50347  23419788.867    95900139.35348
  20373961.972   107065905.14449  20373963.774    83427987.29249
  21219813.003   111510877.68449  21219815.074    86891603.96748
  5  3 12 18 23 10.0000000  0  5G 2G 5G 6G10G30
  21027793.180   110501796.33048  21027793.371    86105289.59948
  20868758.294   109666064.73849  20868760.708    85454081.11849
  23417248.089   123058486.37747  23417251.841    95889750.69047
  20373145.940   107061616.86448  20373147.742    83424645.77749
  21218897.608   111506067.25549  21218899.673    86887855.58448
  5  3 12 18 23 15.0000000  0  5G 2G 5G 6G10G30
  21029453.238   110510519.96048  21029453.428    86112087.22649
  20870153.048   109673394.22149  20870155.461    85459792.39949
  23414708.561   123045141.13047  23414712.308    95879351.81947
  20372330.697   107057332.73649  20372332.492    83421307.49749
  21217982.752   111501259.65449  21217984.824    86884109.39948
  5  3 12 18 23 20.0000000  0  5G 2G 5G 6G10G30
  21031141.173   110519390.12148  21031141.364    86118999.03948
  20871577.363   109680879.01649  20871579.777    85465624.70349
  23412195.881   123031936.81647  23412199.635    95869062.72048
  20371545.558   107053206.83449  20371547.346    83418092.51849
  21217097.752   111496608.97749  21217099.816    86880485.50448
  5  3 12 18 23 25.0000000  0  5G 2G 5G 6G10G30
  21032798.374   110528098.80348  21032798.558    86125785.03549
  20872972.627   109688211.17449  20872975.033    85471338.07349
  23409651.383   123018565.47947  23409655.116    95858643.52847
  20370731.943   107048931.22449  20370733.731    83414760.86849
  21216184.020   111491807.25049  21216186.077    86876743.89448
  5  3 12 18 23 30.0000000  0  5G 2G 5G 6G10G30
  21034454.179   110536800.08648  21034454.363    86132565.24948
  20874368.159   109695544.75049  20874370.573    85477052.54549
  23407104.445   123005181.26146  23407108.186    95848214.27247
  20369919.144   107044659.96748  20369920.931    83411432.62349
  21215270.855   111487008.54049  21215272.907    86873004.64648
  5  3 12 18 23 35.0000000  0  5G 2G 5G 6G10G30
  21036108.595   110545494.06648  21036108.778    86139339.77049
  20875763.977   109702879.79049  20875766.390    85482768.15049
  23404555.055   122991784.18847  23404558.789    95837775.01347
  20369107.190   107040393.12349  20369108.979    83408107.81149
  21214358.284   111482212.94249  21214360.335    86869267.81848
  5  3 12 18 23 40.0000000  0  5G 2G 5G 6G10G30
  21037761.625   110554180.80248  21037761.803    86146108.66148
  20877160.083   109710216.37749  20877162.496    85488484.97149
  23402003.220   122978374.33347  23402006.962    95827325.80047
  20368296.083   107036130.78648  20368297.863    83404786.52349
  21213446.306   111477420.50049  21213448.358    86865533.45348
  5  3 12 18 23 45.0000000  0  5G 2G 5G 6G10G30
  21039442.576   110563014.28948  21039442.753    86152991.90448
  20878585.780   109717708.49649  20878588.193    85494322.99449
  23399478.271   122965105.73047  23399482.013    95816986.65147
  20367515.154   107032026.97848  20367516.934    83401588.74749
  21212564.250   111472785.23449  21212566.295    86861921.55348
  5  3 12 18 23 50.0000000  0  5G 2G 5G 6G10G30
  21041092.884   110571686.65148  21041093.060    86159749.57248
  20879982.505   109725048.27349  20879984.918    85500042.29049
  23396921.606   122951670.45747  23396925.347    95806517.62547
  20366705.800   107027773.82748  20366707.573    83398274.61549
  21211653.498   111467999.26149  21211655.543    86858192.23948
  5  3 12 18 23 55.0000000  0  5G 2G 5G 6G10G30
  21042741.849   110580352.02148  21042742.025    86166501.80748
  20881379.552   109732389.83549  20881381.964    85505762.98849
  23394362.580   122938222.74647  23394366.328    95796038.90047
  20365897.363   107023525.46048  20365899.137    83394964.20349
  21210743.434   111463216.74949  21210745.480    86854465.59048
  5  3 12 18 24  0.0000000  0  5G 2G 5G 6G10G30
  21044418.785   110589164.37848  21044418.961    86173368.57948
  20882806.252   109739887.16449  20882808.665    85511605.06049
  23391830.480   122924916.56547  23391834.220    95785670.46847
  20365119.139   107019435.86549  20365120.913    83391777.50549
  21209863.316   111458591.75849  21209865.354    86850861.71548
  5  3 12 18 24  5.0000000  0  5G 2G 5G 6G10G30
  21046094.335   110597969.45848  21046094.504    86180229.67949
  20884233.236   109747385.98449  20884235.649    85517448.29049
  23389295.968   122911597.61647  23389299.709    95775292.06947
  20364341.766   107015350.77348  20364343.539    83388594.32249
  21208983.808   111453969.91449  21208985.846    86847260.27748
  5  3 12 18 24 10.0000000  0  5G 2G 5G 6G10G30
  21047739.329   110606613.95748  21047739.497    86186965.65449
  20885631.320   109754732.96549  20885633.733    85523173.20849
  23386729.849   122898112.60147  23386733.582    95764784.27147
  20363536.078   107011116.88849  20363537.845    83385295.20149
  21208075.726   111449197.94449  21208077.765    86843541.86848
  5  3 12 18 24 15.0000000  0  5G 2G 5G 6G10G30
  21049412.334   110615405.62748  21049412.503    86193816.30049
  20887059.088   109762235.90349  20887061.501    85529019.65049
  23384190.716   122884769.33747  23384194.449    95754386.91647
  20362760.653   107007042.00248  20362762.420    83382119.96649
  21207197.676   111444583.72449  21207199.715    86839946.36848
  5  3 12 18 24 20.0000000  0  5G 2G 5G 6G10G30
  21051084.055   110624190.54748  21051084.217    86200661.68849
  20888487.233   109769740.85749  20888489.653    85534867.66449
  23381649.244   122871413.87247  23381652.984    95743980.07047
  20361986.194   107002972.18948  20361987.961    83378948.68449
  21206320.326   111439973.25148  21206322.364    86836353.79548
  5  3 12 18 24 25.0000000  0  5G 2G 5G 6G10G30
  21052754.486   110632968.75648  21052754.648    86207501.85549
  20889915.776   109777247.90249  20889918.196    85540717.30649
  23379105.470   122858046.34447  23379109.203    95733563.83747
  20361212.709   106998907.52948  20361214.475    83375781.42049
  21205443.705   111435366.61048  21205445.737    86832764.21748
  5  3 12 18 24 30.0000000  0  5G 2G 5G 6G10G30
  21054423.666   110641740.32248  21054423.828    86214336.83749
  20891344.737   109784757.10849  20891347.150    85546568.63549
  23376559.420   122844666.79147  23376563.154    95723138.22247
  20360440.216   106994848.08448  20360441.982    83372618.22249
  21204567.833   111430763.84149  21204569.866    86829177.63948
  5  3 12 18 24 35.0000000  0  5G 2G 5G 6G10G30
  21056091.556   110650505.14348  21056091.717    86221166.56348
  20892774.081   109792268.36348  20892776.501    85552421.55749
  23374011.045   122831275.05547  23374014.779    95712703.11847
  20359668.709   106990793.78948  20359670.476    83369459.03549
  21203692.686   111426164.94449  21203694.719    86825594.09149
  5  3 12 18 24 40.0000000  0  5G 2G 5G 6G10G30
  21057787.522   110659417.50348  21057787.682    86228111.26048
  20894233.189   109799935.96749  20894235.603    85558396.30549
  23371489.731   122818025.49247  23371493.460    95702378.80047
  20358927.533   106986898.91348  20358929.293    83366424.07549
  21202847.633   111421724.12549  21202849.666    86822133.70848
  5  3 12 18 24 45.0000000  0  5G 2G 5G 6G10G30
  21059452.938   110668169.29248  21059453.099    86234930.83048
  20895663.396   109807451.78349  20895665.816    85564252.78749
  23368936.829   122804609.99147  23368940.551    95691925.18747
  20358158.067   106982855.34448  20358159.828    83363273.24349
  21201974.019   111417133.31749  21201976.052    86818556.46848
  5  3 12 18 24 50.0000000  0  5G 2G 5G 6G10G30
  21061117.151   110676914.76148  21061117.311    86241745.47148
  20897094.080   109814970.04849  20897096.501    85570111.17249
  23366381.708   122791182.80347  23366385.424    95681462.46447
  20357389.653   106978817.33248  20357391.414    83360126.74849
  21201101.242   111412546.78048  21201103.282    86814982.52448
  5  3 12 18 24 55.0000000  0  5G 2G 5G 6G10G30
  21062809.363   110685807.42748  21062809.523    86248674.82749
  20898554.441   109822644.29649  20898556.861    85576091.10349
  23363853.590   122777897.45346  23363857.313    95671110.24047
  20356651.526   106974938.44848  20356653.286    83357104.23949
  21200258.466   111408118.02848  21200260.492    86811531.56948
  5  3 12 18 25  0.0000000  0  5G 2G 5G 6G10G30
  21064471.127   110694540.02448  21064471.280    86255479.44448
  20899986.015   109830167.24049  20899988.437    85581953.13549
  23361293.990   122764446.72747  23361297.712    95660629.16647
  20355885.203   106970911.39248  20355886.964    83353966.27649
  21199387.268   111403539.81849  21199389.294    86807964.12648
  5  3 12 18 25  5.0000000  0  5G 2G 5G 6G10G30
  21066160.985   110703420.25648  21066161.138    86262399.09748
  20901447.347   109837846.58949  20901449.768    85587937.04349
  23358761.463   122751138.27047  23358765.178    95650258.95647
  20355149.236   106967043.89349  20355151.004    83350952.64449
  21198546.179   111399119.83649  21198548.206    86804519.98048
  5  3 12 18 25 10.0000000  0  5G 2G 5G 6G10G30
  21067849.581   110712293.91848  21067849.734    86269313.64648
  20902909.091   109845528.11049  20902911.513    85593922.64149
  23356226.678   122737817.91847  23356230.394    95639879.47047
  20354414.287   106963181.74048  20354416.054    83347943.18049
  21197705.850   111394703.90749  21197707.876    86801079.00248
  5  3 12 18 25 15.0000000  0  5G 2G 5G 6G10G30
  21069537.040   110721161.51548  21069537.193    86276223.44648
  20904371.361   109853212.35849  20904373.783    85599910.36449
  23353689.715   122724486.17947  23353693.430    95629491.12347
  20353680.464   106959325.47348  20353682.232    83344938.29949
  21196866.393   111390292.56349  21196868.412    86797641.59948
  5  3 12 18 25 20.0000000  0  5G 2G 5G 6G10G30
  21071193.988   110729868.83548  21071194.140    86283008.36948
  20905804.797   109860745.08449  20905807.219    85605780.01449
  23351121.276   122710988.90947  23351124.991    95618973.76147
  20352918.410   106955320.88248  20352920.178    83341817.84649
  21195998.478   111385731.60448  21196000.497    86794087.59848
  5  3 12 18 25 25.0000000  0  5G 2G 5G 6G10G30
  21072879.060   110738723.94748  21072879.212    86289908.45748
  20907268.027   109868434.40649  20907270.449    85611771.69449
  23348579.935   122697634.13847  23348583.644    95608567.46347
  20352186.769   106951476.05348  20352188.531    83338821.87449
  21195160.697   111381329.06848  21195162.709    86790657.05948
  5  3 12 18 25 30.0000000  0  5G 2G 5G 6G10G30
  21074592.254   110747726.81148  21074592.399    86296923.67349
  20908761.043   109876280.22949  20908763.458    85617885.31649
  23346065.735   122684421.92847  23346069.444    95598272.23647
  20351485.514   106947790.96648  20351487.283    83335950.38249
  21194353.070   111377084.96049  21194355.075    86787349.96848
  5  3 12 18 25 35.0000000  0  5G 2G 5G 6G10G30
  21076245.643   110756415.49448  21076245.788    86303694.08649
  20910195.934   109883820.63049  20910198.355    85623760.95049
  23343490.690   122670890.19547  23343494.392    95587728.07747
  20350726.745   106943803.63749  20350728.506    83332843.38149
  21193487.685   111372537.36349  21193489.690    86783806.39148
  5  3 12 18 25 40.0000000  0  5G 2G 5G 6G10G30
  21077927.178   110765251.95348  21077927.315    86310579.62749
  20911660.620   109891517.57649  20911663.042    85629758.56549
  23340942.816   122657501.05747  23340946.518    95577294.99248
  20349998.387   106939976.09248  20350000.149    83329860.87949
  21192652.476   111368148.24749  21192654.482    86780386.28949
  5  3 12 18 25 45.0000000  0  5G 2G 5G 6G10G30
  21079636.844   110774236.28148  21079636.982    86317580.39648
  20913155.102   109899371.13549  20913157.518    85635878.22649
  23338422.076   122644254.50847  23338425.784    95566973.00748
  20349300.433   106936308.38148  20349302.196    83327002.94049
  21191847.424   111363917.70049  21191849.422    86777089.76648
  5  3 12 18 25 50.0000000  0  5G 2G 5G 6G10G30
  21081315.910   110783059.83148  21081316.048    86324455.88948
  20914620.672   109907072.72349  20914623.087    85641879.45649
  23335869.740   122630841.98747  23335873.442    95556521.71947
  20348574.196   106932491.91648  20348575.958    83324029.05749
  21191013.826   111359537.11349  21191015.831    86773676.31948
  5  3 12 18 25 55.0000000  0  5G 2G 5G 6G10G30
  21082993.805   110791877.19548  21082993.941    86331326.55248
  20916086.731   109914776.88349  20916089.139    85647882.69449
  23333315.255   122617418.07947  23333318.959    95546061.53547
  20347849.046   106928681.28848  20347850.808    83321059.75049
  21190181.095   111355161.08349  21190183.094    86770266.43048
  5  3 12 18 26  0.0000000  0  5G 2G 5G 6G10G30
  21084699.882   110800842.69248  21084700.012    86338312.65648
  20917582.642   109922637.95049  20917585.057    85654008.19549
  23330787.969   122604137.13347  23330791.680    95535712.75147
  20347154.384   106925030.81848  20347156.147    83318215.22849
  21189378.584   111350943.92049  21189380.581    86766980.34048
  5  3 12 18 26  5.0000000  0  5G 2G 5G 6G10G30
  21086375.565   110809648.43648  21086375.702    86345174.26548
  20919049.821   109930348.02949  20919052.228    85660016.04949
  23328229.287   122590691.23147  23328232.999    95525235.44347
  20346431.612   106921232.65649  20346433.375    83315255.63049
  21188547.737   111346577.76349  21188549.735    86763578.13248
  5  3 12 18 26 10.0000000  0  5G 2G 5G 6G10G30
  21088079.392   110818602.10848  21088079.529    86352151.15049
  20920546.819   109938214.77549  20920549.220    85666145.97849
  23325697.766   122577388.02747  23325701.470    95514869.31747
  20345739.281   106917594.46449  20345741.044    83312420.68049
  21187747.091   111342370.30749  21187749.082    86760299.59248
  5  3 12 18 26 15.0000000  0  5G 2G 5G 6G10G30
  21089752.768   110827395.72748  21089752.904    86359003.31248
  20922015.017   109945930.20649  20922017.424    85672158.00049
  23323134.801   122563919.58947  23323138.506    95504374.43947
  20345018.794   106913808.27948  20345020.556    83309470.40449
  21186918.027   111338013.54349  21186920.024    86756904.70548
  5  3 12 18 26 20.0000000  0  5G 2G 5G 6G10G30
  21091483.603   110836491.32448  21091483.732    86366090.79248
  20923542.357   109953956.39949  20923544.757    85678412.17149
  23320628.308   122550748.00247  23320632.006    95494110.89647
  20344358.075   106910336.17448  20344359.830    83306764.87249
  21186148.481   111333969.58749  21186150.472    86753753.58248
  5  3 12 18 26 25.0000000  0  5G 2G 5G 6G10G30
  21093183.986   110845426.89948  21093184.114    86373053.57648
  20925040.906   109961831.33149  20925043.306    85684548.47949
  23318090.406   122537411.29846  23318094.104    95483718.67647
  20343669.185   106906716.09748  20343670.947    83303944.04449
  21185350.541   111329776.41349  21185352.531    86750486.17648
  5  3 12 18 26 30.0000000  0  5G 2G 5G 6G10G30
  21094853.928   110854202.50548  21094854.057    86379891.71048
  20926510.671   109969554.99949  20926513.078    85690566.91749
  23315521.073   122523909.45747  23315524.771    95473197.78047
  20342952.167   106902948.11048  20342953.923    83301007.95049
  21184524.215   111325434.04149  21184526.205    86747102.51148
  5  3 12 18 26 35.0000000  0  5G 2G 5G 6G10G30
  21096581.242   110863279.56948  21096581.370    86386964.73649
  20928039.473   109977588.90749  20928041.872    85696827.10649
  23313008.155   122510703.98447  23313011.860    95462907.79847
  20342294.819   106899493.72349  20342296.568    83298316.22249
  21183757.326   111321403.98249  21183759.316    86743962.19648
  5  3 12 18 26 40.0000000  0  5G 2G 5G 6G10G30
  21098248.771   110872042.52548  21098248.905    86393793.01548
  20929510.163   109985317.46349  20929512.561    85702849.36249
  23310434.487   122497179.27047  23310438.192    95452369.05747
  20341579.989   106895737.33148  20341581.738    83295389.17549
  21182932.712   111317070.63749  21182934.695    86740585.57348
  5  3 12 18 26 45.0000000  0  5G 2G 5G 6G10G30
  21099973.786   110881107.50948  21099973.920    86400856.63148
  20931039.997   109993356.76849  20931042.395    85709113.74649
  23307917.307   122483951.46247  23307921.012    95442061.69047
  20340924.948   106892295.06449  20340926.704    83292706.88849
  21182167.640   111313050.15749  21182169.616    86737452.73748
  5  3 12 18 26 50.0000000  0  5G 2G 5G 6G10G30
  21101639.051   110889858.53148  21101639.184    86407675.60948
  20932511.763   110001090.88849  20932514.162    85715140.32349
  23305339.419   122470404.62847  23305343.116    95431505.73147
  20340212.468   106888550.95849  20340214.217    83289789.40449
  21181344.888   111308726.56449  21181346.864    86734083.70348
  5  3 12 18 26 55.0000000  0  5G 2G 5G 6G10G30
  21103361.898   110898912.15648  21103362.023    86414730.38048
  20934042.766   110009136.36149  20934045.157    85721409.52449
  23302818.163   122457155.33847  23302821.847    95421181.61647
  20339559.875   106885121.58949  20339561.624    83287117.17749
  21180581.798   111304716.47049  21180583.767    86730958.95148
  5  3 12 18 27  0.0000000  0  5G 2G 5G 6G10G30
  21105083.621   110907959.87148  21105083.753    86421780.54248
  20935574.303   110017184.64349  20935576.694    85727680.90949
  23300294.823   122443895.06747  23300298.507    95410848.93347
  20338908.462   106881698.42248  20338910.204    83284449.78349
  21179819.644   111300711.32149  21179821.620    86727838.05248
  5  3 12 18 27  5.0000000  0  5G 2G 5G 6G10G30
  21106774.893   110916847.56648  21106775.024    86428706.01748
  20937077.060   110025081.68549  20937079.450    85733834.44849
  23297740.051   122430469.74147  23297743.728    95400387.66447
  20338228.926   106878127.40448  20338230.662    83281667.17349
  21179029.109   111296557.03348  21179031.072    86724600.95348
  5  3 12 18 27 10.0000000  0  5G 2G 5G 6G10G30
  21108494.330   110925883.26648  21108494.453    86435746.82248
  20938609.657   110033135.50349  20938612.048    85740110.14549
  23295212.504   122417187.42547  23295216.174    95390037.81647
  20337579.864   106874716.56148  20337581.607    83279009.37249
  21178268.809   111292561.62749  21178270.778    86721487.64648
  5  3 12 18 27 15.0000000  0  5G 2G 5G 6G10G30
  21110183.322   110934758.98148  21110183.445    86442662.96248
  20940113.465   110041038.06649  20940115.861    85746267.97949
  23292653.548   122403740.05047  23292657.211    95379559.35247
  20336902.664   106871157.91648  20336904.407    83276236.41349
  21177480.144   111288417.19749  21177482.106    86718258.22848
  5  3 12 18 27 20.0000000  0  5G 2G 5G 6G10G30
  21111900.497   110943782.79548  21111900.626    86449694.50048
  20941647.123   110049097.49749  20941649.513    85752548.05949
  23290121.827   122390435.79847  23290125.484    95369192.41747
  20336255.981   106867759.56948  20336257.723    83273588.35049
  21176721.745   111284431.78649  21176723.707    86715152.71348
  5  3 12 18 27 25.0000000  0  5G 2G 5G 6G10G30
  21113557.936   110952492.69848  21113558.065    86456481.43348
  20943122.707   110056851.74049  20943125.097    85758590.32749
  23287529.419   122376812.63547  23287533.063    95358576.97947
  20335551.881   106864059.50048  20335553.631    83270705.17749
  21175905.686   111280143.39649  21175907.648    86711811.11648
  5  3 12 18 27 30.0000000  0  5G 2G 5G 6G10G30
  21115272.859   110961504.67648  21115272.980    86463503.75448
  20944657.428   110064916.75349  20944659.824    85764874.74649
  23284993.543   122363486.54847  23284997.180    95348193.02347
  20334907.571   106860673.66349  20334909.315    83268066.87349
  21175149.192   111276167.96149  21175151.155    86708713.37348
  5  3 12 18 27 35.0000000  0  5G 2G 5G 6G10G30
  21117015.926   110970664.52748  21117016.047    86470641.29548
  20946221.961   110073138.39949  20946224.349    85771281.21649
  23282484.850   122350303.33847  23282488.480    95337920.41047
  20334293.732   106857447.91448  20334295.475    83265553.30249
  21174422.916   111272351.35949  21174424.872    86705739.39848
  5  3 12 18 27 40.0000000  0  5G 2G 5G 6G10G30
  21118728.567   110979664.51248  21118728.686    86477654.26548
  20947757.732   110081208.90249  20947760.121    85777569.91449
  23279944.787   122336955.27947  23279948.417    95327519.33947
  20333651.785   106854074.49448  20333653.529    83262924.67149
  21173668.309   111268385.86949  21173670.264    86702649.40448
  5  3 12 18 27 45.0000000  0  5G 2G 5G 6G10G30
  21120440.077   110988658.59348  21120440.196    86484662.64448
  20949294.045   110089282.28149  20949296.433    85783860.85649
  23277402.671   122323596.40447  23277406.296    95317109.84247
  20333011.063   106850707.44249  20333012.799    83260300.98949
  21172914.659   111264425.44649  21172916.615    86699563.36948
  5  3 12 18 27 50.0000000  0  5G 2G 5G 6G10G30
  21122121.163   110997492.72848  21122121.282    86491546.37748
  20950801.579   110097204.42149  20950803.974    85790033.95049
  23274829.173   122310072.64047  23274832.798    95306571.85847
  20332342.220   106847192.68048  20332343.956    83257562.22048
  21172132.679   111260316.08249  21172134.635    86696361.26148
  5  3 12 18 27 55.0000000  0  5G 2G 5G 6G10G30
  21123830.411   111006474.88548  21123830.529    86498545.45848
  20952338.939   110105283.30649  20952341.333    85796329.18049
  23272282.937   122296692.01747  23272286.555    95296145.38947
  20331703.883   106843838.19749  20331705.620    83254948.34049
  21171380.939   111256365.69249  21171382.895    86693283.04048
  5  3 12 18 28  0.0000000  0  5G 2G 5G 6G10G30
  21125538.524   111015451.08048  21125538.636    86505539.90048
  20953876.822   110113364.93749  20953879.217    85802626.55849
  23269734.601   122283300.45246  23269738.212    95285710.41347
  20331066.734   106840489.98648  20331068.470    83252339.35049
  21170630.171   111252420.37749  21170632.119    86690208.77148
  5  3 12 18 28  5.0000000  0  5G 2G 5G 6G10G30
  21127274.810   111024575.29548  21127274.929    86512649.67148
  20955444.544   110121603.33948  20955446.937    85809046.08049
  23267213.481   122270052.00246  23267217.084    95275386.97247
  20330460.092   106837302.06448  20330461.821    83249855.25648
  21169909.658   111248634.05849  21169911.606    86687258.39048
  5  3 12 18 28 10.0000000  0  5G 2G 5G 6G10G30
  21128980.662   111033539.57448  21128980.787    86519634.81048
  20956983.481   110129690.50949  20956985.882    85815347.76949
  23264661.025   122256638.75947  23264664.622    95264935.09947
  20329825.342   106833966.46149  20329827.071    83247256.09049
  21169160.811   111244698.84249  21169162.759    86684191.98648
  5  3 12 18 28 15.0000000  0  5G 2G 5G 6G10G30
  21130685.372   111042497.88548  21130685.496    86526615.30948
  20958522.939   110137780.41449  20958525.332    85821651.59249
  23262106.493   122243214.69247  23262110.096    95254474.80247
  20329191.785   106830637.16048  20329193.514    83244661.84249
  21168412.925   111240768.70349  21168414.866    86681129.55148
  5  3 12 18 28 20.0000000  0  5G 2G 5G 6G10G30
  21132418.249   111051604.21848  21132418.373    86533711.15248
  20960092.227   110146027.04849  20960094.628    85828077.53249
  23259579.189   122229933.71847  23259582.771    95244126.01747
  20328588.748   106827468.14748  20328590.470    83242192.48049
  21167695.314   111236997.63049  21167697.254    86678191.05348
  5  3 12 18 28 25.0000000  0  5G 2G 5G 6G10G30
  21134149.981   111060704.53148  21134150.099    86540802.31048
  20961662.022   110154276.37549  20961664.421    85834505.57549
  23257049.849   122216641.85347  23257053.431    95233768.69747
  20327986.905   106824305.43849  20327988.627    83239728.03249
  21166978.655   111233231.56449  21166980.596    86675256.45748
  5  3 12 18 28 30.0000000  0  5G 2G 5G 6G10G30
  21135880.565   111069798.78048  21135880.690    86547888.72848
  20963232.322   110162528.35548  20963234.721    85840935.68749
  23254518.403   122203339.07747  23254521.968    95223402.90847
  20327386.254   106821148.99649  20327387.976    83237268.46649
  21166262.964   111229470.55049  21166264.897    86672325.78948
  5  3 12 18 28 35.0000000  0  5G 2G 5G 6G10G30
  21137609.991   111078886.97448  21137610.116    86554970.43748
  20964803.128   110170782.99949  20964805.528    85847367.87949
  23251984.901   122190025.43447  23251988.460    95213028.64447
  20326786.783   106817998.81749  20326788.503    83234813.78949
  21165548.229   111225714.56249  21165550.156    86669399.04248
  5  3 12 18 28 40.0000000  0  5G 2G 5G 6G10G30
  21139308.944   111087815.03448  21139309.069    86561927.36748
  20966345.125   110178886.24649  20966347.530    85853682.09049
  23249419.989   122176546.82247  23249423.539    95202525.84647
  20326159.193   106814700.81149  20326160.914    83232243.91749
  21164805.122   111221809.54049  21164807.049    86666356.17648
  5  3 12 18 28 45.0000000  0  5G 2G 5G 6G10G30
  21141036.044   111096891.00448  21141036.168    86568999.54848
  20967916.929   110187146.10249  20967919.334    85860118.33449
  23246882.346   122163211.32647  23246885.896    95192134.53147
  20325562.088   106811563.03348  20325563.802    83229798.90549
  21164092.265   111218063.51049  21164094.190    86663437.20148
  5  3 12 18 28 50.0000000  0  5G 2G 5G 6G10G30
  21142761.979   111105960.82148  21142762.103    86576066.93348
  20969489.217   110195408.53049  20969491.622    85866556.58949
  23244342.557   122149864.83147  23244346.087    95181734.71747
  20324966.164   106808431.43248  20324967.878    83227358.69549
  21163380.369   111214322.40948  21163382.287    86660522.04748
  5  3 12 18 28 55.0000000  0  5G 2G 5G 6G10G30
  21144486.717   111115024.41148  21144486.841    86583129.47748
  20971061.983   110203673.44249  20971064.388    85872996.77549
  23241800.704   122136507.36547  23241804.233    95171326.31547
  20324371.400   106805305.95648  20324373.120    83224923.26249
  21162669.398   111210586.20448  21162671.318    86657610.71348
  5  3 12 18 29  0.0000000  0  5G 2G 5G 6G10G30
  21146210.297   111124081.85748  21146210.414    86590187.22148
  20972635.227   110211940.89549  20972637.639    85879438.94049
  23239256.776   122123138.96747  23239260.300    95160909.39547
  20323777.826   106802186.67448  20323779.539    83222492.64749
  21161959.365   111206854.98548  21161961.276    86654703.27548
  5  3 12 18 29  5.0000000  0  5G 2G 5G 6G10G30
  21147932.680   111133133.04148  21147932.798    86597240.09448
  20974208.936   110220210.79249  20974211.341    85885883.01849
  23236710.754   122109759.49647  23236714.277    95150483.82647
  20323185.398   106799073.47548  20323187.112    83220066.78849
  21161250.244   111203128.59049  21161252.156    86651799.60748
  5  3 12 18 29 10.0000000  0  5G 2G 5G 6G10G30
  21149683.175   111142331.92049  21149683.292    86604408.04448
  20975812.414   110228637.09349  20975814.818    85892448.95749
  23234191.915   122096522.97347  23234195.433    95140169.67447
  20322623.435   106796120.34048  20322625.149    83217765.64249
  21160571.376   111199561.08249  21160573.286    86649019.71948
  5  3 12 18 29 15.0000000  0  5G 2G 5G 6G10G30
  21151403.144   111151370.41848  21151403.260    86611451.02648
  20977387.020   110236911.70449  20977389.430    85898896.70249
  23231641.682   122083121.34347  23231645.193    95129726.83747
  20322033.312   106793019.22149  20322035.019    83215349.19249
  21159864.101   111195844.32949  21159866.011    86646123.54748
  5  3 12 18 29 20.0000000  0  5G 2G 5G 6G10G30
  21153121.891   111160402.46348  21153122.000    86618488.97948
  20978962.056   110245188.57149  20978964.465    85905346.20749
  23229089.292   122069708.56947  23229092.789    95119275.35647
  20321444.317   106789924.03549  20321446.025    83212937.35849
  21159157.734   111192132.34549  21159159.644    86643231.09048
  5  3 12 18 29 25.0000000  0  5G 2G 5G 6G10G30
  21154868.718   111169582.07148  21154868.834    86625641.91048
  20980566.828   110253621.67349  20980569.237    85911917.44749
  23226564.086   122056438.58547  23226567.569    95108935.12747
  20320885.765   106786988.79449  20320887.466    83210650.15449
  21158481.562   111188579.06849  21158483.472    86640462.31048
  5  3 12 18 29 30.0000000  0  5G 2G 5G 6G10G30
  21156584.995   111178601.16548  21156585.103    86632669.77748
  20982142.709   110261902.98949  20982145.113    85918370.42649
  23224007.465   122043003.39147  23224010.954    95098466.12447
  20320299.029   106783905.50348  20320300.729    83208247.59549
  21157776.997   111184876.55549  21157778.900    86637577.23648
  5  3 12 18 29 35.0000000  0  5G 2G 5G 6G10G30
  21158329.337   111187767.74648  21158329.445    86639812.56548
  20983748.313   110270340.46249  20983750.723    85924945.07049
  23221477.971   122029710.99547  23221481.454    95088108.46047
  20319742.716   106780982.09148  20319744.417    83205969.62049
  21157102.615   111181332.65449  21157104.518    86634815.75448
  5  3 12 18 29 40.0000000  0  5G 2G 5G 6G10G30
  21160101.721   111197081.68648  21160101.828    86647070.17648
  20985383.594   110278933.95149  20985385.997    85931641.30549
  23218975.653   122016561.25747  23218979.135    95077861.91447
  20319216.812   106778218.44748  20319218.519    83203816.12749
  21156458.410   111177947.33249  21156460.306    86632177.84748
  5  3 12 18 29 45.0000000  0  5G 2G 5G 6G10G30
  21161784.921   111205926.96548  21161785.021    86653962.60348
  20986931.361   110287067.49349  20986933.770    85937979.11649
  23216383.270   122002938.22346  23216386.744    95067246.57147
  20318604.090   106774998.60148  20318605.797    83201307.16249
  21155727.163   111174104.57649  21155729.052    86629183.48448
  5  3 12 18 29 50.0000000  0  5G 2G 5G 6G10G30
  21163525.365   111215073.05648  21163525.457    86661089.42948
  20988538.024   110295510.53349  20988540.434    85944558.10348
  23213847.219   121989611.34147  23213850.679    95056862.02647
  20318050.983   106772092.00748  20318052.683    83199042.28549
  21155055.283   111170573.88349  21155057.178    86626432.30448
  5  3 12 18 29 55.0000000  0  5G 2G 5G 6G10G30
  21165264.532   111224212.44348  21165264.625    86668211.02948
  20990145.054   110303955.56449  20990147.463    85951138.65149
  23211309.047   121976273.06647  23211312.514    95046468.54247
  20317498.979   106769191.17348  20317500.679    83196781.89049
  21154384.283   111167047.72548  21154386.172    86623684.64748
  5  3 12 18 30  0.0000000  0  5G 2G 5G 6G10G30
  21167002.467   111233345.35048  21167002.552    86675327.58148
  20991752.521   110312402.79449  20991754.937    85957720.89449
  23208768.733   121962923.68747  23208772.193    95036066.44347
  20316948.099   106766296.31348  20316949.800    83194526.16149
  21153714.183   111163526.32649  21153716.071    86620940.69348
  5  3 12 18 30  5.0000000  0  5G 2G 5G 6G10G30
  21168768.396   111242625.34248  21168768.481    86682558.73548
  20993389.615   110321005.78449  20993392.038    85964424.51849
  23206255.528   121949716.76547  23206258.980    95025775.35247
  20316427.589   106763561.01549  20316429.290    83192394.76249
  21153074.208   111160163.26449  21153076.089    86618320.13848
  5  3 12 18 30 10.0000000  0  5G 2G 5G 6G10G30
  21170474.388   111251590.35748  21170474.472    86689544.45148
  20994968.428   110329302.47249  20994970.851    85970889.46149
  23203681.518   121936190.25247  23203684.971    95015235.21447
  20315849.515   106760523.21548  20315851.216    83190027.64549
  21152376.450   111156496.51949  21152378.330    86615462.92948
  5  3 12 18 30 15.0000000  0  5G 2G 5G 6G10G30
  21172208.328   111260702.33948  21172208.412    86696644.70848
  20996576.840   110337754.76549  20996579.256    85977475.67549
  23201134.578   121922806.12047  23201138.024    95004806.04947
  20315301.779   106757644.84049  20315303.479    83187784.75549
  21151708.803   111152988.01449  21151710.677    86612729.03248
  5  3 12 18 30 20.0000000  0  5G 2G 5G 6G10G30
  21173999.512   111270115.00848  21173999.594    86703979.23848
  20998244.137   110346516.40549  20998246.566    85984302.90549
  23198644.019   121909718.07847  23198647.466    94994607.56547
  20314813.630   106755079.63349  20314815.331    83185785.89949
  21151100.510   111149791.41349  21151102.384    86610238.17548
  5  3 12 18 30 25.0000000  0  5G 2G 5G 6G10G30
  21175730.642   111279212.15948  21175730.718    86711067.93248
  20999853.025   110354971.20049  20999855.454    85990891.06549
  23196092.513   121896309.92247  23196095.953    94984159.67347
  20314267.823   106752211.42949  20314269.530    83183550.93649
  21150434.339   111146290.66149  21150436.205    86607510.31648
  5  3 12 18 30 30.0000000  0  5G 2G 5G 6G10G30
  21177460.411   111288302.18848  21177460.487    86718151.07548
  21001462.215   110363427.52049  21001464.645    85997480.39949
  23193538.805   121882890.09147  23193542.238    94973702.66847
  20313723.047   106749348.60848  20313724.753    83181320.16649
  21149768.958   111142794.05949  21149770.823    86604785.68848
  5  3 12 18 30 35.0000000  0  5G 2G 5G 6G10G30
  21179218.193   111297539.39448  21179218.260    86725348.89548
  21003101.056   110372039.68649  21003103.485    86004191.17649
  23191012.228   121869612.90347  23191015.654    94963356.82147
  20313208.655   106746645.49448  20313210.355    83179213.85349
  21149133.732   111139455.95649  21149135.598    86602184.57748
  5  3 12 18 30 40.0000000  0  5G 2G 5G 6G10G30
  21180974.594   111306769.28448  21180974.662    86732541.00648
  21004740.154   110380653.17349  21004742.590    86010902.97649
  23188483.377   121856323.76547  23188486.803    94953001.66447
  20312695.259   106743947.58048  20312696.965    83177111.57849
  21148499.278   111136121.81248  21148501.143    86599586.52948
  5  3 12 18 30 45.0000000  0  5G 2G 5G 6G10G30
  21182700.265   111315837.71248  21182700.325    86739607.30548
  21006350.176   110389113.86549  21006352.606    86017495.72049
  23185922.951   121842868.66947  23185926.377    94942517.17947
  20312153.524   106741100.74348  20312155.230    83174893.26349
  21147836.246   111132637.58949  21147838.105    86596871.56148
  5  3 12 18 30 50.0000000  0  5G 2G 5G 6G10G30
  21184424.496   111324898.60848  21184424.549    86746667.74848
  21007960.413   110397575.68449  21007962.842    86024089.33749
  23183360.231   121829401.51547  23183363.657    94932023.29947
  20311612.743   106738258.92048  20311614.450    83172678.85749
  21147173.952   111129157.21249  21147175.810    86594159.57548
  5  3 12 18 30 55.0000000  0  5G 2G 5G 6G10G30
  21186176.587   111334105.91048  21186176.641    86753842.27048
  21009600.147   110406192.54549  21009602.584    86030803.77349
  23180824.531   121816076.29047  23180827.956    94921639.99647
  20311102.210   106735576.05149  20311103.924    83170588.30849
  21146541.681   111125834.60349  21146543.532    86591570.53148
  5  3 12 18 31  0.0000000  0  5G 2G 5G 6G10G30
  21187956.530   111343459.54248  21187956.583    86761130.80248
  21011269.370   110414964.40449  21011271.807    86037638.99549
  23178315.795   121802892.91847  23178319.220    94911367.26647
  20310621.914   106733052.07848  20310623.628    83168621.57549
  21145939.430   111122669.69149  21145941.273    86589104.35448
  5  3 12 18 31  5.0000000  0  5G 2G 5G 6G10G30
  21189676.402   111352497.52748  21189676.448    86768173.39448
  21012880.182   110423429.27649  21012882.619    86044234.99949
  23175746.148   121789389.42347  23175749.565    94900845.08347
  20310083.942   106730225.01449  20310085.649    83166418.67649
  21145279.253   111119200.50049  21145281.089    86586401.10348
  5  3 12 18 31 10.0000000  0  5G 2G 5G 6G10G30
  21191453.402   111361835.72748  21191453.448    86775449.91148
  21014549.778   110432203.03549  21014552.222    86051071.68249
  23173232.796   121776181.63747  23173236.220    94890553.29248
  20309605.493   106727710.75049  20309607.201    83164459.51049
  21144678.385   111116042.91649  21144680.221    86583940.64948
  5  3 12 18 31 15.0000000  0  5G 2G 5G 6G10G30
  21193170.308   111370858.13048  21193170.354    86782480.35648
  21016160.918   110440669.63149  21016163.361    86057669.02949
  23170658.484   121762653.57147  23170661.907    94880011.94547
  20309069.336   106724893.25849  20309071.051    83162264.06549
  21144019.605   111112580.93949  21144021.434    86581242.99448
  5  3 12 18 31 20.0000000  0  5G 2G 5G 6G10G30
  21194944.338   111380180.72048  21194944.383    86789744.70848
  21017830.843   110449445.08549  21017833.287    86064507.03449
  23168140.456   121749421.27347  23168143.886    94869701.06847
  20308592.706   106722388.54849  20308594.421    83160312.34649
  21143420.103   111109430.53649  21143421.932    86578788.13248
  5  3 12 18 31 25.0000000  0  5G 2G 5G 6G10G30
  21196687.574   111389341.42648  21196687.620    86796882.90948
  21019471.599   110458067.28449  21019474.043    86071225.62349
  23165590.758   121736022.61647  23165594.174    94859260.58247
  20308087.665   106719734.54248  20308089.381    83158244.29149
  21142791.966   111106129.65749  21142793.789    86576216.02648
  5  3 12 18 31 30.0000000  0  5G 2G 5G 6G10G30
  21198429.278   111398494.14048  21198429.323    86804014.89348
  21021112.461   110466690.10549  21021114.905    86077944.71149
  23163038.722   121722611.54447  23163042.145    94848810.38547
  20307583.501   106717085.13948  20307585.217    83156179.82249
  21142164.490   111102832.24448  21142166.312    86573646.61048
  5  3 12 18 31 35.0000000  0  5G 2G 5G 6G10G30
  21200198.761   111407792.86748  21200198.800    86811260.66648
  21022782.763   110475467.56649  21022785.213    86084784.28149
  23160513.606   121709342.09747  23160517.022    94838470.58747
  20307109.515   106714594.36248  20307111.238    83154238.95849
  21141566.974   111099692.28048  21141568.790    86571199.89048
  5  3 12 18 31 40.0000000  0  5G 2G 5G 6G10G30
  21201966.721   111417083.56248  21201966.759    86818500.16648
  21024453.171   110484245.61849  21024455.622    86091624.32449
  23157986.124   121696060.15147  23157989.547    94828121.03048
  20306636.405   106712108.14948  20306638.128    83152301.65349
  21140970.113   111096555.71948  21140971.928    86568755.80948
  5  3 12 18 31 45.0000000  0  5G 2G 5G 6G10G30
  21203703.840   111426212.11848  21203703.878    86825613.31248
  21026094.369   110492870.14449  21026096.820    86098344.72549
  23155426.990   121682611.78047  23155430.414    94817641.77547
  20306134.845   106709472.43148  20306136.567    83150247.84549
  21140344.557   111093268.46549  21140346.365    86566194.32848
  5  3 12 18 31 50.0000000  0  5G 2G 5G 6G10G30
  21205468.736   111435486.71048  21205468.774    86832840.26848
  21027764.994   110501649.33949  21027767.439    86105185.66349
  23152894.797   121669305.01347  23152898.214    94807272.87048
  20305663.475   106706995.36948  20305665.199    83148317.67049
  21139748.985   111090138.71449  21139750.793    86563755.56148
  5  3 12 18 31 55.0000000  0  5G 2G 5G 6G10G30
  21207261.385   111444907.11548  21207261.417    86840180.84048
  21029465.020   110510582.97349  21029467.472    86112146.92049
  23150389.503   121656139.70147  23150392.927    94797014.20348
  20305222.268   106704676.80849  20305223.991    83146510.99949
  21139183.349   111087166.24549  21139185.157    86561439.34249
  5  3 12 18 32  0.0000000  0  5G 2G 5G 6G10G30
  21208993.849   111454011.27448  21208993.881    86847274.99348
  21031106.497   110519208.99049  21031108.948    86118868.48948
  23147823.226   121642653.79247  23147826.650    94786505.69848
  20304723.287   106702054.64748  20304725.011    83144467.75649
  21138559.718   111083889.04349  21138561.526    86558885.67848
  5  3 12 18 32  5.0000000  0  5G 2G 5G 6G10G30
  21210783.374   111463415.22848  21210783.399    86854602.73648
  21032806.671   110528143.43449  21032809.123    86125830.39048
  23145313.139   121629463.35447  23145316.558    94776227.47748
  20304283.765   106699744.94548  20304285.490    83142667.99349
  21137995.329   111080923.12748  21137997.130    86556574.57048
  5  3 12 18 32 10.0000000  0  5G 2G 5G 6G10G30
  21212512.696   111472502.90648  21212512.721    86861684.05248
  21034448.295   110536770.22949  21034450.747    86132552.56649
  23142742.065   121615952.23847  23142745.491    94765699.32448
  20303786.470   106697131.67148  20303788.194    83140631.68149
  21137372.934   111077652.45049  21137374.734    86554025.99648
  5  3 12 18 32 15.0000000  0  5G 2G 5G 6G10G30
  21214299.069   111481890.35948  21214299.093    86868998.94748
  21036148.606   110545705.41948  21036151.058    86139515.05549
  23140227.198   121602736.58547  23140230.625    94755401.43048
  20303348.640   106694830.85649  20303350.364    83138838.83849
  21136809.782   111074693.06749  21136811.576    86551719.98648
  5  3 12 18 32 20.0000000  0  5G 2G 5G 6G10G30
  21216054.574   111491115.56948  21216054.591    86876187.41948
  21037819.678   110554486.93149  21037822.129    86146357.78249
  23137680.652   121589354.42547  23137684.079    94744973.78147
  20302882.344   106692380.45649  20302884.068    83136929.43649
  21136217.948   111071582.92649  21136219.742    86549296.49748
  5  3 12 18 32 25.0000000  0  5G 2G 5G 6G10G30
  21217808.500   111500332.54648  21217808.517    86883369.48348
  21039490.828   110563268.85249  21039493.287    86153200.83149
  23135131.718   121575959.74647  23135135.145    94734536.38447
  20302416.897   106689934.51649  20302418.615    83135023.51649
  21135626.740   111068476.10549  21135628.533    86546875.59448
  5  3 12 18 32 30.0000000  0  5G 2G 5G 6G10G30
  21219590.177   111509695.25748  21219590.194    86890665.09148
  21041191.339   110572205.10149  21041193.791    86160164.14449
  23132609.697   121562706.50247  23132613.125    94724209.19748
  20301981.594   106687646.95449  20301983.313    83133240.99649
  21135065.454   111065526.53049  21135067.248    86544577.22548
  5  3 12 18 32 35.0000000  0  5G 2G 5G 6G10G30
  21221340.931   111518895.56448  21221340.955    86897834.16348
  21042862.583   110580987.54849  21042865.042    86167007.60349
  23130055.965   121549286.58047  23130059.399    94713752.11848
  20301517.799   106685209.72349  20301519.525    83131341.85949
  21134475.461   111062426.09449  21134477.248    86542161.30448
  5  3 12 18 32 40.0000000  0  5G 2G 5G 6G10G30
  21223119.418   111528241.54748  21223119.443    86905116.74348
  21044563.188   110589924.25449  21044565.646    86173971.26349
  23127529.137   121536008.04147  23127532.564    94703405.21448
  20301084.142   106682930.83948  20301085.861    83129566.11049
  21133915.387   111059482.88548  21133917.175    86539867.89948
  5  3 12 18 32 45.0000000  0  5G 2G 5G 6G10G30
  21224896.298   111537579.11148  21224896.322    86912392.76548
  21046263.826   110598861.16949  21046266.285    86180935.09649
  23124999.916   121522716.86547  23125003.352    94693048.44847
  20300651.310   106680656.29648  20300653.030    83127793.73949
  21133355.912   111056542.82349  21133357.692    86537576.94348
  5  3 12 18 32 50.0000000  0  5G 2G 5G 6G10G30
  21226671.595   111546908.29948  21226671.613    86919662.25548
  21047964.510   110607798.29249  21047966.970    86187899.08349
  23122468.279   121509413.11647  23122471.707    94682681.91247
  20300219.308   106678386.11049  20300221.035    83126024.76049
  21132797.046   111053605.96649  21132798.834    86535288.47848
  5  3 12 18 32 55.0000000  0  5G 2G 5G 6G10G30
  21228415.968   111556075.07448  21228415.993    86926805.20148
  21049635.922   110616581.62149  21049638.381    86194743.23449
  23119904.931   121495942.69347  23119908.359    94672185.49447
  20299758.822   106675966.27049  20299760.549    83124139.17849
  21132209.489   111050518.33049  21132211.276    86532882.52848
  5  3 12 18 33  0.0000000  0  5G 2G 5G 6G10G30
  21230188.051   111565387.39748  21230188.069    86934061.55348
  21051336.667   110625519.06649  21051339.126    86201707.46949
  23117368.481   121482613.58647  23117371.909    94661799.18347
  20299328.468   106673704.71349  20299330.189    83122376.92649
  21131651.853   111047587.84149  21131653.633    86530599.01348
  5  3 12 18 33  5.0000000  0  5G 2G 5G 6G10G30
  21231987.842   111574845.33348  21231987.867    86941431.36248
  21053066.754   110634610.70249  21053069.213    86208791.85449
  23114858.935   121469425.89747  23114862.370    94651523.07247
  20298928.232   106671601.49049  20298929.952    83120738.05549
  21131124.102   111044814.55549  21131125.875    86528438.02648
  5  3 12 18 33 10.0000000  0  5G 2G 5G 6G10G30
  21233756.706   111584140.80748  21233756.723    86948674.59848
  21054767.553   110643548.46149  21054770.019    86215756.34049
  23112317.677   121456071.56147  23112321.112    94641117.11048
  20298499.519   106669348.55449  20298501.239    83118982.51449
  21130567.649   111041890.40549  21130569.423    86526159.47748
  5  3 12 18 33 15.0000000  0  5G 2G 5G 6G10G30
  21235523.968   111593427.83548  21235523.986    86955911.24248
  21056468.381   110652486.34349  21056470.848    86222720.91949
  23109774.018   121442704.60647  23109777.460    94630701.31248
  20298071.619   106667099.92849  20298073.334    83117230.34649
  21130011.822   111038969.45349  21130013.596    86523883.39648
  5  3 12 18 33 20.0000000  0  5G 2G 5G 6G10G30
  21237318.950   111602860.46548  21237318.968    86963261.33048
  21058198.538   110661578.38049  21058201.005    86229805.62149
  23107257.260   121429479.04547  23107260.702    94620395.70147
  20297673.849   106665009.63348  20297675.564    83115601.54549
  21129485.896   111036205.69449  21129487.663    86521729.81848
  5  3 12 18 33 25.0000000  0  5G 2G 5G 6G10G30
  21239053.704   111611976.66048  21239053.723    86970364.86148
  21059870.121   110670362.57249  21059872.580    86236650.44249
  23104679.510   121415932.84647  23104682.953    94609840.21748
  20297218.289   106662615.64548  20297220.010    83113736.09449
  21128901.953   111033137.11048  21128903.719    86519338.72948
  5  3 12 18 33 30.0000000  0  5G 2G 5G 6G10G30
  21240874.764   111621546.36448  21240874.783    86977821.76648
  21061629.628   110679608.84549  21061632.087    86243855.33049
  23102187.272   121402836.04747  23102190.715    94599634.92148
  20296851.458   106660687.93748  20296853.173    83112233.99049
  21128406.542   111030533.67948  21128408.308    86517310.07148
  5  3 12 18 33 35.0000000  0  5G 2G 5G 6G10G30
  21242606.289   111630645.58848  21242606.300    86984912.07348
  21063301.248   110688393.20649  21063303.708    86250700.27649
  23099604.712   121389264.63447  23099608.154    94589059.79747
  20296397.529   106658302.55749  20296399.245    83110375.26349
  21127823.827   111027471.45749  21127825.586    86514923.92448
  5  3 12 18 33 40.0000000  0  5G 2G 5G 6G10G30
  21244424.122   111640198.33348  21244424.126    86992355.76748
  21065060.780   110697639.64149  21065063.247    86257905.29549
  23097107.685   121376142.66647  23097111.120    94578834.89348
  20296032.347   106656383.50948  20296034.062    83108879.90149
  21127329.617   111024874.43449  21127331.376    86512900.28048
  5  3 12 18 33 45.0000000  0  5G 2G 5G 6G10G30
  21246211.033   111649588.64348  21246211.037    86999672.89848
  21066791.052   110706732.21749  21066793.519    86264990.40649
  23094578.942   121362854.09648  23094582.371    94568480.18247
  20295638.701   106654314.85649  20295640.410    83107267.96249
  21126806.744   111022126.68249  21126808.510    86510759.16748
  5  3 12 18 33 50.0000000  0  5G 2G 5G 6G10G30
  21247937.754   111658662.59448  21247937.759    87006743.50548
  21068462.736   110715516.97849  21068465.204    86271835.67549
  23091989.236   121349245.09847  23091992.664    94557875.76248
  20295187.281   106651942.63049  20295188.991    83105419.47749
  21126225.873   111019074.21949  21126227.639    86508380.62948
  5  3 12 18 33 55.0000000  0  5G 2G 5G 6G10G30
  21249721.505   111668036.23948  21249721.510    87014047.63848
  21070193.085   110724609.99249  21070195.552    86278921.13049
  23089455.765   121335931.71347  23089459.186    94547501.71748
  20294795.333   106649882.92849  20294797.036    83103814.51549
  21125704.273   111016333.15949  21125706.032    86506244.73448
  5  3 12 18 34  0.0000000  0  5G 2G 5G 6G10G30
  21251503.659   111677401.49049  21251503.665    87021345.23048
  21071923.470   110733703.19549  21071925.931    86286006.74149
  23086919.939   121322605.88947  23086923.353    94537117.96947
  20294404.233   106647827.68148  20294405.936    83102213.02649
  21125183.285   111013595.38148  21125185.044    86504111.40948
  5  3 12 18 34  5.0000000  0  5G 2G 5G 6G10G30
  21253284.223   111686758.41748  21253284.228    87028636.33848
  21073653.892   110742796.62449  21073656.360    86293092.52849
  23084381.765   121309267.66247  23084385.185    94526724.53547
  20294013.992   106645776.95148  20294015.688    83100615.06049
  21124662.952   111010861.01349  21124664.717    86501980.72548
  5  3 12 18 34 10.0000000  0  5G 2G 5G 6G10G30
  21255092.492   111696260.96348  21255092.489    87036040.93048
  21075413.650   110752044.21249  21075416.110    86300298.44249
  23081870.513   121296071.00647  23081873.933    94516441.44048
  20293653.895   106643884.66149  20293655.591    83099140.55449
  21124172.556   111008283.96149  21124174.314    86499972.63848
  5  3 12 18 34 15.0000000  0  5G 2G 5G 6G10G30
  21256899.195   111705755.25348  21256899.199    87043439.07448
  21077173.464   110761292.06549  21077175.930    86307504.54949
  23079356.929   121282862.06547  23079360.344    94506148.77348
  20293294.678   106641996.96149  20293296.375    83097669.62149
  21123682.816   111005710.36549  21123684.575    86497967.23748
  5  3 12 18 34 20.0000000  0  5G 2G 5G 6G10G30
  21258675.020   111715087.24548  21258675.017    87050710.75148
  21078904.020   110770386.17249  21078906.481    86314590.86549
  23076811.689   121269486.80247  23076815.104    94495726.50748
  20292907.029   106639959.82349  20292908.726    83096082.23349
  21123164.434   111002986.21549  21123166.193    86495844.51748
  5  3 12 18 34 25.0000000  0  5G 2G 5G 6G10G30
  21260478.575   111724564.92948  21260478.573    87058095.94948
  21080663.929   110779634.52548  21080666.390    86321797.36949
  23074293.421   121256253.21347  23074296.836    94485414.62047
  20292549.542   106638081.25049  20292551.239    83094618.41749
  21122676.006   111000419.50949  21122677.764    86493844.48448
  5  3 12 18 34 30.0000000  0  5G 2G 5G 6G10G30
  21262251.240   111733880.34448  21262251.238    87065354.71448
  21082394.578   110788729.11249  21082397.038    86328884.05049
  23071743.502   121242853.29847  23071746.918    94474973.13048
  20292163.617   106636053.22649  20292165.320    83093038.14449
  21122158.926   110997702.29549  21122160.684    86491727.18948
  5  3 12 18 34 35.0000000  0  5G 2G 5G 6G10G30
  21264080.939   111743495.47648  21264080.936    87072847.02248
  21084183.887   110798131.96549  21084186.340    86336210.94548
  23069249.853   121229749.14747  23069253.268    94464762.11548
  20291837.190   106634337.81148  20291838.894    83091701.44949
  21121701.144   110995296.57649  21121702.896    86489852.59348
  5  3 12 18 34 40.0000000  0  5G 2G 5G 6G10G30
  21265821.160   111752640.43448  21265821.151    87079972.97348
  21085885.341   110807073.16549  21085887.794    86343178.11449
  23066665.982   121216170.81548  23066669.391    94454181.60147
  20291423.730   106632165.06649  20291425.428    83090008.40649
  21121156.111   110992432.40748  21121157.862    86487620.77248
  5  3 12 18 34 45.0000000  0  5G 2G 5G 6G10G30
  21267647.756   111762239.19648  21267647.747    87087452.52048
  21087674.784   110816476.69149  21087677.237    86350505.52149
  23064167.689   121203042.32347  23064171.098    94443951.63248
  20291099.073   106630459.01048  20291100.777    83088679.01749
  21120699.689   110990033.86348  21120701.434    86485751.77248
  5  3 12 18 34 50.0000000  0  5G 2G 5G 6G10G30
  21269414.167   111771521.74948  21269414.158    87094685.67648
  21089405.658   110825572.52749  21089408.111    86357593.19149
  23061608.504   121189593.68247  23061611.912    94433472.16348
  20290716.709   106628449.67848  20290718.414    83087113.30349
  21120185.328   110987330.87749  21120187.072    86483645.54948
  5  3 12 18 34 55.0000000  0  5G 2G 5G 6G10G30
  21271237.657   111781104.19348  21271237.642    87102152.50648
  21091195.232   110834976.76949  21091197.685    86364921.16749
  23059105.629   121176440.98347  23059109.038    94423223.31048
  20290393.864   106626753.11448  20290395.562    83085791.31149
  21119730.274   110984939.58449  21119732.018    86481782.20948
  5  3 12 18 35  0.0000000  0  5G 2G 5G 6G10G30
  21273000.976   111790370.55848  21273000.954    87109373.06648
  21092926.273   110844073.45349  21092928.719    86372009.49449
  23056541.862   121162968.32747  23056545.264    94412725.15048
  20290013.335   106624753.42149  20290015.034    83084233.11049
  21119217.332   110982244.02249  21119219.068    86479681.76648
  5  3 12 18 35  5.0000000  0  5G 2G 5G 6G10G30
  21274821.396   111799936.90148  21274821.375    87116827.35548
  21094716.026   110853478.63448  21094718.472    86379338.19949
  23054034.417   121149791.71047  23054037.820    94402457.68048
  20289692.339   106623066.57448  20289694.044    83082918.68249
  21118763.712   110979860.23449  21118765.449    86477824.27248
  5  3 12 18 35 10.0000000  0  5G 2G 5G 6G10G30
  21276581.691   111809187.28148  21276581.669    87124035.43648
  21096447.262   110862576.34149  21096449.714    86386427.31849
  23051466.118   121136295.20947  23051469.530    94391940.92948
  20289313.678   106621076.69749  20289315.377    83081368.13249
  21118252.220   110977172.32849  21118253.950    86475729.79848
  5  3 12 18 35 15.0000000  0  5G 2G 5G 6G10G30
  21278369.768   111818583.68848  21278369.746    87131357.31248
  21098207.908   110871828.59949  21098210.360    86393636.86649
  23048924.841   121122940.80247  23048928.253    94381534.91648
  20288965.263   106619245.79749  20288966.969    83079941.46149
  21117770.768   110974642.27949  21117772.497    86473758.33148
  5  3 12 18 35 20.0000000  0  5G 2G 5G 6G10G30
  21280214.950   111828280.18648  21280214.929    87138913.02548
  21100027.281   110881389.43749  21100029.733    86401086.86449
  23046439.936   121109882.63447  23046443.348    94371359.74248
  20288676.418   106617727.90449  20288678.117    83078758.69049
  21117348.665   110972424.14449  21117350.394    86472029.91948
  5  3 12 18 35 25.0000000  0  5G 2G 5G 6G10G30
  21282000.032   111837660.82348  21282000.003    87146222.60848
  21101788.167   110890642.92549  21101790.612    86408297.36849
  23043894.214   121096504.74147  23043897.626    94360935.40548
  20288329.933   106615907.08648  20288331.634    83077339.86949
  21116868.715   110969901.98949  21116870.444    86470064.60648
  5  3 12 18 35 30.0000000  0  5G 2G 5G 6G10G30
  21283812.916   111847187.59349  21283812.888    87153646.06948
  21103578.464   110900051.03249  21103580.916    86415628.36349
  23041375.544   121083269.07047  23041378.949    94350621.90748
  20288013.710   106614245.34948  20288015.416    83076045.01149
  21116418.826   110967537.80748  21116420.549    86468222.39048
  5  3 12 18 35 35.0000000  0  5G 2G 5G 6G10G30
  21285595.027   111856552.58748  21285595.000    87160943.45548
  21105339.606   110909305.86248  21105342.057    86422839.91249
  23038825.373   121069867.80347  23038828.780    94340179.35948
  20287669.178   106612434.79448  20287670.885    83074634.18249
  21115940.433   110965023.77049  21115942.163    86466263.38749
  5  3 12 18 35 40.0000000  0  5G 2G 5G 6G10G30
  21287404.948   111866063.81848  21287404.920    87168354.80948
  21107130.192   110918715.42249  21107132.643    86430172.03148
  23036302.297   121056608.98047  23036305.697    94329847.81748
  20287354.935   106610783.46448  20287356.628    83073347.44649
  21115492.105   110962667.82349  21115493.828    86464427.59448
  5  3 12 18 35 45.0000000  0  5G 2G 5G 6G10G30
  21289184.119   111875413.39148  21289184.085    87175640.18948
  21108891.625   110927971.81749  21108894.076    86437384.80449
  23033747.735   121043184.69847  23033751.136    94319387.34848
  20287012.400   106608983.46349  20287014.100    83071944.85049
  21115015.287   110960162.12849  21115017.011    86462475.10648
  5  3 12 18 35 50.0000000  0  5G 2G 5G 6G10G30
  21290991.140   111884909.35148  21290991.112    87183039.63448
  21110682.535   110937383.11349  21110684.986    86444718.28048
  23031220.295   121029902.97147  23031223.696    94309037.96748
  20286700.210   106607342.86549  20286701.911    83070666.45649
  21114568.589   110957814.71649  21114570.306    86460645.95748
  5  3 12 18 35 55.0000000  0  5G 2G 5G 6G10G30
  21292826.031   111894551.74048  21292826.005    87190553.17948
  21112502.931   110946949.29448  21112505.388    86452172.43048
  23028719.989   121016763.84047  23028723.384    94298799.70248
  20286418.335   106605861.63148  20286420.029    83069512.25949
  21114152.031   110955625.62449  21114153.748    86458940.15648
  5  3 12 18 36  0.0000000  0  5G 2G 5G 6G10G30
  21294600.895   111903878.67848  21294600.875    87197820.91448
  21114264.898   110956208.49548  21114267.349    86459387.39549
  23026158.946   121003305.46647  23026162.334    94288312.66148
  20286078.905   106604077.91249  20286080.598    83068122.34849
  21113677.691   110953132.95349  21113679.408    86456997.81648
  5  3 12 18 36  5.0000000  0  5G 2G 5G 6G10G30
  21296432.943   111913506.15948  21296432.924    87205322.84948
  21116085.678   110965776.72749  21116088.128    86466843.15348
  23023654.378   120990143.87347  23023657.767    94278056.87847
  20285799.143   106602607.72548  20285800.838    83066976.74549
  21113262.812   110950952.78049  21113264.523    86455298.99348
  5  3 12 18 36 10.0000000  0  5G 2G 5G 6G10G30
  21298205.015   111922818.42548  21298205.003    87212579.15449
  21117848.077   110975038.19749  21117850.535    86474059.88149
  23021089.097   120976663.29547  23021092.486    94267552.54147
  20285461.863   106600835.33448  20285463.557    83065595.66749
  21112790.225   110948469.25649  21112791.937    86453363.76948
  5  3 12 18 36 15.0000000  0  5G 2G 5G 6G10G30
  21300004.993   111932277.40848  21300004.982    87219949.79948
  21119640.006   110984454.84549  21119642.463    86481397.52649
  23018551.041   120963325.68647  23018554.430    94257159.59647
  20285154.976   106599222.63448  20285156.664    83064339.02349
  21112347.815   110946144.37449  21112349.527    86451552.17448
  5  3 12 18 36 20.0000000  0  5G 2G 5G 6G10G30
  21301832.928   111941883.23748  21301832.917    87227434.85748
  21121461.497   110994026.78649  21121463.948    86488856.17249
  23016040.192   120950131.21147  23016043.574    94246878.21548
  20284878.513   106597769.80948  20284880.201    83063206.95249
  21111935.623   110943978.32349  21111937.335    86449864.34648
  5  3 12 18 36 25.0000000  0  5G 2G 5G 6G10G30
  21303659.536   111951482.09948  21303659.532    87234914.47848
  21123283.249   111003600.18549  21123285.705    86496315.96349
  23013527.317   120936926.05947  23013530.698    94236588.50548
  20284603.198   106596323.02049  20284604.879    83062079.58549
  21111524.387   110941817.26249  21111526.091    86448180.40548
  5  3 12 18 36 30.0000000  0  5G 2G 5G 6G10G30
  21305455.512   111960919.95148  21305455.509    87242268.63948
  21125075.982   111013021.03149  21125078.439    86503656.87749
  23010983.101   120923556.11547  23010986.483    94226170.37048
  20284299.718   106594728.22349  20284301.399    83060836.88648
  21111084.779   110939507.13649  21111086.484    86446380.31748
  5  3 12 18 36 35.0000000  0  5G 2G 5G 6G10G30
  21307279.452   111970504.85048  21307279.455    87249737.39448
  21126898.303   111022597.39249  21126900.759    86511118.97549
  23008466.163   120910329.54347  23008469.543    94215863.95347
  20284026.704   106593293.52749  20284028.379    83059718.94849
  21110675.448   110937356.02649  21110677.154    86444704.11749
  5  3 12 18 36 40.0000000  0  5G 2G 5G 6G10G30
  21309072.792   111979928.91848  21309072.796    87257080.82348
  21128691.624   111032021.32749  21128694.081    86518462.29548
  23005917.921   120896938.44347  23005921.303    94205429.33348
  20283725.569   106591711.05249  20283727.251    83058485.84749
  21110237.774   110935056.06749  21110239.480    86442911.94848
  5  3 12 18 36 45.0000000  0  5G 2G 5G 6G10G30
  21310894.169   111989500.31748  21310894.172    87264539.05648
  21130514.585   111041601.05249  21130517.041    86525927.01449
  23003396.996   120883690.95647  23003400.370    94195106.63048
  20283454.945   106590288.91349  20283456.620    83057377.69149
  21109830.432   110932915.43649  21109832.131    86441243.92048
  5  3 12 18 36 50.0000000  0  5G 2G 5G 6G10G30
  21312714.297   111999065.09248  21312714.301    87271992.11548
  21132337.899   111051182.59749  21132340.348    86533393.15249
  23000874.126   120870433.21447  23000877.500    94184775.92848
  20283185.538   106588873.19948  20283187.213    83056274.54549
  21109424.099   110930780.14149  21109425.805    86439580.05148
  5  3 12 18 36 55.0000000  0  5G 2G 5G 6G10G30
  21314474.586   112008315.50848  21314474.591    87279200.24148
  21134102.991   111060458.18749  21134105.440    86540620.87649
  22998290.717   120856857.40147  22998294.083    94174197.39548
  20282858.803   106587156.16248  20282860.479    83054936.59149
  21108960.226   110928342.47249  21108961.932    86437680.57148
  5  3 12 18 37  0.0000000  0  5G 2G 5G 6G10G30
  21316321.602   112018021.61048  21316321.607    87286763.43148
  21135956.390   111070197.89649  21135958.839    86548210.26448
  22995793.345   120843733.65847  22995796.719    94163971.10448
  20282621.263   106585907.88148  20282622.932    83053963.90849
  21108585.351   110926372.49549  21108587.058    86436145.52248
  5  3 12 18 37  5.0000000  0  5G 2G 5G 6G10G30
  21318138.129   112027567.52448  21318138.141    87294201.80548
  21137780.914   111079785.80248  21137783.363    86555681.35449
  22993264.798   120830446.08547  22993268.166    94153617.16448
  20282355.725   106584512.46949  20282357.394    83052876.57548
  21108182.276   110924254.31749  21108183.976    86434495.00048
  5  3 12 18 37 10.0000000  0  5G 2G 5G 6G10G30
  21319953.496   112037107.30848  21319953.508    87301635.39648
  21139605.880   111089376.03649  21139608.329    86563154.25549
  22990734.409   120817148.79947  22990737.776    94143255.64348
  20282091.517   106583124.04749  20282093.186    83051794.68749
  21107780.331   110922142.08249  21107782.031    86432849.10248
  5  3 12 18 37 15.0000000  0  5G 2G 5G 6G10G30
  21321767.719   112046641.14848  21321767.738    87309064.36448
  21141431.314   111098968.72349  21141433.768    86570629.06249
  22988202.176   120803841.88847  22988205.542    94132886.63148
  20281828.651   106581742.71148  20281830.320    83050718.32849
  21107379.535   110920035.85449  21107381.236    86431207.88348
  5  3 12 18 37 20.0000000  0  5G 2G 5G 6G10G30
  21323610.156   112056323.15948  21323610.176    87316608.78048
  21143286.536   111108717.98049  21143288.990    86578225.88549
  22985697.458   120790679.56947  22985700.831    94122630.28848
  20281596.480   106580522.61148  20281598.143    83049767.60049
  21107009.219   110918089.86349  21107010.920    86429691.53348
  5  3 12 18 37 25.0000000  0  5G 2G 5G 6G10G30
  21325392.883   112065691.45048  21325392.909    87323908.74248
  21145083.667   111118161.93849  21145086.122    86585584.80848
  22983132.365   120777199.94547  22983135.732    94112126.69748
  20281307.085   106579001.86348  20281308.755    83048582.60449
  21106581.509   110915842.20049  21106583.209    86427940.09948
  5  3 12 18 37 30.0000000  0  5G 2G 5G 6G10G30
  21327203.871   112075208.22748  21327203.892    87331324.41348
  21146910.653   111127762.78249  21146913.107    86593065.97749
  22980594.829   120763865.19447  22980598.189    94101736.00848
  20281048.445   106577642.69949  20281050.115    83047523.51749
  21106184.343   110913755.08149  21106186.038    86426313.77848
  5  3 12 18 37 35.0000000  0  5G 2G 5G 6G10G30
  21329043.011   112084872.97249  21329043.032    87338855.38348
  21148767.395   111137519.99549  21148769.842    86600668.99649
  22978084.799   120750674.87147  22978088.166    94091457.82348
  20280820.455   106576444.60549  20280822.125    83046589.93649
  21105817.619   110911827.96149  21105819.321    86424812.13348
  5  3 12 18 37 40.0000000  0  5G 2G 5G 6G10G30
  21330851.881   112094378.61848  21330851.903    87346262.37548
  21150595.464   111147126.53149  21150597.912    86608154.60549
  22975543.822   120737321.97447  22975547.188    94081052.97448
  20280564.692   106575100.55949  20280566.355    83045542.63249
  21105422.926   110909753.80449  21105424.628    86423195.90048
  5  3 12 18 37 45.0000000  0  5G 2G 5G 6G10G30
  21332689.065   112104033.08449  21332689.086    87353785.33448
  21152453.434   111156890.26349  21152455.882    86615762.71248
  22973030.479   120724114.30347  22973033.839    94070761.29448
  20280339.733   106573918.39349  20280341.397    83044621.46749
  21105058.840   110907840.52149  21105060.542    86421705.03149
  5  3 12 18 37 50.0000000  0  5G 2G 5G 6G10G30
  21334525.254   112113682.32448  21334525.276    87361304.22648
  21154312.029   111166657.21249  21154314.477    86623373.31549
  22970515.486   120710897.92347  22970518.847    94060462.81948
  20280116.281   106572744.14549  20280117.952    83043706.46549
  21104696.083   110905934.15649  21104697.779    86420219.54348
  5  3 12 18 37 55.0000000  0  5G 2G 5G 6G10G30
  21336331.201   112123172.60748  21336331.222    87368699.24348
  21156141.963   111176273.58248  21156144.410    86630866.58848
  22967969.557   120697519.06947  22967972.910    94050037.75948
  20279865.077   106571424.05949  20279866.742    83042677.83349
  21104305.358   110903880.91749  21104307.055    86418619.62548
  5  3 12 18 38  0.0000000  0  5G 2G 5G 6G10G30
  21338136.300   112132658.43348  21338136.315    87376090.79548
  21157972.638   111185893.84448  21157975.085    86638362.89449
  22965422.129   120684132.21347  22965425.482    94039606.43647
  20279615.520   106570112.62848  20279617.177    83041655.93949
  21103916.082   110901835.25549  21103917.778    86417025.60348
  5  3 12 18 38  5.0000000  0  5G 2G 5G 6G10G30
  21339969.909   112142294.08148  21339969.925    87383599.08948
  21159833.426   111195672.28749  21159835.865    86645982.44849
  22962902.530   120670891.69247  22962905.883    94029289.16148
  20279396.965   106568964.14548  20279398.623    83040761.02749
  21103557.621   110899951.53149  21103559.311    86415557.77248
  5  3 12 18 38 10.0000000  0  5G 2G 5G 6G10G30
  21341802.648   112151925.18848  21341802.663    87391103.84648
  21161694.931   111205454.59249  21161697.370    86653605.02848
  22960381.413   120657643.16648  22960384.759    94018965.64448
  20279180.069   106567824.32048  20279181.727    83039872.84349
  21103200.606   110898075.40549  21103202.295    86414095.85048
  5  3 12 18 38 15.0000000  0  5G 2G 5G 6G10G30
  21343605.248   112161397.95149  21343605.264    87398485.22648
  21163527.911   111215086.90649  21163530.358    86661110.71348
  22957829.499   120644232.80148  22957832.839    94008516.01847
  20278935.523   106566539.25149  20278937.181    83038871.49749
  21102815.758   110896053.01249  21102817.440    86412519.96648
  5  3 12 18 38 20.0000000  0  5G 2G 5G 6G10G30
  21345465.633   112171174.27748  21345465.642    87406103.13449
  21165420.241   111225031.16748  21165422.681    86668859.49048
  22955334.700   120631122.57347  22955338.032    93998300.26648
  20278751.260   106565570.90949  20278752.918    83038116.94349
  21102490.975   110894346.30049  21102492.665    86411190.06449
  5  3 12 18 38 25.0000000  0  5G 2G 5G 6G10G30
  21347295.961   112180792.71348  21347295.977    87413598.01648
  21167284.119   111234825.91348  21167286.558    86676491.75749
  22952809.219   120617851.04947  22952812.552    93987958.81648
  20278539.448   106564457.86448  20278541.100    83037249.64649
  21102138.480   110892493.89549  21102140.164    86409746.63248
  5  3 12 18 38 30.0000000  0  5G 2G 5G 6G10G30
  21349125.540   112190407.18648  21349125.549    87421089.81048
  21169148.835   111244625.06149  21169151.274    86684127.45949
  22950282.298   120604572.05447  22950285.624    93977611.56248
  20278329.393   106563354.01848  20278331.052    83036389.50349
  21101787.539   110890649.65848  21101789.229    86408309.55248
  5  3 12 18 38 35.0000000  0  5G 2G 5G 6G10G30
  21350954.365   112200017.75648  21350954.374    87428578.57348
  21171014.403   111254428.65449  21171016.849    86691766.61248
  22947753.993   120591285.72047  22947757.311    93967258.57448
  20278121.099   106562259.42548  20278122.751    83035536.57649
  21101438.157   110888813.67049  21101439.839    86406878.92048
  5  3 12 18 38 40.0000000  0  5G 2G 5G 6G10G30
  21352811.850   112209778.84348  21352811.860    87436184.60448
  21172910.200   111264391.10748  21172912.640    86699529.55949
  22945253.685   120578146.51247  22945256.997    93957020.23748
  20277943.952   106561328.51248  20277945.604    83034811.18949
  21101119.733   110887140.37449  21101121.416    86405575.06148
  5  3 12 18 38 45.0000000  0  5G 2G 5G 6G10G30
  21354610.038   112219228.38848  21354610.055    87443547.88348
  21174748.300   111274050.38649  21174750.747    86707056.26849
  22942693.431   120564692.37847  22942696.728    93946536.52048
  20277710.030   106560099.27148  20277711.682    83033853.34649
  21100744.354   110885167.68149  21100746.037    86404037.88648
  5  3 12 18 38 50.0000000  0  5G 2G 5G 6G10G30
  21356466.158   112228982.33248  21356466.176    87451148.35548
  21176645.919   111284022.37749  21176648.366    86714826.63849
  22940190.479   120551539.27847  22940193.776    93936287.35148
  20277536.543   106559187.59249  20277538.201    83033142.94349
  21100429.203   110883511.55049  21100430.887    86402747.39748
  5  3 12 18 38 55.0000000  0  5G 2G 5G 6G10G30
  21358262.938   112238424.44348  21358262.950    87458505.84448
  21178485.784   111293690.90248  21178488.224    86722360.55048
  22937627.543   120538070.95847  22937630.841    93925792.55748
  20277306.230   106557977.29248  20277307.883    83032199.85849
  21100057.026   110881555.78149  21100058.710    86401223.42848
  5  3 12 18 39  0.0000000  0  5G 2G 5G 6G10G30
  21360147.021   112248325.36648  21360147.040    87466220.84548
  21180414.533   111303826.54549  21180416.973    86730258.45549
  22935151.276   120525058.12247  22935154.568    93915652.69648
  20277165.733   106557238.97248  20277167.392    83031624.54049
  21099774.490   110880071.04049  21099776.173    86400066.48748
  5  3 12 18 39  5.0000000  0  5G 2G 5G 6G10G30
  21361942.654   112257761.51148  21361942.673    87473573.69648
  21182256.422   111313505.74049  21182258.862    86737800.68249
  22932585.917   120511577.13148  22932589.201    93905148.04348
  20276939.298   106556049.08049  20276940.957    83030697.35949
  21099405.822   110878133.65049  21099407.500    86398556.83249
  5  3 12 18 39 10.0000000  0  5G 2G 5G 6G10G30
  21363767.101   112267348.98448  21363767.121    87481044.44148
  21184128.694   111323344.56649  21184131.135    86745467.29549
  22930048.730   120498244.08847  22930052.014    93894758.65448
  20276744.182   106555023.70849  20276745.842    83029898.36449
  21099068.271   110876359.80849  21099069.956    86397174.61349
  5  3 12 18 39 15.0000000  0  5G 2G 5G 6G10G30
  21365620.229   112277087.20848  21365620.249    87488632.66248
  21186031.232   111333342.46848  21186033.672    86753257.86749
  22927539.587   120485058.55047  22927542.864    93884484.22847
  20276580.259   106554162.31849  20276581.919    83029227.15749
  21098761.735   110874748.94649  21098763.420    86395919.39948
  5  3 12 18 39 20.0000000  0  5G 2G 5G 6G10G30
  21367472.754   112286822.32348  21367472.781    87496218.47148
  21187934.760   111343345.54649  21187937.200    86761052.46749
  22925029.235   120471866.56247  22925032.512    93874204.75847
  20276418.263   106553311.02449  20276419.924    83028563.81349
  21098456.924   110873147.15449  21098458.610    86394671.25248
  5  3 12 18 39 25.0000000  0  5G 2G 5G 6G10G30
  21369324.865   112296555.20048  21369324.892    87503802.52348
  21189839.445   111353354.69849  21189841.891    86768851.79549
  22922517.820   120458669.01847  22922521.090    93863920.96848
  20276258.357   106552470.71148  20276260.018    83027909.02549
  21098154.023   110871555.36649  21098155.709    86393430.89548
  5  3 12 18 39 30.0000000  0  5G 2G 5G 6G10G30
  21371147.188   112306131.57048  21371147.214    87511264.62848
  21191715.924   111363215.66549  21191718.363    86776535.66648
  22919976.010   120445311.74747  22919979.281    93853512.71448
  20276071.192   106551487.15248  20276072.846    83027142.61949
  21097823.658   110869819.35049  21097825.345    86392078.17148
  5  3 12 18 39 35.0000000  0  5G 2G 5G 6G10G30
  21372998.277   112315859.07648  21372998.304    87518844.50148
  21193622.751   111373236.07648  21193625.191    86784343.77549
  22917462.316   120432102.28747  22917465.586    93843219.64648
  20275915.297   106550667.91749  20275916.958    83026504.25249
  21097524.399   110868246.67149  21097526.086    86390852.69348
  5  3 12 18 39 40.0000000  0  5G 2G 5G 6G10G30
  21374848.883   112325584.07848  21374848.917    87526422.42048
  21195530.678   111383262.29949  21195533.117    86792156.41548
  22914947.538   120418887.04247  22914950.808    93832922.05148
  20275761.450   106549859.44549  20275763.104    83025874.27849
  21097226.986   110866683.72549  21097228.681    86389634.80448
  5  3 12 18 39 45.0000000  0  5G 2G 5G 6G10G30
  21376699.029   112335306.62948  21376699.056    87533998.42948
  21197439.732   111393294.38549  21197442.179    86799973.61049
  22912431.653   120405666.06848  22912434.915    93822620.01548
  20275609.656   106549061.76548  20275611.311    83025252.71049
  21096931.445   110865130.61749  21096933.141    86388424.58648
  5  3 12 18 39 50.0000000  0  5G 2G 5G 6G10G30
  21378490.168   112344719.12848  21378490.202    87541332.84248
  21199291.353   111403024.68549  21199293.793    86807555.65949
  22909856.169   120392131.84348  22909859.438    93812073.87048
  20275401.385   106547967.29148  20275403.040    83024399.87449
  21096579.215   110863279.66349  21096580.911    86386982.29449
  5  3 12 18 39 55.0000000  0  5G 2G 5G 6G10G30
  21380339.473   112354437.29148  21380339.506    87548905.43348
  21201202.716   111413068.93849  21201205.157    86815382.34449
  22907338.240   120378900.06448  22907341.503    93801763.40648
  20275253.787   106547191.72348  20275255.442    83023795.54949
  21096287.496   110861746.64149  21096289.200    86385787.72649
  5  3 12 18 40  0.0000000  0  5G 2G 5G 6G10G30
  21382188.286   112364152.84148  21382188.314    87556475.99048
  21203115.159   111423118.82949  21203117.599    86823213.41349
  22904819.187   120365662.38547  22904822.456    93791448.33248
  20275108.229   106546426.74748  20275109.885    83023199.45449
  21095997.600   110860223.25649  21095999.310    86384600.67548
  5  3 12 18 40  5.0000000  0  5G 2G 5G 6G10G30
  21384036.657   112373866.06448  21384036.684    87564044.72848
  21205028.718   111433174.68149  21205031.159    86831049.15049
  22902299.081   120352419.23247  22902302.336    93781129.01948
  20274964.737   106545672.69448  20274966.400    83022611.87849
  21095709.600   110858709.84149  21095711.311    86383421.39948
  5  3 12 18 40 10.0000000  0  5G 2G 5G 6G10G30
  21385884.638   112383577.26948  21385884.666    87571611.90348
  21206943.465   111443236.77449  21206945.912    86838889.74449
  22899777.991   120339170.84847  22899781.254    93770805.60848
  20274823.380   106544929.88949  20274825.036    83022033.07649
  21095423.561   110857206.66549  21095425.273    86382250.09048
  5  3 12 18 40 15.0000000  0  5G 2G 5G 6G10G30
  21387732.159   112393286.05848  21387732.179    87579177.19448
  21208859.344   111453304.72649  21208861.785    86846734.89149
  22897255.843   120325916.86847  22897259.105    93760477.83148
  20274684.093   106544197.95848  20274685.755    83021462.74549
  21095139.401   110855713.39049  21095141.119    86381086.49549
  5  3 12 18 40 20.0000000  0  5G 2G 5G 6G10G30
  21389579.253   112402992.53848  21389579.273    87586740.67148
  21210776.344   111463378.63149  21210778.792    86854584.68349
  22894732.632   120312657.39847  22894735.895    93750145.80048
  20274546.899   106543476.99948  20274548.561    83020900.95949
  21094857.148   110854230.14049  21094858.860    86379930.72348
  5  3 12 18 40 25.0000000  0  5G 2G 5G 6G10G30
  21391425.933   112412696.90748  21391425.953    87594302.51848
  21212694.518   111473458.66849  21212696.958    86862439.25648
  22892208.432   120299392.67247  22892211.695    93739809.65648
  20274411.835   106542767.20248  20274413.498    83020347.86649
  21094576.825   110852757.03349  21094578.544    86378782.84549
  5  3 12 18 40 30.0000000  0  5G 2G 5G 6G10G30
  21393272.197   112422399.08948  21393272.217    87601862.65848
  21214613.847   111483544.77949  21214616.294    86870298.55149
  22889683.216   120286122.57047  22889686.472    93729469.32248
  20274278.861   106542068.48248  20274280.530    83019803.41649
  21094298.433   110851294.01349  21094300.161    86377642.81848
  5  3 12 18 40 35.0000000  0  5G 2G 5G 6G10G30
  21395118.044   112432099.05348  21395118.072    87609421.06348
  21216534.319   111493636.92949  21216536.759    86878162.56749
  22887156.978   120272847.13047  22887160.240    93719124.82348
  20274148.000   106541380.83649  20274149.669    83019267.59449
  21094021.954   110849841.13549  21094023.674    86376510.71548
  5  3 12 18 40 40.0000000  0  5G 2G 5G 6G10G30
  21397022.073   112442104.79249  21397022.100    87617217.74248
  21218514.557   111504043.12149  21218517.004    86886271.27449
  22884688.332   120259874.37347  22884691.588    93709016.19948
  20274077.867   106541012.28248  20274079.535    83018980.40749
  21093806.016   110848706.37649  21093807.751    86375626.48048
  5  3 12 18 40 45.0000000  0  5G 2G 5G 6G10G30
  21398867.137   112451800.66648  21398867.156    87624772.97048
  21220437.393   111514147.71949  21220439.839    86894144.99349
  22882160.131   120246588.61647  22882163.393    93698663.66248
  20273951.307   106540347.17548  20273952.976    83018462.13549
  21093533.462   110847274.09549  21093535.198    86374510.42249
  5  3 12 18 40 50.0000000  0  5G 2G 5G 6G10G30
  21400711.734   112461494.09148  21400711.754    87632326.29048
  21222361.341   111524258.10349  21222363.787    86902023.20849
  22879630.879   120233297.34247  22879634.135    93688306.83548
  20273826.804   106539692.94049  20273828.473    83017952.34849
  21093262.788   110845851.69249  21093264.517    86373402.06048
  5  3 12 18 40 55.0000000  0  5G 2G 5G 6G10G30
  21402555.939   112471185.41948  21402555.952    87639877.97048
  21224286.451   111534374.62848  21224288.904    86909906.21149
  22877100.642   120220000.88747  22877103.890    93677945.96948
  20273704.428   106539049.88249  20273706.097    83017451.27249
  21092994.059   110844439.54149  21092995.794    86372301.68749
  5  3 12 18 41  0.0000000  0  5G 2G 5G 6G10G30
  21404429.088   112481028.85648  21404429.095    87647548.17848
  21226242.074   111544651.46149  21226244.526    86917914.12549
  22874598.751   120206853.45347  22874601.998    93667701.23348
  20273613.538   106538572.25248  20273615.207    83017079.09349
  21092756.643   110843191.85049  21092758.380    86371329.45149
  5  3 12 18 41  5.0000000  0  5G 2G 5G 6G10G30
  21406272.566   112490716.39748  21406272.572    87655096.91048
  21228169.595   111554780.65249  21228172.047    86925807.00149
  22872066.619   120193547.07147  22872069.867    93657332.64048
  20273495.517   106537952.04548  20273497.192    83016595.80949
  21092491.905   110841800.64349  21092493.635    86370245.39649
  5  3 12 18 41 10.0000000  0  5G 2G 5G 6G10G30
  21408144.882   112500555.45348  21408144.888    87662763.69948
  21230127.516   111565069.53748  21230129.968    86933824.29749
  22869562.763   120180389.19047  22869566.012    93647079.74248
  20273408.859   106537496.65448  20273410.534    83016240.96049
  21092258.347   110840573.28649  21092260.084    86369289.01249
  5  3 12 18 41 15.0000000  0  5G 2G 5G 6G10G30
  21409987.571   112510238.84848  21409987.577    87670309.20448
  21232057.354   111575210.96449  21232059.812    86941726.71848
  22867028.684   120167072.54747  22867031.933    93636703.14548
  20273295.106   106536898.91048  20273296.781    83015775.19149
  21091997.525   110839202.62649  21091999.262    86368220.96049
  5  3 12 18 41 20.0000000  0  5G 2G 5G 6G10G30
  21411859.126   112520073.90648  21411859.126    87677972.88248
  21234017.631   111585512.26248  21234020.090    86949753.69849
  22864522.897   120153904.57947  22864526.145    93626442.39448
  20273212.762   106536466.15648  20273214.437    83015437.97449
  21091767.898   110837995.99549  21091769.636    86367280.74049
  5  3 12 18 41 25.0000000  0  5G 2G 5G 6G10G30
  21413701.042   112529753.20848  21413701.041    87685515.18548
  21235949.827   111595666.01948  21235952.285    86957665.71149
  22861986.910   120140577.81447  22861990.158    93616057.88948
  20273103.304   106535890.98549  20273104.979    83014989.79549
  21091511.014   110836645.99549  21091512.752    86366228.78249
  5  3 12 18 41 30.0000000  0  5G 2G 5G 6G10G30
  21415571.871   112539584.48148  21415571.864    87693175.92348
  21237912.514   111605979.94849  21237914.973    86965702.52849
  22859479.251   120127400.00647  22859482.494    93605789.48448
  20273025.317   106535481.15849  20273026.999    83014670.44649
  21091285.390   110835460.36549  21091287.135    86365304.91848
  5  3 12 18 41 35.0000000  0  5G 2G 5G 6G10G30
  21417442.265   112549413.46648  21417442.263    87700834.86548
  21239876.319   111616299.80849  21239878.777    86973743.97749
  22856970.591   120114216.94247  22856973.828    93595516.97948
  20272949.435   106535082.42548  20272951.116    83014359.75249
  21091061.707   110834284.90349  21091063.445    86364388.97848
  5  3 12 18 41 40.0000000  0  5G 2G 5G 6G10G30
  21419283.035   112559086.74548  21419283.027    87708372.48348
  21241812.051   111626472.18148  21241814.508    86981670.50449
  22854431.738   120100875.24247  22854434.974    93585120.85948
  20272846.473   106534541.35949  20272848.155    83013938.14349
  21090810.753   110832966.13249  21090812.499    86363361.36448
  5  3 12 18 41 45.0000000  0  5G 2G 5G 6G10G30
  21421152.738   112568912.07048  21421152.730    87716028.57348
  21243778.286   111636804.75749  21243780.751    86989721.84749
  22851921.239   120087682.57447  22851924.468    93574840.88248
  20272774.974   106534165.66249  20272776.656    83013645.39649
  21090591.096   110831811.82449  21090592.842    86362461.90449
  5  3 12 18 41 50.0000000  0  5G 2G 5G 6G10G30
  21423022.130   112578735.82448  21423022.122    87723683.45248
  21245745.769   111647143.94549  21245748.233    86997778.35548
  22849409.896   120074485.40747  22849413.126    93564557.38848
  20272705.728   106533801.76849  20272707.416    83013361.84149
  21090373.501   110830668.32649  21090375.254    86361570.85448
  5  3 12 18 41 55.0000000  0  5G 2G 5G 6G10G30
  21424891.168   112588557.62348  21424891.152    87731336.78948
  21247714.436   111657489.32949  21247716.893    87005839.69049
  22846897.611   120061283.32647  22846900.841    93554270.06348
  20272638.651   106533449.27848  20272640.333    83013087.17849
  21090157.885   110829535.28649  21090159.637    86360687.97248
  5  3 12 18 42  0.0000000  0  5G 2G 5G 6G10G30
  21426730.560   112598223.69648  21426730.544    87738868.79248
  21249655.010   111667687.11549  21249657.473    87013786.01148
  22844355.158   120047922.58147  22844358.396    93543859.08148
  20272544.478   106532954.39648  20272546.159    83012701.55149
  21089914.997   110828258.93049  21089916.749    86359693.41749
